[[{"header":{"parameterUnit":"m.s-1","parameterCategory":1,"la1":31.0,"la2":29.5877,"lo1":-88.7671,"lo2":-86.6584,"dy":0.0162,"dx":0.0185,"nx":115,"ny":88,"refTime":"2024-05-08T06:00:00:Z","depth":0,"parameterNumber":2,"parameterNumberName":"U-component_of_WINDS"},"data":[0.0,0.0,0.0,0.0,0.0,0.0,0.0,0.0,0.0,0.0,0.0,0.0,0.0,0.0,0.0,0.0,0.0,0.0,0.0,0.0,0.0,0.0,0.0,0.0,0.0,0.0,0.0,0.0,0.0,0.0,0.0,0.0,0.0,0.0,0.0,0.0,0.0,0.0,0.0,0.0,0.0,0.0,0.0,0.0,0.0,0.0,0.0,0.0,0.0,0.0,0.0,0.0,0.0,0.0,0.0,0.0,0.0,0.0,0.0,0.0,0.0,0.0,0.0,0.0,0.0,0.0,0.0,0.0,0.0,0.0,0.0,0.0,0.0,0.0,0.0,0.0,0.0,0.0,0.0,0.0,0.0,0.0,0.0,0.0,0.0,0.0,0.0,0.0,0.0,0.0,0.0,0.0,0.0,0.0,0.0,0.0,0.0,0.0,0.0,0.0,0.0,0.0,0.0,0.0,0.0,0.0,0.0,0.0,0.0,0.0,0.0,0.0,0.0,0.0,0.0,0.0,0.0,0.0,0.0,0.0,0.0,0.0,0.0,0.0,0.0,0.0,0.0,0.0,0.0,0.0,0.0,0.0,0.0,0.0,0.0,0.0,0.0,0.0,0.0,0.0,0.0,0.0,0.0,0.0,0.0,0.0,0.0,0.0,0.0,0.0,0.0,0.0,0.0,0.0,0.0,0.0,0.0,0.0,0.0,0.0,0.0,0.0,0.0,0.0,0.0,0.0,0.0,0.0,0.0,0.0,0.0,0.0,0.0,0.0,0.0,0.0,0.0,0.0,0.0,0.0,0.0,0.0,0.0,0.0,0.0,0.0,0.0,0.0,0.0,0.0,0.0,0.0,0.0,0.0,0.0,0.0,0.0,0.0,0.0,0.0,0.0,0.0,0.0,0.0,0.0,0.0,0.0,0.0,0.0,0.0,0.0,0.0,0.0,0.0,0.0,0.0,0.0,0.0,0.0,0.0,0.0,0.0,0.0,0.0,0.0,0.0,0.0,0.0,0.0,0.0,0.0,0.0,0.0,0.0,0.0,0.0,0.0,0.0,0.0,0.0,0.0,0.0,0.0,0.0,0.0,0.0,0.0,0.0,0.0,0.0,0.0,0.0,0.0,0.0,0.0,0.0,0.0,0.0,0.0,0.0,0.0,0.0,0.0,0.0,0.0,0.0,0.0,0.0,0.0,0.0,0.0,0.0,0.0,0.0,0.0,0.0,0.0,0.0,0.0,0.0,0.0,0.0,0.0,0.0,0.0,0.0,0.0,0.0,0.0,0.0,0.0,0.0,0.0,0.0,0.0,0.0,0.0,0.0,0.0,0.0,0.0,0.0,0.0,0.0,0.0,0.0,0.0,0.0,0.0,0.0,0.0,0.0,0.0,0.0,0.0,0.0,0.0,0.0,0.0,0.0,0.0,0.0,0.0,0.0,0.0,0.0,0.0,0.0,0.0,0.0,0.0,0.0,0.0,0.0,0.0,0.0,0.0,0.0,0.0,0.0,0.0,0.0,0.0,0.0,0.0,0.0,0.0,0.0,0.0,0.0,0.0,0.0,0.0,0.0,0.0,0.0,0.0,0.0,0.0,0.0,0.0,0.0,0.0,0.0,0.0,0.0,0.0,0.0,0.0,0.0,0.0,0.0,0.0,0.0,0.0,0.0,0.0,0.0,0.0,0.0,0.0,0.0,0.0,0.0,0.0,0.0,0.0,0.0,0.0,0.0,0.0,0.0,0.0,0.0,0.0,0.0,0.0,0.0,0.0,0.0,0.0,0.0,0.0,0.0,0.0,0.0,0.0,0.0,0.0,0.0,0.0,0.0,0.0,0.0,0.0,0.0,0.0,0.0,0.0,0.0,0.0,0.0,0.0,0.0,0.0,0.0,0.0,0.0,0.0,0.0,0.0,0.0,0.0,0.0,0.0,0.0,0.0,0.0,0.0,0.0,0.0,0.0,0.0,0.0,0.0,0.0,0.0,0.0,0.0,0.0,0.0,0.0,0.0,0.0,0.0,0.0,0.0,0.0,0.0,0.0,0.0,0.0,0.0,0.0,0.0,0.0,0.0,0.0,0.0,0.0,0.0,0.0,0.0,0.0,0.0,0.0,0.0,0.0,0.0,0.0,0.0,0.0,0.0,0.0,0.0,0.0,0.0,0.0,0.0,0.0,0.0,0.0,0.0,0.0,0.0,0.0,0.0,0.0,0.0,0.0,0.0,0.0,0.0,0.0,0.0,0.0,0.0,0.0,0.0,0.0,0.0,0.0,0.0,0.0,0.0,0.0,0.0,0.0,0.0,0.0,0.0,0.0,0.0,0.0,0.0,0.0,0.0,0.0,0.0,0.0,0.0,0.0,0.0,0.0,0.0,0.0,0.0,0.0,0.0,0.0,0.0,0.0,0.0,0.0,0.0,0.0,0.0,0.0,0.0,0.0,0.0,0.0,0.0,0.0,0.0,0.0,0.0,0.0,0.0,0.0,0.0,0.0,0.0,0.0,0.0,0.0,0.0,0.0,0.0,0.0,0.0,0.0,0.0,0.0,0.0,0.0,0.0,0.0,0.0,0.0,0.0,0.0,0.0,0.0,0.0,0.0,0.0,0.0,0.0,0.0,0.0,0.0,0.0,0.0,0.0,0.0,0.0,0.0,0.0,0.0,0.0,0.0,0.0,0.0,0.0,0.0,0.0,0.0,0.0,0.0,0.0,0.0,0.0,0.0,0.0,0.0,0.0,0.0,0.0,0.0,0.0,0.0,0.0,0.0,0.0,0.0,0.0,0.0,0.0,0.0,0.0,0.0,0.0,0.0,0.0,0.0,0.0,0.0,0.0,0.0,0.0,0.0,0.0,0.0,0.0,0.0,0.0,0.0,0.0,0.0,0.0,0.0,0.0,0.0,0.0,0.0,0.0,0.0,0.0,0.0,0.0,0.0,0.0,0.0,0.0,0.0,0.0,0.0,0.0,0.0,0.0,0.0,0.0,0.0,0.0,0.0,0.0,0.0,0.0,0.0,0.0,0.0,0.0,0.0,0.0,0.0,0.0,0.0,0.0,0.0,0.0,0.0,0.0,0.0,0.0,0.0,0.0,0.0,0.0,0.0,0.0,0.0,0.0,0.0,0.0,0.0,0.0,0.0,0.0,0.0,0.0,0.0,0.0,0.0,0.0,0.0,0.0,0.0,0.0,0.0,0.0,0.0,0.0,0.0,0.0,0.0,0.0,0.0,0.0,0.0,0.0,0.0,0.0,0.0,0.0,0.0,0.0,0.0,0.0,0.0,0.0,0.0,0.0,0.0,0.0,0.0,0.0,0.0,0.0,0.0,0.0,0.0,0.0,0.0,0.0,0.0,0.0,0.0,0.0,0.0,0.0,0.0,0.0,0.0,0.0,0.0,0.0,0.0,0.0,0.0,0.0,0.0,0.0,0.0,0.0,0.0,0.0,0.0,0.0,0.0,0.0,0.0,0.0,0.0,0.0,0.0,0.0,0.0,0.0,0.0,0.0,0.0,0.0,0.0,0.0,0.0,0.0,0.0,0.0,0.0,0.0,0.0,0.0,0.0,0.0,0.0,0.0,0.0,0.0,0.0,0.0,0.0,0.0,0.0,0.0,0.0,0.0,0.0,0.0,0.0,0.0,0.0,0.0,0.0,0.0,0.0,0.0,0.0,0.0,0.0,0.0,0.0,0.0,0.0,0.0,0.0,0.0,0.0,0.0,0.0,0.0,0.0,0.0,0.0,0.0,0.0,0.0,0.0,0.0,0.0,0.0,0.0,0.0,0.0,0.0,0.0,0.0,0.0,0.0,0.0,0.0,0.0,0.0,0.0,0.0,0.0,0.0,0.0,0.0,0.0,0.0,0.0,0.0,0.0,0.0,0.0,0.0,0.0,0.0,0.0,0.0,0.0,0.0,0.0,0.0,0.0,0.0,0.0,0.0,0.0,0.0,0.0,0.0,0.0,0.0,0.0,0.0,0.0,0.0,0.0,0.0,0.0,0.0,0.0,0.0,0.0,0.0,0.0,0.0,0.0,0.0,0.0,0.0,0.0,0.0,0.0,0.0,0.0,0.0,0.0,0.0,0.0,0.0,0.0,0.0,0.0,0.0,0.0,0.0,0.0,0.0,0.0,0.0,0.0,0.0,0.0,0.0,0.0,0.0,0.0,0.0,0.0,0.0,0.0,0.0,0.0,0.0,0.0,0.0,0.0,0.0,0.0,0.0,0.0,0.0,0.0,0.0,0.0,0.0,0.0,0.0,0.0,0.0,0.0,0.0,0.0,-2.9003,0.0,0.0,0.0,0.0,0.0,0.0,0.0,0.0,0.0,0.0,0.0,0.0,0.0,0.0,0.0,0.0,0.0,0.0,0.0,0.0,0.0,0.0,0.0,0.0,0.0,0.0,0.0,0.0,0.0,0.0,0.0,0.0,0.0,0.0,0.0,0.0,0.0,0.0,0.0,0.0,0.0,0.0,0.0,0.0,0.0,0.0,0.0,0.0,0.0,0.0,0.0,0.0,0.0,0.0,0.0,0.0,0.0,0.0,0.0,0.0,0.0,0.0,0.0,0.0,0.0,0.0,0.0,0.0,0.0,0.0,0.0,0.0,0.0,0.0,0.0,0.0,0.0,0.0,0.0,0.0,0.0,0.0,0.0,0.0,0.0,0.0,0.0,0.0,0.0,0.0,0.0,0.0,0.0,0.0,0.0,0.0,0.0,0.0,0.0,0.0,0.0,0.0,0.0,0.0,0.0,0.0,0.0,0.0,0.0,0.0,-3.0006,-3.0385,-3.0,-2.9825,-2.9847,0.0,0.0,0.0,0.0,0.0,0.0,0.0,0.0,0.0,0.0,0.0,0.0,0.0,0.0,0.0,0.0,0.0,0.0,0.0,0.0,0.0,0.0,0.0,0.0,0.0,0.0,0.0,0.0,0.0,0.0,0.0,0.0,0.0,0.0,0.0,0.0,0.0,0.0,0.0,0.0,0.0,0.0,0.0,0.0,0.0,0.0,0.0,0.0,0.0,0.0,0.0,0.0,0.0,0.0,0.0,0.0,0.0,0.0,0.0,0.0,0.0,0.0,0.0,0.0,0.0,0.0,0.0,0.0,0.0,0.0,0.0,0.0,0.0,0.0,0.0,0.0,0.0,0.0,0.0,0.0,0.0,0.0,0.0,0.0,0.0,0.0,0.0,0.0,0.0,0.0,0.0,0.0,0.0,0.0,0.0,0.0,0.0,0.0,0.0,0.0,0.0,0.0,0.0,0.0,0.0,0.0,0.0,0.0,0.0,0.0,0.0,0.0,-3.0686,-3.0692,-3.0698,0.0,0.0,0.0,0.0,0.0,0.0,0.0,0.0,0.0,0.0,0.0,0.0,0.0,0.0,0.0,0.0,0.0,0.0,0.0,0.0,0.0,0.0,0.0,0.0,0.0,0.0,0.0,0.0,0.0,0.0,0.0,0.0,0.0,0.0,0.0,0.0,0.0,0.0,0.0,0.0,0.0,0.0,0.0,0.0,0.0,0.0,0.0,0.0,0.0,0.0,0.0,0.0,0.0,0.0,0.0,0.0,0.0,0.0,0.0,0.0,0.0,0.0,0.0,0.0,0.0,0.0,0.0,0.0,0.0,0.0,0.0,0.0,0.0,0.0,0.0,0.0,0.0,0.0,0.0,0.0,0.0,0.0,0.0,0.0,0.0,0.0,0.0,0.0,0.0,0.0,0.0,0.0,0.0,0.0,0.0,0.0,0.0,0.0,0.0,0.0,0.0,0.0,0.0,0.0,0.0,0.0,0.0,0.0,0.0,0.0,-3.0739,-3.1463,-3.1552,0.0,-3.1551,0.0,0.0,0.0,0.0,0.0,0.0,0.0,0.0,0.0,0.0,0.0,0.0,0.0,0.0,0.0,0.0,0.0,0.0,0.0,0.0,0.0,0.0,0.0,0.0,0.0,0.0,0.0,0.0,0.0,0.0,0.0,0.0,0.0,0.0,0.0,0.0,0.0,0.0,0.0,0.0,0.0,0.0,0.0,0.0,0.0,0.0,0.0,0.0,0.0,0.0,0.0,0.0,0.0,0.0,0.0,0.0,0.0,0.0,0.0,0.0,0.0,0.0,0.0,0.0,0.0,0.0,0.0,0.0,0.0,0.0,0.0,0.0,0.0,0.0,0.0,0.0,0.0,0.0,0.0,0.0,0.0,0.0,0.0,0.0,0.0,0.0,0.0,0.0,0.0,0.0,0.0,0.0,0.0,0.0,0.0,0.0,0.0,0.0,0.0,0.0,0.0,0.0,0.0,0.0,0.0,0.0,0.0,0.0,0.0,0.0,-3.0739,-3.1519,-3.1578,-3.138,0.0,0.0,0.0,0.0,0.0,0.0,0.0,0.0,0.0,0.0,0.0,0.0,0.0,0.0,0.0,0.0,0.0,0.0,0.0,0.0,0.0,0.0,0.0,0.0,0.0,0.0,0.0,0.0,0.0,0.0,0.0,0.0,0.0,0.0,0.0,0.0,0.0,0.0,0.0,0.0,0.0,0.0,0.0,0.0,0.0,0.0,0.0,0.0,0.0,0.0,0.0,0.0,0.0,0.0,0.0,0.0,0.0,0.0,0.0,0.0,0.0,0.0,0.0,0.0,0.0,0.0,0.0,0.0,0.0,0.0,0.0,0.0,0.0,0.0,0.0,0.0,0.0,0.0,0.0,0.0,0.0,0.0,0.0,0.0,0.0,0.0,0.0,0.0,0.0,0.0,0.0,0.0,0.0,0.0,0.0,0.0,0.0,0.0,0.0,0.0,0.0,0.0,0.0,0.0,0.0,0.0,0.0,0.0,0.0,0.0,-3.0852,-3.106,-3.1774,-3.1371,-3.1027,-3.0763,0.0,0.0,0.0,0.0,0.0,0.0,0.0,0.0,0.0,0.0,0.0,0.0,0.0,0.0,0.0,0.0,0.0,0.0,0.0,0.0,0.0,0.0,0.0,0.0,0.0,0.0,0.0,0.0,0.0,0.0,0.0,0.0,0.0,0.0,0.0,0.0,0.0,0.0,0.0,0.0,0.0,0.0,0.0,0.0,0.0,0.0,0.0,0.0,0.0,0.0,0.0,0.0,0.0,0.0,0.0,0.0,0.0,0.0,0.0,0.0,0.0,0.0,0.0,0.0,0.0,0.0,0.0,0.0,0.0,0.0,0.0,0.0,0.0,0.0,0.0,0.0,0.0,0.0,0.0,0.0,0.0,0.0,0.0,0.0,0.0,0.0,0.0,0.0,0.0,0.0,0.0,0.0,0.0,0.0,0.0,0.0,0.0,0.0,0.0,0.0,0.0,0.0,0.0,0.0,0.0,0.0,0.0,0.0,-3.2666,-3.1898,-3.1858,-3.2624,-3.1113,-3.0719,0.0,0.0,0.0,0.0,0.0,0.0,0.0,0.0,0.0,0.0,0.0,0.0,0.0,0.0,0.0,0.0,0.0,0.0,0.0,0.0,0.0,0.0,0.0,0.0,0.0,0.0,0.0,0.0,0.0,0.0,0.0,0.0,0.0,0.0,0.0,0.0,0.0,0.0,0.0,0.0,0.0,0.0,0.0,0.0,0.0,0.0,0.0,0.0,0.0,0.0,0.0,0.0,0.0,0.0,0.0,0.0,0.0,0.0,0.0,0.0,0.0,0.0,0.0,0.0,0.0,0.0,0.0,0.0,0.0,0.0,0.0,0.0,0.0,0.0,0.0,0.0,0.0,0.0,0.0,0.0,0.0,0.0,0.0,0.0,0.0,0.0,0.0,0.0,0.0,0.0,0.0,0.0,0.0,0.0,0.0,0.0,0.0,0.0,0.0,0.0,0.0,0.0,0.0,0.0,0.0,0.0,0.0,0.0,0.0,-3.1269,-3.1391,-3.1646,-3.2033,-3.1357,-3.1211,0.0,0.0,0.0,0.0,0.0,0.0,0.0,0.0,0.0,0.0,0.0,0.0,0.0,0.0,0.0,0.0,0.0,0.0,0.0,0.0,0.0,0.0,0.0,0.0,0.0,0.0,0.0,0.0,0.0,0.0,0.0,0.0,0.0,0.0,0.0,0.0,0.0,0.0,0.0,0.0,0.0,0.0,0.0,0.0,0.0,0.0,0.0,0.0,0.0,0.0,0.0,0.0,0.0,0.0,0.0,0.0,0.0,0.0,0.0,0.0,0.0,0.0,0.0,0.0,0.0,0.0,0.0,0.0,0.0,0.0,0.0,0.0,0.0,0.0,0.0,0.0,0.0,0.0,0.0,0.0,0.0,0.0,0.0,0.0,0.0,0.0,0.0,0.0,0.0,0.0,0.0,0.0,0.0,0.0,0.0,0.0,0.0,0.0,0.0,0.0,0.0,0.0,0.0,0.0,0.0,0.0,0.0,0.0,0.0,-3.1194,0.0,-3.2185,-3.2006,-3.1611,-3.135,0.0,0.0,0.0,0.0,0.0,0.0,0.0,0.0,0.0,0.0,0.0,0.0,0.0,0.0,0.0,0.0,0.0,0.0,0.0,0.0,0.0,0.0,0.0,0.0,0.0,0.0,0.0,0.0,0.0,0.0,0.0,0.0,0.0,0.0,0.0,0.0,0.0,0.0,0.0,0.0,0.0,0.0,0.0,0.0,0.0,0.0,0.0,0.0,0.0,0.0,0.0,0.0,0.0,0.0,0.0,0.0,0.0,0.0,0.0,0.0,0.0,0.0,0.0,0.0,0.0,0.0,0.0,0.0,0.0,0.0,0.0,0.0,0.0,0.0,0.0,0.0,0.0,0.0,0.0,0.0,0.0,0.0,0.0,0.0,0.0,0.0,0.0,0.0,0.0,0.0,0.0,0.0,0.0,0.0,0.0,0.0,0.0,0.0,0.0,0.0,0.0,0.0,0.0,0.0,0.0,0.0,0.0,0.0,-3.12,-3.2701,-3.3509,-3.3479,-3.2753,-3.1866,-3.1092,0.0,0.0,0.0,0.0,0.0,0.0,0.0,0.0,0.0,0.0,0.0,0.0,0.0,0.0,0.0,0.0,0.0,0.0,0.0,0.0,0.0,0.0,0.0,0.0,0.0,0.0,0.0,0.0,0.0,0.0,0.0,0.0,0.0,0.0,0.0,0.0,0.0,0.0,0.0,0.0,0.0,0.0,0.0,0.0,0.0,0.0,0.0,0.0,0.0,0.0,0.0,0.0,0.0,0.0,0.0,0.0,0.0,0.0,0.0,0.0,0.0,0.0,0.0,0.0,0.0,0.0,0.0,0.0,0.0,0.0,0.0,0.0,0.0,0.0,0.0,0.0,0.0,0.0,0.0,0.0,0.0,0.0,0.0,0.0,0.0,0.0,0.0,0.0,0.0,0.0,0.0,0.0,0.0,0.0,0.0,0.0,0.0,0.0,0.0,0.0,0.0,0.0,0.0,0.0,0.0,0.0,0.0,0.0,0.0,-3.1928,-3.26,-3.3438,-3.4334,-3.237,-3.1752,0.0,0.0,0.0,0.0,0.0,0.0,0.0,0.0,0.0,0.0,0.0,0.0,0.0,0.0,0.0,0.0,0.0,0.0,0.0,0.0,0.0,0.0,0.0,0.0,0.0,0.0,0.0,0.0,0.0,0.0,0.0,0.0,0.0,0.0,0.0,0.0,0.0,0.0,0.0,0.0,0.0,0.0,0.0,0.0,0.0,0.0,0.0,0.0,0.0,0.0,0.0,0.0,0.0,0.0,0.0,0.0,0.0,0.0,0.0,0.0,0.0,0.0,0.0,0.0,0.0,0.0,0.0,0.0,0.0,0.0,0.0,0.0,0.0,0.0,0.0,0.0,0.0,0.0,0.0,0.0,0.0,0.0,0.0,0.0,0.0,0.0,0.0,0.0,0.0,0.0,0.0,0.0,0.0,0.0,0.0,0.0,0.0,0.0,0.0,0.0,0.0,0.0,0.0,0.0,0.0,0.0,0.0,0.0,0.0,-3.3429,-3.383,-3.4394,-3.5174,-3.3295,-3.2508,-3.2958,0.0,0.0,0.0,0.0,0.0,0.0,0.0,0.0,0.0,0.0,0.0,0.0,0.0,0.0,0.0,0.0,0.0,0.0,0.0,0.0,0.0,0.0,0.0,0.0,0.0,0.0,0.0,0.0,0.0,0.0,0.0,0.0,0.0,0.0,0.0,0.0,0.0,0.0,0.0,0.0,0.0,0.0,0.0,0.0,0.0,0.0,0.0,0.0,0.0,0.0,0.0,0.0,0.0,0.0,0.0,0.0,0.0,0.0,0.0,0.0,0.0,0.0,0.0,0.0,0.0,0.0,0.0,0.0,0.0,0.0,0.0,0.0,0.0,0.0,0.0,0.0,0.0,0.0,0.0,0.0,0.0,0.0,0.0,0.0,0.0,0.0,0.0,0.0,0.0,0.0,0.0,0.0,0.0,0.0,0.0,0.0,0.0,0.0,0.0,0.0,0.0,0.0,0.0,0.0,0.0,0.0,0.0,0.0,-3.6635,-3.678,-3.6404,-3.5551,-3.4695,-3.3401,0.0,0.0,0.0,0.0,0.0,0.0,0.0,0.0,0.0,0.0,0.0,0.0,0.0,0.0,0.0,0.0,0.0,0.0,0.0,0.0,0.0,0.0,0.0,0.0,0.0,0.0,0.0,0.0,0.0,0.0,0.0,0.0,0.0,0.0,0.0,0.0,0.0,0.0,0.0,0.0,0.0,0.0,0.0,0.0,0.0,0.0,0.0,0.0,0.0,0.0,0.0,0.0,0.0,0.0,0.0,0.0,0.0,0.0,0.0,0.0,0.0,0.0,0.0,0.0,0.0,0.0,0.0,0.0,0.0,0.0,0.0,0.0,0.0,0.0,0.0,0.0,0.0,0.0,0.0,0.0,0.0,0.0,0.0,0.0,0.0,0.0,0.0,0.0,0.0,0.0,0.0,0.0,0.0,0.0,0.0,0.0,0.0,0.0,0.0,0.0,0.0,0.0,0.0,0.0,0.0,0.0,0.0,0.0,0.0,-3.7555,-3.8831,-3.9298,-3.8915,-3.6905,-3.5315,0.0,0.0,0.0,0.0,0.0,0.0,0.0,0.0,0.0,0.0,0.0,0.0,0.0,0.0,0.0,0.0,0.0,0.0,0.0,0.0,0.0,0.0,0.0,0.0,0.0,0.0,0.0,0.0,0.0,0.0,0.0,0.0,0.0,0.0,0.0,0.0,0.0,0.0,0.0,0.0,0.0,0.0,0.0,0.0,0.0,0.0,0.0,0.0,0.0,0.0,0.0,0.0,0.0,0.0,0.0,0.0,0.0,0.0,0.0,0.0,0.0,0.0,0.0,0.0,0.0,0.0,0.0,0.0,0.0,0.0,0.0,0.0,0.0,0.0,0.0,0.0,0.0,0.0,0.0,0.0,0.0,0.0,0.0,0.0,0.0,0.0,0.0,0.0,0.0,0.0,0.0,0.0,0.0,0.0,0.0,0.0,0.0,0.0,0.0,0.0,0.0,0.0,0.0,0.0,0.0,0.0,0.0,0.0,-3.6122,-3.9008,-4.0739,-4.1544,-4.148,-3.8988,-3.688,0.0,0.0,0.0,0.0,0.0,0.0,0.0,0.0,0.0,0.0,0.0,0.0,0.0,0.0,0.0,0.0,0.0,0.0,0.0,0.0,0.0,0.0,0.0,0.0,0.0,0.0,0.0,0.0,0.0,0.0,0.0,0.0,0.0,0.0,0.0,0.0,0.0,0.0,0.0,0.0,0.0,0.0,0.0,0.0,0.0,0.0,0.0,0.0,0.0,0.0,0.0,0.0,0.0,0.0,0.0,0.0,0.0,0.0,0.0,0.0,0.0,0.0,0.0,0.0,0.0,0.0,0.0,0.0,0.0,0.0,0.0,0.0,0.0,0.0,0.0,0.0,0.0,0.0,0.0,0.0,0.0,0.0,0.0,0.0,0.0,0.0,0.0,0.0,0.0,0.0,0.0,0.0,0.0,0.0,0.0,0.0,0.0,0.0,0.0,0.0,0.0,0.0,0.0,0.0,0.0,0.0,0.0,0.0,-3.7123,-4.04,-4.22,-4.3085,-4.3008,-4.07,-3.817,0.0,0.0,0.0,0.0,0.0,0.0,0.0,0.0,0.0,0.0,0.0,0.0,0.0,0.0,0.0,0.0,0.0,0.0,0.0,0.0,0.0,0.0,0.0,0.0,0.0,0.0,0.0,0.0,0.0,0.0,0.0,0.0,0.0,0.0,0.0,0.0,0.0,0.0,0.0,0.0,0.0,0.0,0.0,0.0,0.0,0.0,0.0,0.0,0.0,0.0,0.0,0.0,0.0,0.0,0.0,0.0,0.0,0.0,0.0,0.0,0.0,0.0,0.0,0.0,0.0,0.0,0.0,0.0,0.0,0.0,0.0,0.0,0.0,0.0,0.0,0.0,0.0,0.0,0.0,0.0,0.0,0.0,0.0,0.0,0.0,0.0,0.0,0.0,0.0,0.0,0.0,0.0,0.0,0.0,0.0,0.0,0.0,0.0,0.0,0.0,0.0,0.0,0.0,0.0,0.0,0.0,0.0,0.0,-3.7123,-4.0439,-4.22,-4.3085,-4.3085,-4.1239,-3.9038,0.0,0.0,0.0,0.0,0.0,0.0,0.0,0.0,0.0,0.0,0.0,0.0,0.0,0.0,0.0,0.0,0.0,0.0,0.0,0.0,0.0,0.0,0.0,0.0,0.0,0.0,0.0,0.0,0.0,0.0,0.0,0.0,0.0,0.0,0.0,0.0,0.0,0.0,0.0,0.0,0.0,0.0,0.0,0.0,0.0,0.0,0.0,0.0,-2.8845,0.0,0.0,0.0,0.0,0.0,0.0,0.0,0.0,0.0,0.0,0.0,0.0,0.0,0.0,0.0,0.0,0.0,0.0,0.0,0.0,0.0,0.0,0.0,0.0,0.0,0.0,0.0,0.0,0.0,0.0,0.0,0.0,0.0,0.0,0.0,0.0,0.0,0.0,0.0,0.0,0.0,0.0,0.0,0.0,0.0,0.0,0.0,0.0,0.0,0.0,0.0,0.0,0.0,0.0,0.0,0.0,0.0,0.0,0.0,-3.75,-4.0439,-4.22,-4.2893,-4.247,-4.12,-3.9515,0.0,0.0,0.0,0.0,0.0,0.0,0.0,0.0,0.0,0.0,0.0,0.0,0.0,0.0,0.0,0.0,0.0,0.0,0.0,0.0,0.0,0.0,0.0,0.0,0.0,0.0,0.0,0.0,0.0,0.0,0.0,0.0,0.0,0.0,0.0,0.0,0.0,0.0,0.0,0.0,0.0,0.0,0.0,0.0,0.0,0.0,0.0,0.0,0.0,0.0,0.0,0.0,0.0,0.0,0.0,0.0,0.0,0.0,0.0,0.0,0.0,0.0,0.0,0.0,0.0,0.0,0.0,0.0,0.0,0.0,0.0,0.0,0.0,0.0,0.0,0.0,0.0,0.0,0.0,0.0,0.0,0.0,0.0,0.0,0.0,0.0,0.0,0.0,0.0,0.0,0.0,0.0,0.0,0.0,0.0,0.0,0.0,0.0,0.0,0.0,0.0,0.0,0.0,0.0,0.0,0.0,0.0,-3.5968,-3.8046,-4.0823,-4.2354,-4.2739,-4.2008,-4.1016,-3.97,-3.8046,0.0,0.0,0.0,0.0,0.0,0.0,0.0,0.0,0.0,0.0,0.0,0.0,0.0,0.0,0.0,0.0,0.0,0.0,0.0,0.0,0.0,0.0,0.0,0.0,0.0,0.0,0.0,0.0,0.0,0.0,0.0,0.0,0.0,0.0,0.0,0.0,0.0,0.0,-2.9178,-2.9496,0.0,0.0,0.0,0.0,0.0,0.0,0.0,0.0,-3.0211,0.0,0.0,0.0,0.0,0.0,0.0,0.0,0.0,0.0,0.0,0.0,0.0,0.0,0.0,0.0,0.0,0.0,0.0,0.0,0.0,0.0,0.0,0.0,0.0,0.0,0.0,0.0,0.0,0.0,0.0,0.0,0.0,0.0,0.0,0.0,0.0,0.0,0.0,0.0,0.0,0.0,0.0,0.0,0.0,0.0,0.0,0.0,0.0,0.0,0.0,0.0,0.0,0.0,0.0,0.0,0.0,-3.6238,-3.6577,-3.8615,-4.2547,-4.2931,-4.3047,-4.2854,-4.1362,-3.9708,-3.7969,0.0,0.0,0.0,0.0,0.0,0.0,0.0,0.0,0.0,0.0,0.0,0.0,0.0,0.0,0.0,0.0,0.0,0.0,0.0,0.0,0.0,0.0,0.0,0.0,0.0,0.0,0.0,0.0,0.0,0.0,0.0,0.0,0.0,0.0,0.0,0.0,0.0,0.0,0.0,-2.9572,-3.0347,0.0,0.0,0.0,0.0,0.0,0.0,0.0,0.0,-3.0617,0.0,0.0,0.0,0.0,0.0,0.0,0.0,0.0,0.0,0.0,0.0,0.0,0.0,0.0,0.0,0.0,0.0,0.0,0.0,0.0,0.0,0.0,0.0,0.0,0.0,0.0,0.0,0.0,0.0,0.0,0.0,0.0,0.0,0.0,0.0,0.0,0.0,0.0,0.0,0.0,0.0,0.0,0.0,0.0,0.0,0.0,0.0,0.0,0.0,0.0,0.0,0.0,0.0,0.0,0.0,-3.6038,-3.7392,-3.9469,-4.2316,-4.2854,-4.2893,-4.2431,-4.117,-3.97,0.0,0.0,0.0,0.0,0.0,0.0,0.0,0.0,0.0,0.0,0.0,0.0,0.0,0.0,0.0,0.0,0.0,0.0,0.0,0.0,0.0,0.0,0.0,0.0,0.0,0.0,0.0,0.0,0.0,0.0,0.0,0.0,0.0,0.0,0.0,0.0,0.0,0.0,0.0,0.0,-3.0432,-3.1039,-3.0528,0.0,0.0,0.0,0.0,0.0,0.0,-3.0923,-3.0538,0.0,0.0,0.0,0.0,0.0,0.0,0.0,0.0,0.0,0.0,0.0,0.0,0.0,0.0,0.0,0.0,0.0,0.0,0.0,0.0,0.0,0.0,0.0,0.0,0.0,0.0,0.0,0.0,0.0,0.0,0.0,0.0,0.0,0.0,0.0,0.0,0.0,0.0,0.0,0.0,0.0,0.0,0.0,0.0,0.0,0.0,0.0,0.0,0.0,0.0,0.0,0.0,0.0,0.0,0.0,-3.5769,-3.8238,-4.0431,-4.2239,-4.3008,-4.2931,-4.2077,-4.1054,-3.9708,0.0,0.0,0.0,0.0,0.0,0.0,0.0,0.0,0.0,0.0,0.0,0.0,0.0,0.0,0.0,0.0,0.0,0.0,0.0,0.0,0.0,0.0,0.0,0.0,0.0,0.0,0.0,0.0,0.0,0.0,0.0,0.0,0.0,0.0,0.0,0.0,0.0,0.0,0.0,0.0,0.0,-3.1729,-3.0821,-3.1553,0.0,0.0,0.0,0.0,-3.0962,-3.1462,0.0,0.0,0.0,0.0,0.0,0.0,0.0,0.0,0.0,0.0,0.0,0.0,0.0,0.0,0.0,0.0,0.0,0.0,0.0,0.0,0.0,0.0,0.0,0.0,0.0,0.0,0.0,0.0,0.0,0.0,0.0,0.0,0.0,0.0,0.0,0.0,0.0,0.0,0.0,0.0,0.0,0.0,0.0,0.0,0.0,0.0,0.0,0.0,0.0,0.0,0.0,0.0,0.0,0.0,0.0,0.0,-3.6577,-3.9084,-4.1554,-4.3855,-4.4085,-4.3778,-4.297,-4.1362,-3.9708,0.0,0.0,0.0,0.0,0.0,0.0,0.0,0.0,0.0,0.0,0.0,0.0,0.0,0.0,0.0,0.0,0.0,0.0,0.0,0.0,0.0,0.0,0.0,0.0,0.0,0.0,0.0,0.0,0.0,0.0,0.0,0.0,0.0,0.0,0.0,0.0,0.0,0.0,0.0,0.0,0.0,-3.2574,-3.1736,-3.2952,-3.3359,0.0,0.0,-3.4385,-3.2852,-3.5122,0.0,0.0,0.0,0.0,0.0,0.0,0.0,0.0,0.0,0.0,0.0,0.0,0.0,0.0,0.0,0.0,0.0,0.0,0.0,0.0,0.0,0.0,0.0,0.0,0.0,0.0,0.0,0.0,0.0,0.0,0.0,0.0,0.0,0.0,0.0,0.0,0.0,0.0,0.0,0.0,0.0,0.0,0.0,0.0,0.0,0.0,0.0,0.0,0.0,0.0,0.0,0.0,0.0,0.0,0.0,-3.5776,-3.7469,-3.9931,-4.2239,-4.4201,-4.3855,-4.347,-4.3124,-4.0969,-3.9246,0.0,0.0,0.0,0.0,0.0,0.0,0.0,0.0,0.0,0.0,0.0,0.0,0.0,0.0,0.0,0.0,0.0,0.0,0.0,0.0,0.0,0.0,0.0,0.0,0.0,0.0,0.0,0.0,0.0,0.0,0.0,0.0,0.0,0.0,0.0,0.0,0.0,0.0,0.0,0.0,0.0,0.0,-3.2638,-3.4263,0.0,0.0,0.0,-3.5084,-3.3814,0.0,0.0,0.0,0.0,0.0,0.0,0.0,0.0,0.0,0.0,0.0,0.0,0.0,0.0,0.0,0.0,0.0,0.0,0.0,0.0,0.0,0.0,0.0,0.0,0.0,0.0,0.0,0.0,0.0,0.0,0.0,0.0,0.0,0.0,0.0,0.0,0.0,0.0,0.0,0.0,0.0,0.0,0.0,0.0,0.0,0.0,0.0,0.0,0.0,0.0,0.0,0.0,0.0,0.0,0.0,0.0,0.0,-3.8623,-4.1123,-4.3239,-4.4855,-4.4124,-4.3508,-4.3085,-4.0823,0.0,0.0,0.0,0.0,0.0,0.0,0.0,0.0,0.0,0.0,0.0,0.0,0.0,0.0,0.0,0.0,0.0,0.0,0.0,0.0,0.0,0.0,0.0,0.0,0.0,0.0,0.0,-3.016,0.0,0.0,0.0,0.0,0.0,0.0,0.0,0.0,0.0,0.0,0.0,0.0,0.0,0.0,-3.5269,-3.3776,-3.5545,-3.6276,0.0,0.0,-3.593,-3.4436,-3.5283,-3.5321,0.0,0.0,0.0,0.0,0.0,0.0,0.0,0.0,0.0,0.0,0.0,0.0,0.0,0.0,0.0,0.0,0.0,0.0,0.0,0.0,0.0,0.0,0.0,0.0,0.0,0.0,0.0,0.0,0.0,0.0,0.0,0.0,0.0,0.0,0.0,0.0,0.0,0.0,0.0,0.0,0.0,0.0,0.0,0.0,0.0,0.0,0.0,0.0,0.0,0.0,0.0,0.0,0.0,0.0,0.0,-4.0323,-4.2816,-4.497,-4.6615,-4.5893,-4.4671,-4.3124,-4.1354,-3.9631,0.0,0.0,0.0,0.0,0.0,0.0,0.0,0.0,0.0,0.0,0.0,0.0,0.0,0.0,0.0,0.0,0.0,0.0,0.0,0.0,0.0,0.0,0.0,0.0,0.0,0.0,0.0,0.0,0.0,0.0,0.0,0.0,0.0,0.0,0.0,0.0,0.0,0.0,0.0,0.0,0.0,-3.6308,-3.5423,-3.6815,-3.7546,0.0,0.0,-3.7938,-3.4706,-3.8161,-3.9115,-3.2814,0.0,0.0,0.0,0.0,0.0,0.0,0.0,0.0,0.0,0.0,0.0,0.0,0.0,0.0,0.0,0.0,0.0,0.0,0.0,0.0,0.0,0.0,0.0,0.0,0.0,0.0,0.0,0.0,0.0,0.0,0.0,0.0,0.0,0.0,0.0,0.0,0.0,0.0,0.0,0.0,0.0,0.0,0.0,0.0,0.0,0.0,0.0,0.0,0.0,0.0,0.0,0.0,0.0,-4.0046,-4.2085,-4.5086,-4.724,-4.8317,-4.6595,-4.5287,-4.4662,-4.1978,-3.9977,0.0,0.0,0.0,0.0,0.0,0.0,0.0,0.0,0.0,0.0,0.0,0.0,0.0,0.0,0.0,0.0,0.0,0.0,0.0,0.0,0.0,0.0,0.0,0.0,0.0,0.0,0.0,0.0,-2.9775,-3.0038,-3.0385,0.0,0.0,0.0,0.0,0.0,0.0,0.0,0.0,0.0,0.0,-3.6038,-3.6231,-3.77,0.0,0.0,-3.8584,-3.9053,-3.6199,-3.7392,-3.743,-3.3814,-3.3199,0.0,0.0,0.0,0.0,0.0,0.0,0.0,0.0,0.0,0.0,0.0,0.0,0.0,0.0,0.0,0.0,0.0,0.0,0.0,0.0,0.0,0.0,0.0,0.0,0.0,0.0,0.0,0.0,0.0,0.0,0.0,0.0,0.0,0.0,0.0,0.0,0.0,0.0,0.0,0.0,0.0,0.0,0.0,0.0,0.0,0.0,0.0,0.0,0.0,0.0,0.0,0.0,-4.1623,-4.3085,-4.6663,-4.8779,-4.9356,-4.7163,-4.5855,-4.5518,-4.2555,-4.0516,0.0,0.0,0.0,0.0,0.0,0.0,0.0,0.0,0.0,0.0,0.0,0.0,0.0,0.0,0.0,0.0,0.0,0.0,0.0,0.0,0.0,0.0,0.0,0.0,0.0,0.0,0.0,0.0,-3.0038,-3.0308,-3.0038,0.0,0.0,0.0,0.0,0.0,0.0,0.0,0.0,0.0,0.0,-3.6654,-3.6692,-3.7969,-3.8469,-3.7269,-3.8354,-3.8738,-3.6969,-3.6692,-3.6038,-3.4129,0.0,0.0,0.0,0.0,0.0,0.0,0.0,0.0,0.0,0.0,0.0,0.0,0.0,0.0,0.0,0.0,0.0,0.0,0.0,0.0,0.0,0.0,0.0,0.0,0.0,0.0,0.0,-3.5538,0.0,0.0,-3.5385,0.0,0.0,0.0,0.0,0.0,0.0,0.0,0.0,0.0,0.0,0.0,0.0,0.0,0.0,0.0,0.0,0.0,0.0,0.0,0.0,0.0,0.0,-4.2239,-4.3124,-4.7278,-4.9433,-4.9394,-4.774,-4.6471,-4.5633,-4.3124,-4.1354,-4.0477,0.0,0.0,0.0,0.0,0.0,0.0,0.0,0.0,0.0,0.0,0.0,0.0,0.0,0.0,0.0,0.0,0.0,0.0,0.0,0.0,0.0,0.0,0.0,0.0,0.0,0.0,-3.0423,-3.0423,-3.0115,0.0,0.0,0.0,0.0,0.0,0.0,0.0,0.0,0.0,0.0,-3.7091,-3.8584,-3.6923,-3.7469,-3.8007,-3.7892,-3.7315,-3.6815,-3.6654,-3.6692,-3.5853,0.0,0.0,0.0,0.0,0.0,0.0,0.0,0.0,0.0,0.0,0.0,0.0,0.0,0.0,0.0,0.0,0.0,0.0,0.0,0.0,0.0,0.0,0.0,0.0,0.0,0.0,0.0,-3.9692,-3.9692,0.0,0.0,0.0,0.0,0.0,0.0,0.0,0.0,0.0,0.0,0.0,-4.3902,-4.4739,0.0,0.0,0.0,0.0,0.0,0.0,0.0,0.0,0.0,0.0,0.0,0.0,-4.4162,-4.4162,-4.9202,-5.1625,-5.1038,-4.8846,-4.7548,-4.724,-4.4778,-4.2508,-4.0554,0.0,0.0,0.0,0.0,0.0,0.0,0.0,0.0,0.0,0.0,0.0,0.0,0.0,0.0,0.0,0.0,0.0,0.0,0.0,0.0,0.0,0.0,0.0,0.0,0.0,-3.2045,0.0,0.0,0.0,0.0,0.0,0.0,0.0,0.0,0.0,0.0,0.0,-3.493,-3.5738,-3.6392,-3.6731,-3.6692,-3.743,-3.7623,0.0,0.0,0.0,0.0,0.0,0.0,0.0,0.0,0.0,0.0,0.0,0.0,0.0,0.0,-3.4468,-3.1385,-3.0846,-3.0769,-3.0462,0.0,0.0,0.0,0.0,0.0,0.0,0.0,0.0,0.0,0.0,0.0,0.0,0.0,0.0,-4.3085,0.0,-4.3192,0.0,0.0,0.0,0.0,0.0,0.0,0.0,0.0,-4.5663,-4.7971,-4.8711,-4.951,-5.0048,0.0,-4.8009,-4.4355,0.0,0.0,0.0,0.0,0.0,0.0,0.0,0.0,-4.5017,-4.4201,-5.0048,-5.2626,-5.1433,-4.9279,-4.8077,-4.8048,-4.5624,-4.3508,-4.1862,-4.0739,-3.9546,0.0,0.0,0.0,0.0,0.0,0.0,0.0,0.0,0.0,0.0,0.0,0.0,0.0,0.0,0.0,0.0,0.0,0.0,0.0,0.0,0.0,0.0,0.0,-3.2891,0.0,0.0,0.0,0.0,0.0,0.0,0.0,0.0,0.0,-3.5888,-3.5685,-3.593,-3.7007,-3.643,-3.6,-3.6269,0.0,0.0,0.0,0.0,0.0,0.0,0.0,-3.5622,-3.4776,-3.4891,-3.5161,-3.5462,-3.6615,-3.7123,-3.5731,0.0,0.0,-3.2275,-3.1462,-3.1192,-3.0923,-3.1077,-3.1346,-3.166,-3.1462,-3.1269,0.0,0.0,0.0,0.0,0.0,0.0,0.0,0.0,-4.7269,-4.5932,0.0,-4.6124,0.0,0.0,0.0,0.0,-3.99,-4.4509,0.0,0.0,-5.4126,-5.6896,-5.4587,-5.3857,-5.3895,-5.4472,-5.1279,-4.8856,-4.7086,-4.3808,0.0,0.0,0.0,0.0,0.0,0.0,-4.4825,-4.3547,-4.9856,-5.2395,-5.075,-4.9009,-4.8077,-4.7932,-4.5663,-4.4393,-4.4278,-4.2816,-4.2308,-4.297,-3.9931,0.0,0.0,0.0,0.0,0.0,0.0,0.0,0.0,0.0,0.0,0.0,0.0,0.0,0.0,0.0,0.0,0.0,0.0,0.0,0.0,-3.3006,0.0,0.0,0.0,0.0,0.0,0.0,0.0,0.0,0.0,0.0,-3.678,-3.7386,-3.7969,-3.793,0.0,0.0,0.0,0.0,-3.5538,-3.55,-3.5577,-3.5615,-3.5538,-3.6231,-3.6462,-3.5731,0.0,0.0,-3.5731,-3.6308,-3.6654,-3.5769,-3.5731,-3.5315,-3.4468,-3.3506,-3.266,-3.1968,-3.2352,-3.3122,-3.3891,-3.3237,-3.2699,-5.547,0.0,0.0,0.0,0.0,-4.8779,-5.0818,-5.3203,-5.3857,-5.301,-5.1241,-5.1356,0.0,0.0,0.0,0.0,0.0,0.0,-4.8048,-5.0279,-5.4511,-5.6703,-5.728,-5.8819,-5.9358,-5.8896,-5.6165,-5.4598,-5.3944,-5.0664,-4.5893,-3.9823,0.0,0.0,0.0,0.0,-4.5671,-4.6086,-5.0702,-5.2395,-5.075,-4.9009,-4.7548,-4.6364,-4.624,-4.5855,-4.524,-4.5355,-4.4701,-4.3162,-4.2162,0.0,0.0,0.0,0.0,0.0,0.0,0.0,0.0,0.0,0.0,0.0,0.0,0.0,0.0,0.0,0.0,0.0,0.0,0.0,-3.5538,-3.5084,-3.4769,0.0,0.0,0.0,0.0,0.0,0.0,0.0,0.0,0.0,-3.9128,-3.7993,-3.7084,0.0,0.0,-3.5769,-3.5538,-3.6,-3.6154,-3.5577,-3.65,0.0,-3.6462,-3.7084,-3.7546,-3.7315,-3.8007,-3.8277,-3.743,-3.8476,-3.9161,-3.8354,-3.77,-3.7199,-3.6892,-3.5199,-3.3859,-3.3513,-3.3199,-3.3199,-3.3898,-3.3083,-3.2237,-6.4778,-5.7612,-5.4198,-5.3042,-5.3551,-5.4898,-5.6917,-5.9242,-5.9396,-5.8357,-5.6511,-5.6665,-5.3356,-4.7557,-4.6355,0.0,0.0,0.0,-5.1702,-5.5,-5.755,-5.9435,-6.0858,-6.2358,-6.2627,-6.1704,-5.955,-5.8176,-5.7434,-5.3703,-4.9433,-4.4594,0.0,0.0,-4.0893,-4.5017,-4.7048,-4.7077,-5.1077,-5.2241,-5.0212,-4.8509,-4.6971,-4.5671,-4.6124,-4.6432,-4.6586,-4.6432,-4.6009,-4.5086,-4.3816,-4.2162,0.0,0.0,0.0,0.0,0.0,0.0,0.0,0.0,0.0,0.0,0.0,-3.3968,-3.3468,0.0,0.0,0.0,-3.5661,-3.6038,-3.6192,-3.5808,0.0,0.0,0.0,0.0,0.0,0.0,0.0,-3.7364,-3.8301,-3.93,-4.029,-3.9131,-3.8315,-3.8692,-3.743,-3.6462,-3.65,0.0,-3.6654,-3.6507,-3.7353,-3.7815,-3.7308,-3.7969,-3.8623,-3.8931,-3.94,-3.9592,-3.9169,-3.9861,-4.0323,-3.9785,-3.8815,-3.8123,-3.843,-3.6206,-3.4321,-3.4622,-3.4007,-3.3744,-3.4545,-3.3622,-3.2776,-7.2024,-6.8353,-6.0596,-5.8451,-6.0267,-6.1192,-6.2814,-6.4705,-6.4012,-6.2269,-6.005,-6.1512,-5.8176,-5.125,-4.9779,0.0,-5.2577,-5.4318,-5.678,-5.9896,-6.2269,-6.3743,-6.4397,-6.4436,-6.4012,-6.3051,-6.1396,-5.9858,-5.8242,-5.4308,-5.1779,-5.075,-4.8471,-4.6047,-4.3932,-4.7394,-4.8625,-4.7385,-5.1115,-5.1856,-4.924,-4.7625,-4.6355,-4.5402,-4.5479,-4.6201,-4.7663,-4.6394,-4.6278,-4.7586,-4.4932,-4.3201,-4.2931,0.0,0.0,0.0,0.0,0.0,0.0,0.0,0.0,0.0,0.0,0.0,0.0,0.0,0.0,0.0,-3.6769,0.0,-3.5885,-3.5808,0.0,0.0,0.0,-3.7623,-3.9246,-3.9338,-3.9629,-4.0431,0.0,0.0,-4.0692,-4.0708,-4.1008,-4.1808,-3.97,-3.8123,-3.8123,-3.743,-3.7199,-3.7969,-3.8161,-3.8161,-3.8007,-3.8546,-3.9246,-3.9861,-4.04,-4.0439,-4.0362,-4.0208,-4.0285,-4.0285,-3.8969,-3.8123,-3.9084,-3.6514,-3.4552,-3.5661,-3.493,-3.443,-3.5045,-3.4622,-3.3821,-7.417,-7.1579,-7.0131,-6.7954,-6.5546,-6.7036,-6.723,-6.6551,-6.6974,-6.5782,-6.3397,-6.3128,-6.0589,-5.6549,-5.7396,-5.7742,-5.778,-5.9511,-6.105,-6.2423,-6.3705,-6.3743,-6.2743,-6.332,-6.282,-6.1358,-5.9704,-5.9011,-5.9088,-5.6896,-5.4357,-5.1692,-5.1,-4.9769,-4.8009,-4.824,-4.9202,-5.0692,-5.1692,-5.0692,-4.7615,-4.6471,-4.521,-4.3739,-4.4278,-4.4778,-4.5201,-4.5479,-4.5479,-4.524,-4.5086,-4.4124,-4.22,-4.07,0.0,0.0,0.0,0.0,0.0,0.0,0.0,0.0,0.0,-3.5846,-3.5238,0.0,-3.65,0.0,-3.7315,-3.7892,-3.8354,-3.8392,0.0,0.0,-3.9238,-3.9746,-4.0169,-4.0761,-4.0984,-4.0546,-4.1069,-4.1715,-4.2393,-4.247,-4.2547,-4.2701,-4.0585,-3.9008,-3.8977,-3.8815,-3.8738,-3.8977,-3.9477,-3.9438,-3.8277,-3.8161,-3.8392,-3.8546,-3.9669,-4.0477,-4.0516,-3.9438,-3.8815,-3.9277,-3.7661,-3.7084,-3.8892,-3.6553,-3.5514,-3.7507,-3.6168,-3.4244,-3.4468,-3.4353,-3.3975,-7.4579,-7.2607,-7.2677,-7.146,-6.9678,-7.0953,-7.0657,-6.9321,-6.8706,-6.759,-6.6205,-6.4589,-6.2858,-6.1166,-6.1666,-6.1666,-6.132,-6.2589,-6.3435,-6.3923,-6.4782,-6.4474,-6.3243,-6.3666,-6.3012,-6.1331,-5.9665,-5.8896,-5.8858,-5.7242,-5.5434,-5.3626,-5.3241,-5.2779,-5.2087,-4.874,-4.7509,-4.8509,-4.8163,-4.7615,-4.6885,-4.5316,-4.3855,-4.2585,-4.297,-4.3201,-4.3201,-4.3286,-4.3286,-4.3201,-4.3286,-4.2701,-4.1277,-4.0054,-3.8969,0.0,0.0,0.0,0.0,0.0,0.0,0.0,0.0,0.0,0.0,0.0,-3.8007,-3.8354,-3.92,-3.9738,-3.9823,-3.9823,-3.9977,-4.0354,-4.0816,-4.1362,-4.2085,-4.2624,-4.2854,-4.2786,-4.3209,-4.3662,-4.4124,-4.4239,-4.4047,-4.3662,-4.2132,-4.0708,-3.9977,-3.9823,-3.9861,-3.9861,-4.0208,-3.9938,-3.8277,-3.8007,-3.8007,-3.8084,-3.9084,-3.9977,-3.9938,-3.8892,-3.8161,-3.8469,-3.6661,-3.5738,-3.8007,-3.6315,-3.5167,-3.7007,-3.6661,-3.5468,-3.5315,-3.5315,-3.5007,-7.4115,-7.2568,-7.2015,-7.2059,-7.2542,-7.3189,-7.2866,-7.172,-6.9398,-6.8359,-6.809,-6.5782,-6.4705,-6.4551,-6.3935,-6.3577,-6.3551,-6.4359,-6.4782,-6.482,-6.5436,-6.5282,-6.4436,-6.432,-6.3474,-6.1908,-6.0281,-5.9088,-5.8242,-5.6742,-5.5742,-5.5203,-5.4626,-5.4472,-5.4472,-4.874,-4.5663,-4.5432,-4.4316,-4.4778,-4.6817,-4.4201,-4.2354,-4.1546,-4.1385,-4.1308,-4.1269,-4.0585,-4.0508,-4.1239,-4.07,-4.0439,-4.0631,-3.9284,-3.8584,0.0,-3.7231,0.0,0.0,0.0,0.0,0.0,0.0,0.0,0.0,-3.9438,-3.9777,-4.0593,-4.1354,-4.1546,-4.09,-4.09,-4.1277,-4.2008,-4.2192,-4.2854,-4.4239,-4.447,-4.4739,-4.5518,-4.5594,-4.5594,-4.5518,-4.5594,-4.5248,-4.4201,-4.3393,-4.2239,-4.0862,-4.0439,-4.0439,-4.0477,-4.0092,-3.8969,-3.7969,-3.7469,-3.7238,-3.7584,-3.8315,-3.8977,-3.9123,-3.8277,-3.77,-3.7738,-3.6122,-3.5391,-3.77,-3.6315,-3.5391,-3.7161,-3.7276,-3.6885,-3.6462,-3.6346,-3.6007,-7.4115,-7.2723,-7.3825,-7.3597,-7.2503,-7.2521,-7.1685,-7.017,-6.8911,-6.8013,-6.7282,-6.6128,-6.5243,-6.4666,-6.5166,-6.5051,-6.4436,-6.5243,-6.5628,-6.5628,-6.5089,-6.4397,-6.3551,-6.2858,-6.2024,-6.1012,-6.0012,-5.9088,-5.828,-5.7973,-5.6049,-5.2692,-5.3164,-5.2164,-4.9586,0.0,0.0,0.0,-4.8663,-4.7077,-4.6778,-4.3008,-4.0593,-3.9777,-3.9084,0.0,-3.87,-3.8546,-3.8546,-3.8738,-3.9238,0.0,0.0,0.0,0.0,0.0,0.0,0.0,0.0,0.0,0.0,0.0,-4.0046,-3.9931,-4.0246,-4.0285,-4.0623,-4.147,-4.1692,-4.2008,-4.2547,-4.3201,-4.3624,-4.3816,-4.4432,-4.5017,-4.5325,-4.5355,-4.5441,-4.5556,-4.5594,-4.5594,-4.5594,-4.5594,-4.5017,-4.3624,-4.3201,-4.2393,-4.0746,-4.0516,-4.0516,-4.0362,-3.8469,-3.6776,-3.6885,-3.5315,-3.4737,-3.5622,-3.6654,-3.7469,-3.8046,-3.7,-3.6577,-3.7584,-3.65,-3.6045,-3.8507,-3.8046,-3.7661,-3.9438,-3.9207,-3.82,-3.6192,-3.5769,-3.5423,-7.4115,-7.2684,-7.3462,-7.3091,0.0,-7.0911,-7.0064,-6.9242,-6.8642,-6.7949,-6.7102,-6.6294,-6.5678,-6.5331,-6.5718,-6.5667,-6.5282,-6.5705,-6.5667,-6.5243,-6.4782,-6.3935,-6.2704,-6.2281,-6.1639,-6.0781,-6.0358,-5.9704,-5.8896,-5.8511,-5.6973,-5.4434,-5.4434,-5.3549,-5.1895,-5.1433,-5.1279,-5.1318,-4.8394,-4.7278,-4.7971,-4.4778,-4.2632,-4.1785,-4.0969,0.0,0.0,0.0,0.0,0.0,0.0,0.0,0.0,-4.1783,0.0,-4.3585,-4.2931,-4.2624,-4.297,-4.2624,-4.2555,-4.2978,-4.3017,-4.267,-4.1854,-4.2555,-4.3209,-4.3624,-4.3662,-4.3855,-4.4278,-4.471,-4.4932,-4.497,-4.5325,-4.5594,-4.5594,-4.5594,-4.5594,-4.5594,-4.5594,-4.5594,-4.5594,-4.5594,-4.4893,-4.3393,-4.3085,-4.247,-4.09,-4.0516,-4.0516,-4.04,-3.8046,-3.6269,-3.6423,-3.5007,-3.4122,-3.5699,-3.643,-3.7038,-3.7853,-3.6615,-3.5808,-3.6538,-3.6038,-3.6231,-3.8123,-3.8623,-3.9008,-4.0054,-3.9861,-3.9008,-3.7623,-3.77,-3.7584,-7.4115,-7.2645,-7.2761,-7.2142,-7.0943,-6.9535,-6.8922,-6.8861,0.0,0.0,0.0,-6.6278,-6.6008,-6.5996,-6.5935,-6.5897,-6.5897,-6.5897,-6.5513,-6.482,-6.4666,-6.3858,-6.2563,-6.2397,-6.1935,-6.1281,-6.1243,-6.0627,-5.9511,-5.8819,-5.7896,-5.6791,-5.6049,-5.5703,-5.5703,-5.5703,-5.3972,-5.0587,-4.7855,-4.7441,-4.9279,-4.6749,-4.5009,-4.4316,-4.3508,-4.2777,-4.2038,-4.1324,-4.0977,-4.0931,-4.0938,-4.1429,-4.2385,-4.2544,-4.312,-4.4115,-4.4201,-4.4432,-4.4932,-4.4855,-4.5009,-4.5556,-4.5594,-4.5017,-4.3624,-4.4825,-4.5594,-4.5594,-4.5594,-4.5594,-4.5594,-4.5594,-4.5594,-4.5594,-4.5594,-4.5594,-4.5594,-4.5594,-4.5594,-4.5594,-4.5594,-4.5594,-4.5594,-4.5594,-4.497,-4.3508,-4.3085,-4.2393,-4.0785,-4.04,-4.0516,-4.0323,-3.843,-3.7,-3.6892,-3.5391,-3.5045,-3.6584,-3.6538,-3.6622,-3.7238,-3.65,-3.5692,-3.5885,-3.5692,-3.6385,-3.7661,-3.8507,-3.9277,-3.9931,-3.9554,-3.9053,-3.913,-3.9554,-3.9323,-7.4154,-7.2684,-7.3419,-7.2336,-7.017,-6.9922,-6.9788,-6.9625,-6.8123,-6.6993,-6.6183,-6.6059,-6.6008,-6.5996,-6.5935,-6.5897,-6.5897,-6.5897,-6.582,-6.5667,-6.4936,-6.4474,-6.4205,-6.3474,-6.3089,-6.2962,-6.2974,-6.1743,-5.9704,-5.9396,-5.8165,-5.6165,-5.5742,-5.5703,-5.5703,-5.5703,-5.5395,-5.4741,-5.1635,-4.9788,-4.9356,-4.6163,-4.4432,-4.4278,-4.3585,-4.3047,-4.2931,-4.2816,-4.2739,-4.2739,-4.2731,-4.3431,-4.497,-4.5731,-4.6885,-4.8355,-4.8509,-4.824,-4.7586,-4.6932,-4.6278,-4.5671,-4.5594,-4.5479,-4.5287,-4.5479,-4.5594,-4.5594,-4.5633,-4.5594,-4.5594,-4.5594,-4.5594,-4.5594,-4.5594,-4.5594,-4.5594,-4.5594,-4.5594,-4.5594,-4.5594,-4.5556,-4.5518,-4.5518,-4.4863,-4.3508,-4.3008,-4.22,-4.0354,-4.0054,-4.0439,-4.0323,-3.9008,-3.8277,-3.8277,-3.6206,-3.5545,-3.743,-3.6007,-3.5315,-3.6776,-3.6115,-3.5692,-3.6346,-3.6346,-3.6815,-3.7777,-3.8084,-3.8277,-3.8507,-3.8354,-3.82,-3.8161,-3.8315,-3.8046,-7.4811,-7.3419,-7.3728,-7.2684,-7.0672,-7.0187,-6.9728,-6.9242,-6.8469,-6.7906,-6.7448,-6.6927,-6.6441,-6.6005,-6.5946,-6.596,-6.596,-6.596,-6.569,-6.5216,-6.4794,-6.432,-6.3897,-6.3549,-6.3368,-6.3368,-6.3869,-6.2764,-6.0453,-6.0227,-5.8896,-5.6511,-5.5934,-5.5703,-5.5703,-5.5703,-5.5472,-5.5011,-5.3087,-5.1856,-5.1433,-4.9048,-4.7788,-4.7749,-4.6971,-4.6509,-4.6509,-4.6047,-4.5817,-4.5817,-4.5828,-4.6367,-4.7586,-4.7991,-4.8789,-5.001,-5.0087,-4.9702,-4.8856,-4.7625,-4.6509,-4.571,-4.5594,-4.5778,-4.6278,-4.6317,-4.6124,-4.5671,-4.6009,-4.6095,-4.5671,-4.5594,-4.5594,-4.5594,-4.5594,-4.5594,-4.5594,-4.5594,-4.5594,-4.5556,-4.5171,-4.4893,-4.4893,-4.4509,-4.4047,-4.3162,-4.2739,-4.1739,-4.0169,-4.0246,-4.0323,-3.9815,-3.843,-3.8046,-3.89,-3.7238,-3.6469,-3.7777,-3.6276,-3.5584,-3.6346,-3.5738,-3.5276,-3.5846,-3.6077,-3.6385,-3.7154,-3.7315,-3.7469,-3.7892,-3.7546,-3.7353,-3.7276,-3.7,-3.6654,-7.516,-7.3342,-7.3767,-7.2877,-7.1291,-7.0595,-6.9938,-6.9357,-6.9164,-6.8938,-6.8585,-6.7525,-6.6653,-6.6063,-6.6005,-6.602,-6.602,-6.6008,-6.5611,-6.5033,-6.4934,-6.4512,-6.396,-6.3969,-6.3966,-6.4055,-6.4671,-6.3708,-6.1434,-6.0954,-5.9419,-5.6917,-5.6022,-5.5714,-5.5724,-5.5714,-5.5395,-5.4741,-5.3741,-5.3115,-5.2856,-5.1433,-5.0664,-5.0664,-5.001,-4.9711,-4.9663,-4.9048,-4.8702,-4.8702,-4.8702,-4.901,-4.9625,-4.9635,-4.9932,-5.0625,-5.0702,-5.0317,-4.9394,-4.8009,-4.6778,-4.597,-4.6056,-4.6394,-4.6808,-4.7269,-4.7009,-4.6163,-4.6278,-4.6278,-4.5748,-4.5594,-4.5594,-4.5594,-4.5594,-4.5594,-4.5594,-4.5594,-4.5594,-4.5518,-4.4816,-4.4316,-4.4162,-4.3585,-4.3047,-4.2739,-4.2047,-4.12,-4.0439,-4.0246,-3.9938,-3.9277,-3.8123,-3.793,-3.8977,-3.7777,-3.7238,-3.8046,-3.6507,-3.5853,-3.6045,-3.5315,-3.4545,-3.5084,-3.5192,-3.5538,-3.6192,-3.6192,-3.6469,-3.7007,-3.6808,-3.6392,-3.6077,-3.5692,-3.5269,-7.4502,-7.1988,-7.3303,-7.2916,-7.133,-7.1175,-7.1098,-7.0905,-7.0247,-6.9473,-6.864,-6.6962,-6.6207,-6.608,-6.6024,-6.6001,-6.6001,-6.6032,-6.597,-6.5842,-6.582,-6.5781,-6.5637,-6.5727,-6.5762,-6.572,-6.5809,-6.4497,-6.2155,-6.1175,-5.9177,-5.6239,-5.5773,-5.5735,-5.5776,-5.5735,-5.5665,-5.5549,-5.401,-5.2818,-5.2,-5.1164,-5.0702,-5.0702,-5.0635,-5.0558,-5.0519,-5.051,-5.0442,-5.0442,-5.0394,-5.0471,-5.0558,-5.0548,-5.0587,-5.0702,-5.0702,-5.0327,-4.9433,-4.8509,-4.7625,-4.6971,-4.7394,-4.7548,-4.7115,-4.8279,-4.8471,-4.7163,-4.6201,-4.5864,-4.5633,-4.5633,-4.5633,-4.571,-4.5633,-4.5594,-4.5594,-4.5594,-4.5594,-4.5594,-4.4816,-4.4316,-4.4162,-4.3508,-4.2739,-4.2008,-4.1393,-4.0623,-3.9861,-3.9669,-3.9669,-3.94,-3.9053,-3.9053,-3.9161,-3.7853,-3.7546,-3.8507,-3.6437,-3.5468,-3.5815,-3.5276,-3.4314,-3.4699,-3.4237,-3.4545,-3.5192,-3.5084,-3.4814,-3.5808,-3.5846,-3.5462,-3.4699,-3.4552,-3.4391,-7.4541,-7.2916,-7.3612,-7.2916,-7.1407,-7.1291,-7.1291,-7.1214,-7.0363,-6.9551,-6.87,-6.7469,-6.6636,-6.6102,-6.6069,-6.6058,-6.6058,-6.6001,-6.6017,-6.6005,-6.5947,-6.5935,-6.5996,-6.6005,-6.6001,-6.6058,-6.6058,-6.5026,-6.2941,-6.0622,-5.8189,-5.6097,-5.5845,-5.5797,-5.5797,-5.5766,-5.5745,-5.5665,-5.4587,-5.3549,-5.2626,-5.1356,-5.0702,-5.0702,-5.0702,-5.0702,-5.0702,-5.0702,-5.0702,-5.0702,-5.0702,-5.0702,-5.0702,-5.0702,-5.0702,-5.0702,-5.0702,-5.0327,-4.9471,-4.9048,-4.8509,-4.7654,-4.7894,-4.8163,-4.8355,-4.8548,-4.8509,-4.8355,-4.7586,-4.7086,-4.6971,-4.621,-4.5787,-4.6163,-4.5941,-4.5594,-4.5594,-4.5594,-4.5594,-4.5556,-4.4825,-4.4085,-4.3585,-4.2854,-4.2008,-4.1316,-4.1046,-4.0854,-4.0169,-4.0015,-4.0015,-3.9938,-3.9631,-3.9554,-3.9669,-3.8584,-3.8046,-3.793,-3.6584,-3.5468,-3.5545,-3.4584,-3.3699,-3.4737,-3.3776,-3.3776,-3.5269,-3.4391,-3.3776,-3.4846,-3.55,-3.5346,-3.5007,-3.4968,-3.443,-7.4154,-7.3226,-7.2955,-7.2258,-7.133,-7.1291,-7.1291,-7.1175,-7.0363,-6.9551,-6.8738,-6.7887,-6.6977,-6.62,-6.6123,-6.6123,-6.6112,-6.6058,-6.6024,-6.6024,-6.5958,-6.5946,-6.6017,-6.6013,-6.6069,-6.6112,-6.6123,-6.5002,-6.2828,-5.9929,-5.7583,-5.6155,-5.5905,-5.5885,-5.5865,-5.5807,-5.5776,-5.5658,-5.4906,-5.4203,-5.3433,-5.1895,-5.0933,-5.0712,-5.0702,-5.0702,-5.0702,-5.0702,-5.0702,-5.0702,-5.0702,-5.0702,-5.0702,-5.0702,-5.0702,-5.0702,-5.0702,-5.0442,-4.9779,-4.974,-4.9394,-4.8586,-4.8663,-4.8971,-4.924,-4.9048,-4.9086,-4.9548,-4.8971,-4.8355,-4.7971,-4.6817,-4.6317,-4.6778,-4.6124,-4.5594,-4.5594,-4.5594,-4.5594,-4.5518,-4.4825,-4.3893,-4.2931,-4.22,-4.1546,-4.0823,-4.1008,-4.1277,-4.0662,-4.0477,-4.0477,-4.0477,-3.9823,-3.9592,-3.9938,-3.8931,-3.8161,-3.7892,-3.6853,-3.5538,-3.5615,-3.4353,-3.3622,-3.4776,-3.3122,-3.3083,-3.5115,-3.4622,-3.3506,-3.4808,-3.5346,-3.5161,-3.493,-3.5077,-3.4353,-7.2955,-7.1446,-7.0518,-7.0711,-7.1291,-7.1291,-7.1291,-7.1253,-7.0402,-6.9551,-6.8738,-6.7926,-6.7036,-6.6214,-6.6175,-6.6175,-6.6175,-6.6112,-6.6091,-6.608,-6.6024,-6.6024,-6.6091,-6.6091,-6.6123,-6.6175,-6.6175,-6.4569,-6.1437,-5.9544,-5.7641,-5.6125,-5.601,-5.5962,-5.5943,-5.5885,-5.5797,-5.5699,-5.5004,-5.4472,-5.4241,-5.2741,-5.1471,-5.0856,-5.0702,-5.0702,-5.0702,-5.0702,-5.0702,-5.0702,-5.0702,-5.0702,-5.0702,-5.0702,-5.0702,-5.0702,-5.0702,-5.0664,-5.0635,-5.0548,-5.0212,-4.9586,-4.9971,-5.0212,-4.9625,-5.001,-5.0356,-5.0587,-4.9817,-4.9048,-4.824,-4.7317,-4.6778,-4.6817,-4.6124,-4.5671,-4.5594,-4.5594,-4.5594,-4.5479,-4.4855,-4.3816,-4.2239,-4.1846,-4.1431,-4.0823,-4.0593,-4.0593,-4.0554,-4.0516,-4.0516,-4.0362,-3.99,-3.9361,-3.9323,-3.8661,-3.8469,-3.843,-3.743,-3.5846,-3.5738,-3.5545,-3.5315,-3.4737,-3.343,-3.3506,-3.5231,-3.5462,-3.4423,-3.4577,-3.4661,-3.4545,-3.4891,-3.4468,-3.3898,-7.3226,-7.2026,-7.0595,-7.0518,-7.1253,-7.1291,-7.1291,-7.1253,-7.0982,-7.0054,-6.8893,-6.8468,-6.7539,-6.6185,-6.6185,-6.6185,-6.6185,-6.6123,-6.6102,-6.6091,-6.6036,-6.6036,-6.6091,-6.6102,-6.6134,-6.6175,-6.6185,-6.4744,-6.2172,-6.1283,-5.9582,-5.7214,-5.6818,-5.653,-5.6086,-5.5943,-5.5895,-5.5758,-5.5468,-5.5091,-5.4483,-5.3356,-5.2308,-5.151,-5.0971,-5.0702,-5.0702,-5.0702,-5.0702,-5.0702,-5.0702,-5.0702,-5.0702,-5.0702,-5.0702,-5.0702,-5.0702,-5.0702,-5.0702,-5.0702,-5.0596,-5.0327,-5.0519,-5.0596,-5.0366,-5.0519,-5.0702,-5.0635,-5.0442,-4.9856,-4.8894,-4.774,-4.6885,-4.6817,-4.6124,-4.5594,-4.5594,-4.5594,-4.5594,-4.5479,-4.4855,-4.4008,-4.3355,-4.2462,-4.17,-4.1354,-4.0854,-4.0554,-4.0516,-4.0516,-4.0516,-4.0477,-4.0285,-4.0092,-4.0092,-3.8854,-3.82,-3.8546,-3.8084,-3.7077,-3.6622,-3.5898,-3.5514,-3.5161,-3.3891,-3.3244,-3.4622,-3.4853,-3.416,-3.4692,-3.4699,-3.4507,-3.493,-3.4814,-3.4353,-7.3226,-7.2065,-7.0905,-7.075,-7.1253,-7.1291,-7.1291,-7.1291,-7.1291,-7.0479,-6.9357,-6.9164,-6.8352,-6.7191,-6.7036,-6.6843,-6.6611,-6.6299,-6.6123,-6.6123,-6.608,-6.6091,-6.6123,-6.6123,-6.6155,-6.6147,-6.5915,-6.4715,-6.3013,-6.2549,-6.0877,-5.8294,-5.7907,-5.7309,-5.6539,-5.6173,-5.5933,-5.5865,-5.5835,-5.5458,-5.4829,-5.378,-5.2923,-5.2269,-5.1279,-5.0702,-5.0702,-5.0702,-5.0702,-5.0702,-5.0702,-5.0702,-5.0702,-5.0702,-5.0702,-5.0702,-5.0702,-5.0702,-5.0702,-5.0702,-5.0702,-5.0702,-5.0702,-5.0702,-5.0702,-5.0702,-5.0702,-5.0702,-5.0673,-5.0327,-4.9394,-4.8125,-4.7192,-4.6894,-4.6124,-4.5594,-4.5594,-4.5594,-4.5594,-4.5556,-4.5171,-4.4662,-4.4239,-4.3278,-4.247,-4.1923,-4.1239,-4.09,-4.0593,-4.0523,-4.0523,-4.0485,-4.0492,-4.0454,-4.0408,-3.9585,-3.9084,-3.9354,-3.9053,-3.8123,-3.7284,-3.6476,-3.579,-3.536,-3.4629,-3.3712,-3.3436,-3.3814,-3.4353,-3.4962,-3.4776,-3.4468,-3.493,-3.5423,-3.4814,-7.2877,-7.1446,-7.1291,-7.1214,-7.1291,-7.1291,-7.1291,-7.1291,-7.1291,-7.075,-6.9899,-6.9938,-6.9357,-6.8777,-6.8468,-6.8236,-6.7346,-6.6639,-6.6253,-6.6214,-6.6175,-6.6175,-6.6175,-6.6175,-6.6175,-6.6147,-6.545,-6.4638,-6.371,-6.2975,-6.1698,-6.0035,-5.899,-5.8101,-5.728,-5.6423,-5.5952,-5.5905,-5.5855,-5.5738,-5.5483,-5.4126,-5.3241,-5.2972,-5.1625,-5.0779,-5.0712,-5.0702,-5.0702,-5.0702,-5.0702,-5.0702,-5.0673,-5.0673,-5.0673,-5.0721,-5.0712,-5.0712,-5.0673,-5.0673,-5.0673,-5.0702,-5.0702,-5.0702,-5.0702,-5.0702,-5.0702,-5.0702,-5.0664,-5.0366,-4.9471,-4.8625,-4.7778,-4.6971,-4.6124,-4.5633,-4.5594,-4.5594,-4.5594,-4.5594,-4.5479,-4.521,-4.4594,-4.4141,-4.3487,-4.2324,-4.1785,-4.137,-4.0685,-4.0554,-4.0554,-4.0531,-4.0546,-4.0561,-4.0539,-4.0477,-4.0439,-4.0323,-3.9746,-3.9015,-3.8183,-3.7343,-3.651,-3.5932,-3.4558,-3.364,-3.3359,-3.3737,-3.4353,-3.4814,-3.4507,-3.4737,-3.5315,-3.5731,-3.5199,-7.2336,-7.133,-7.1291,-7.1291,-7.1291,-7.1291,-7.1291,-7.1291,-7.1291,-7.0789,-7.0092,-7.0026,-6.9551,-6.8932,-6.8777,-6.8352,-6.7501,-6.7191,-6.6766,-6.6263,-6.6185,-6.6185,-6.6185,-6.6185,-6.6185,-6.6147,-6.5953,-6.5373,-6.4677,-6.429,-6.3052,-6.1002,-5.9919,-5.872,-5.7396,-5.6459,-5.5998,-5.5952,-5.5905,-5.5817,-5.5689,-5.4685,-5.3818,-5.3164,-5.2087,-5.1279,-5.075,-5.0702,-5.0702,-5.0702,-5.0702,-5.0683,-5.0712,-5.0682,-5.073,-5.0767,-5.0776,-5.0758,-5.0721,-5.0682,-5.0702,-5.0683,-5.0712,-5.0702,-5.0702,-5.0712,-5.0712,-5.0712,-5.0673,-5.0327,-4.9548,-4.9163,-4.8394,-4.7038,-4.6124,-4.5633,-4.5594,-4.5594,-4.5594,-4.5594,-4.562,-4.5522,-4.5222,-4.4884,-4.4044,-4.2949,-4.2302,-4.1662,-4.0877,-4.0745,-4.0598,-4.0561,-4.0583,-4.0629,-4.0554,-4.0539,-4.0531,-4.0523,-4.0138,-3.9592,-3.8837,-3.8033,-3.7237,-3.6126,-3.4711,-3.3993,-3.368,-3.4007,-3.4776,-3.5199,-3.5391,-3.5731,-3.6115,-3.5885,-3.5308,-7.2104,-7.133,-7.1291,-7.1098,-7.0866,-7.1137,-7.1291,-7.1291,-7.1291,-7.0982,-7.0556,-7.0479,-7.0208,-6.9783,-6.9744,-6.9048,-6.8081,-6.7965,-6.7346,-6.634,-6.6185,-6.6185,-6.6185,-6.6185,-6.6185,-6.6185,-6.6185,-6.5953,-6.5489,-6.5373,-6.4445,-6.2665,-6.1389,-5.9996,-5.8294,-5.7086,-5.6372,-5.6048,-5.5924,-5.5885,-5.5653,-5.4975,-5.4098,-5.3261,-5.2356,-5.151,-5.0779,-5.0702,-5.0702,-5.0673,-5.0683,-5.0712,-5.0701,-5.072,-5.0747,-5.0812,-5.0821,-5.0764,-5.0738,-5.0729,-5.0758,-5.073,-5.073,-5.0712,-5.0702,-5.0693,-5.0693,-5.0673,-5.0673,-5.0481,-4.9981,-4.9548,-4.8779,-4.75,-4.6624,-4.597,-4.571,-4.5612,-4.562,-4.5629,-4.5693,-4.5679,-4.5541,-4.5317,-4.46,-4.3767,-4.3196,-4.2324,-4.1608,-4.1437,-4.1236,-4.1075,-4.1051,-4.0921,-4.0615,-4.0561,-4.0592,-4.0539,-4.0454,-3.9908,-3.9253,-3.8452,-3.7649,-3.6311,-3.4967,-3.4822,-3.4584,-3.5276,-3.5923,-3.6154,-3.6115,-3.6115,-3.6154,-3.5808,-3.5385,-7.2065,-7.133,-7.1291,-7.0827,-7.0208,-7.0943,-7.1291,-7.1291,-7.1291,-7.1253,-7.1214,-7.1175,-7.1175,-7.1214,-7.1021,-7.0208,-6.9048,-6.8506,-6.7771,-6.6611,-6.6185,-6.6069,-6.6185,-6.6185,-6.6185,-6.6185,-6.6185,-6.6185,-6.6069,-6.6069,-6.5799,-6.4599,-6.2936,-6.1543,-5.9764,-5.8208,-5.6875,-5.6298,-5.601,-5.5905,-5.5856,-5.5122,-5.4272,-5.3475,-5.2656,-5.1828,-5.101,-5.075,-5.0673,-5.0683,-5.0673,-5.0701,-5.072,-5.0756,-5.0782,-5.0838,-5.0829,-5.0791,-5.0821,-5.0821,-5.0812,-5.0803,-5.0803,-5.0764,-5.071,-5.0692,-5.0673,-5.0683,-5.0673,-5.0673,-5.0471,-5.0019,-4.9173,-4.8288,-4.7181,-4.6326,-4.5757,-4.5637,-4.5662,-4.5709,-4.5703,-4.5688,-4.5688,-4.5658,-4.5233,-4.4616,-4.4268,-4.3465,-4.257,-4.2205,-4.2135,-4.1981,-4.171,-4.1381,-4.1114,-4.0591,-4.0622,-4.0592,-4.0539,-4.0177,-3.9569,-3.8768,-3.8048,-3.6716,-3.581,-3.5663,-3.5892,-3.65,-3.6654,-3.6538,-3.6423,-3.6231,-3.6045,-3.5815,-3.5566,-7.2065,-7.133,-7.1291,-7.0789,-7.017,-7.0943,-7.1291,-7.1291,-7.1291,-7.1291,-7.1291,-7.1291,-7.1291,-7.1291,-7.1291,-7.0672,-6.9589,-6.839,-6.7733,-6.7036,-6.5799,-6.5721,-6.6108,-6.6185,-6.6185,-6.6185,-6.6185,-6.6185,-6.6185,-6.6185,-6.5799,-6.4948,-6.34,-6.1969,-6.0615,-5.8556,-5.728,-5.6875,-5.625,-5.5952,-5.5943,-5.5702,-5.5113,-5.4246,-5.3889,-5.3012,-5.1712,-5.101,-5.0682,-5.0682,-5.0692,-5.0738,-5.0829,-5.0855,-5.088,-5.0858,-5.0866,-5.0888,-5.0872,-5.0863,-5.0855,-5.0821,-5.0829,-5.0773,-5.0764,-5.072,-5.0692,-5.0673,-5.0693,-5.0673,-5.0635,-5.0433,-4.9921,-4.9033,-4.7435,-4.6147,-4.5885,-4.5679,-4.5673,-4.5673,-4.5789,-4.5804,-4.5773,-4.5711,-4.5448,-4.4815,-4.4513,-4.4288,-4.3347,-4.3129,-4.3181,-4.2704,-4.2388,-4.1988,-4.1535,-4.0935,-4.0644,-4.0607,-4.0546,-4.0446,-3.9776,-3.9024,-3.8395,-3.7553,-3.7,-3.6754,-3.7144,-3.7661,-3.7392,-3.7161,-3.6577,-3.6346,-3.6297,-3.6118,-3.5804,-7.2104,-7.1253,-7.0905,-7.0479,-7.0092,-7.0556,-7.0943,-7.1253,-7.1291,-7.1291,-7.1291,-7.1291,-7.1291,-7.1291,-7.1291,-7.0827,-6.986,-6.8274,-6.7539,-6.7268,-6.6147,-6.5837,-6.6147,-6.6185,-6.6185,-6.6185,-6.6185,-6.6185,-6.6185,-6.6185,-6.5915,-6.5412,-6.4174,-6.3052,-6.2124,-5.9725,-5.8178,-5.7705,-5.6703,-5.598,-5.5998,-5.5933,-5.5393,-5.4709,-5.4458,-5.3686,-5.2097,-5.1482,-5.1086,-5.0817,-5.0738,-5.0821,-5.0872,-5.0897,-5.0921,-5.0898,-5.0898,-5.089,-5.0913,-5.0905,-5.0897,-5.0841,-5.0833,-5.0825,-5.0838,-5.0803,-5.0738,-5.0729,-5.073,-5.0712,-5.0653,-5.045,-5.0014,-4.9337,-4.7841,-4.683,-4.6775,-4.6885,-4.663,-4.6414,-4.629,-4.6158,-4.5887,-4.5831,-4.5561,-4.5244,-4.5167,-4.4657,-4.4039,-4.413,-4.402,-4.3504,-4.2988,-4.2549,-4.1865,-4.1181,-4.0682,-4.0646,-4.0539,-4.0477,-4.0007,-3.9319,-3.8979,-3.8491,-3.8137,-3.8046,-3.8467,-3.8661,-3.8469,-3.8046,-3.7161,-3.6668,-3.665,-3.6402,-3.6047,-7.2104,-7.1098,-7.0451,-7.0026,-6.9899,-7.0064,-7.0672,-7.1214,-7.1291,-7.1291,-7.1291,-7.1291,-7.1291,-7.1291,-7.1291,-7.0866,-7.0054,-6.8352,-6.7423,-6.6959,-6.6379,-6.6147,-6.6185,-6.6185,-6.6185,-6.6185,-6.6185,-6.6185,-6.6185,-6.6185,-6.6185,-6.5876,-6.5257,-6.4493,-6.3062,-6.1002,-5.9541,-5.8333,-5.6828,-5.6045,-5.5986,-5.5932,-5.5586,-5.5027,-5.4583,-5.3773,-5.256,-5.1963,-5.1606,-5.0758,-5.0838,-5.0872,-5.0888,-5.0921,-5.0898,-5.0898,-5.0898,-5.0898,-5.0898,-5.089,-5.0898,-5.089,-5.089,-5.089,-5.0888,-5.0846,-5.0821,-5.0821,-5.0776,-5.0738,-5.0735,-5.0135,-4.9903,-4.9688,-4.8979,-4.8631,-4.8538,-4.843,-4.8029,-4.7341,-4.7178,-4.6689,-4.6232,-4.5845,-4.5761,-4.5561,-4.549,-4.5213,-4.4903,-4.4987,-4.4639,-4.4098,-4.362,-4.3111,-4.231,-4.1426,-4.0991,-4.0646,-4.0577,-4.0446,-4.0123,-3.9682,-3.9567,-3.9343,-3.915,-3.9329,-3.98,-3.9785,-3.933,-3.8628,-3.7532,-3.7326,-3.7287,-3.6761,-3.6344,-7.2297,-7.0335,-7.0827,-7.0247,-6.9396,-7.044,-7.1098,-7.1291,-7.1291,-7.1291,-7.1291,-7.1291,-7.1291,-7.1291,-7.1253,-7.1175,-7.0556,-6.8584,-6.6882,-6.5644,-6.6108,-6.6185,-6.6224,-6.6263,-6.6224,-6.6185,-6.6185,-6.6185,-6.6185,-6.6185,-6.6185,-6.6069,-6.5489,-6.4609,-6.3526,-6.135,-5.9493,-5.8449,-5.6884,-5.6033,-5.6003,-5.5986,-5.5873,-5.5566,-5.495,-5.4082,-5.3137,-5.2414,-5.1699,-5.1078,-5.091,-5.1013,-5.0921,-5.089,-5.0898,-5.0898,-5.0898,-5.0898,-5.0898,-5.0898,-5.0898,-5.0898,-5.0898,-5.0898,-5.089,-5.0888,-5.0872,-5.0863,-5.0829,-5.0821,-5.0825,-5.0717,-5.0532,-5.0402,-5.0294,-5.0186,-5.0109,-4.9181,-4.8493,-4.8067,-4.7533,-4.7038,-4.6767,-4.6078,-4.5923,-4.5845,-4.5768,-4.5691,-4.5691,-4.5691,-4.5297,-4.4717,-4.4207,-4.3652,-4.2683,-4.183,-4.1239,-4.09,-4.0762,-4.0708,-4.0385,-4.0092,-4.0015,-4.013,-4.0284,-4.05,-4.05,-3.976,-3.9049,-3.8452,-3.8016,-3.7791,-3.7507,-3.7063,-3.7284,-7.2375,-7.0103,-7.0479,-7.017,-6.9589,-7.0324,-7.0905,-7.1253,-7.1291,-7.1291,-7.1291,-7.1291,-7.1291,-7.1253,-7.0905,-7.0672,-7.0208,-6.8545,-6.6843,-6.6031,-6.6417,-6.6804,-6.6804,-6.6766,-6.665,-6.6301,-6.6185,-6.6185,-6.6185,-6.6185,-6.6185,-6.6185,-6.576,-6.518,-6.4058,-6.1737,-6.0151,-5.8952,-5.7095,-5.6003,-5.6003,-5.6003,-5.5986,-5.5971,-5.5403,-5.4767,-5.3937,-5.3569,-5.2661,-5.1846,-5.1485,-5.1307,-5.0975,-5.0898,-5.0898,-5.0898,-5.0898,-5.0898,-5.0898,-5.0898,-5.0898,-5.0898,-5.0898,-5.0898,-5.089,-5.0905,-5.0897,-5.0897,-5.088,-5.0863,-5.0905,-5.0913,-5.0921,-5.089,-5.0898,-5.0898,-5.0743,-5.0086,-4.9359,-4.8972,-4.8275,-4.7618,-4.7038,-4.6419,-4.5962,-4.5845,-4.5845,-4.5807,-4.5768,-4.5768,-4.5768,-4.5336,-4.4833,-4.4148,-4.3132,-4.2271,-4.1563,-4.1262,-4.1139,-4.1162,-4.1093,-4.0762,-4.0462,-4.05,-4.05,-4.053,-4.0383,-3.9609,-3.9219,-3.9174,-3.889,-3.8334,-3.7931,-3.7843,-3.844,-7.2375,-7.0026,-7.0142,-7.0054,-6.986,-7.0131,-7.0672,-7.1253,-7.1291,-7.1291,-7.1291,-7.1291,-7.1291,-7.1137,-7.0634,-7.018,-6.9473,-6.8584,-6.7307,-6.665,-6.7036,-6.7307,-6.7384,-6.7307,-6.6863,-6.6128,-6.5945,-6.5983,-6.6118,-6.6118,-6.6012,-6.6157,-6.6185,-6.5334,-6.4174,-6.2394,-6.0344,-5.8952,-5.7056,-5.6003,-5.6003,-5.6003,-5.5986,-5.595,-5.5865,-5.5345,-5.4707,-5.4378,-5.3816,-5.2279,-5.2166,-5.1796,-5.1331,-5.0937,-5.0898,-5.0898,-5.0898,-5.0898,-5.0898,-5.0898,-5.0898,-5.0898,-5.0898,-5.0898,-5.089,-5.0913,-5.0913,-5.0913,-5.0913,-5.0905,-5.0898,-5.0898,-5.0898,-5.0898,-5.0898,-5.0898,-5.0898,-5.0898,-5.0434,-4.9939,-4.9126,-4.8392,-4.754,-4.6767,-4.6271,-4.5884,-4.5923,-4.6,-4.6,-4.6,-4.6116,-4.5962,-4.549,-4.4759,-4.3781,-4.2865,-4.2109,-4.1909,-4.17,-4.1508,-4.1546,-4.0977,-4.0562,-4.0523,-4.0492,-4.0523,-4.0451,-3.9952,-3.976,-3.9953,-3.9729,-3.9104,-3.8805,-3.8694,-3.9441,-7.2375,-7.0064,-7.0789,-7.0286,-6.9357,-7.0479,-7.1137,-7.1253,-7.1291,-7.1291,-7.1291,-7.1291,-7.1214,-7.1175,-7.1175,-7.0324,-6.9087,-6.839,-6.7965,-6.7307,-6.7462,-6.7501,-6.7501,-6.7482,-6.6738,-6.5624,-6.5303,-6.5547,-6.578,-6.5635,-6.5683,-6.6051,-6.6118,-6.519,-6.3323,-6.1582,-6.0035,-5.841,-5.6863,-5.6158,-5.6003,-5.6003,-5.6081,-5.6063,-5.6057,-5.5602,-5.5002,-5.4675,-5.3911,-5.2398,-5.2221,-5.2113,-5.1773,-5.1262,-5.1061,-5.113,-5.1169,-5.1246,-5.1207,-5.1014,-5.0937,-5.0898,-5.0898,-5.0898,-5.0898,-5.089,-5.089,-5.089,-5.0898,-5.089,-5.0898,-5.0898,-5.0898,-5.0898,-5.0898,-5.0898,-5.0898,-5.0898,-5.0859,-5.0511,-4.9823,-4.9165,-4.8275,-4.7463,-4.6922,-4.6697,-4.6735,-4.6806,-4.6883,-4.6806,-4.6774,-4.6542,-4.6155,-4.5332,-4.443,-4.3543,-4.2786,-4.2747,-4.247,-4.1816,-4.1585,-4.0969,-4.0631,-4.0554,-4.0492,-4.0523,-4.0342,-4.0056,-3.9991,-4.0,-3.9896,-3.9787,-3.9694,-3.9567,-4.0,-7.2375,-7.0131,-7.0943,-7.0556,-6.9783,-7.075,-7.1291,-7.1291,-7.1291,-7.1291,-7.1137,-7.0866,-7.0905,-7.0943,-7.0286,-6.928,-6.8468,-6.8119,-6.7887,-6.7539,-6.7501,-6.7501,-6.7511,-6.7551,-6.6515,-6.5416,-6.4776,-6.4706,-6.5028,-6.5178,-6.5261,-6.5508,-6.5644,-6.4735,-6.3139,-6.1776,-6.0035,-5.8178,-5.7095,-5.639,-5.6051,-5.6003,-5.6167,-5.6459,-5.6218,-5.5793,-5.5531,-5.5415,-5.4581,-5.3313,-5.2941,-5.246,-5.1932,-5.1756,-5.1796,-5.2152,-5.2182,-5.2182,-5.2105,-5.1912,-5.1602,-5.1525,-5.1169,-5.0937,-5.0898,-5.0898,-5.0898,-5.0937,-5.0898,-5.0898,-5.0898,-5.0898,-5.0898,-5.0898,-5.0898,-5.0898,-5.0898,-5.0898,-5.0898,-5.0821,-5.0124,-4.9513,-4.9204,-4.843,-4.7734,-4.7502,-4.754,-4.7657,-4.7734,-4.7463,-4.727,-4.6598,-4.6165,-4.558,-4.4832,-4.4152,-4.3701,-4.3662,-4.3124,-4.247,-4.1893,-4.1316,-4.0823,-4.0516,-4.05,-4.053,-4.0177,-3.9863,-3.9917,-3.9957,-3.9624,-3.9529,-4.016,-4.0563,-4.0907,-7.2336,-7.0324,-7.0982,-7.0789,-7.0208,-7.0943,-7.1291,-7.1291,-7.1291,-7.1291,-7.1175,-7.0672,-7.0711,-7.0789,-6.986,-6.8622,-6.781,-6.7849,-6.7771,-6.7578,-6.7771,-6.7771,-6.7531,-6.7368,-6.6734,-6.5225,-6.4401,-6.4053,-6.4403,-6.4411,-6.473,-6.5062,-6.5045,-6.4227,-6.2924,-6.1435,-6.0023,-5.8797,-5.7521,-5.667,-5.6158,-5.6051,-5.6274,-5.6932,-5.6351,-5.5896,-5.5612,-5.5581,-5.4731,-5.3652,-5.3138,-5.2802,-5.1975,-5.2214,-5.3003,-5.3754,-5.3699,-5.3459,-5.3033,-5.2569,-5.1958,-5.1641,-5.1246,-5.0975,-5.0898,-5.0937,-5.0975,-5.1091,-5.0937,-5.0898,-5.0898,-5.0898,-5.0898,-5.0898,-5.0898,-5.0898,-5.0898,-5.0898,-5.0898,-5.0666,-5.021,-4.9861,-4.9521,-4.9243,-4.8508,-4.8198,-4.8237,-4.8546,-4.8546,-4.785,-4.7417,-4.6583,-4.5981,-4.5588,-4.5078,-4.4683,-4.4564,-4.4816,-4.3932,-4.3008,-4.2393,-4.1816,-4.1354,-4.0939,-4.0515,-4.0482,-4.0056,-3.992,-4.015,-4.0018,-3.9337,-3.9425,-4.0294,-4.0941,-4.1359,-7.2104,-7.1175,-7.1214,-7.0789,-7.0208,-7.0943,-7.1291,-7.1291,-7.1291,-7.1291,-7.1291,-7.1137,-7.1059,-7.0943,-7.0286,-6.9357,-6.8777,-6.8352,-6.7965,-6.7501,-6.7926,-6.781,-6.7482,-6.7571,-6.6506,-6.5211,-6.4371,-6.4474,-6.457,-6.382,-6.3916,-6.4714,-6.4342,-6.334,-6.2219,-6.1134,-5.962,-5.8514,-5.7026,-5.6167,-5.6081,-5.6042,-5.6119,-5.6197,-5.6059,-5.5736,-5.5289,-5.511,-5.4333,-5.2919,-5.2615,-5.2829,-5.3176,-5.3356,-5.4312,-5.476,-5.4426,-5.3196,-5.2848,-5.2616,-5.226,-5.1873,-5.1246,-5.0975,-5.1169,-5.1246,-5.1447,-5.1989,-5.1486,-5.1091,-5.1091,-5.0975,-5.0937,-5.0867,-5.079,-5.0798,-5.0798,-5.0581,-5.0619,-5.065,-5.0232,-5.0078,-4.9892,-4.9606,-4.932,-4.9088,-4.8972,-4.9327,-4.925,-4.8522,-4.7603,-4.673,-4.6036,-4.5611,-4.5409,-4.5013,-4.5064,-4.5556,-4.4624,-4.3547,-4.3047,-4.2508,-4.2008,-4.1554,-4.1108,-4.0921,-4.0945,-4.0875,-4.0686,-4.0272,-3.9807,-4.0101,-4.0671,-4.1236,-4.18,-7.164,-7.1253,-7.075,-7.0645,-7.0789,-7.1175,-7.1291,-7.1291,-7.1291,-7.1291,-7.1175,-7.075,-7.0556,-7.0518,-7.0092,-6.9551,-6.8854,-6.8313,-6.7578,-6.6959,-6.7163,-6.6989,-6.6399,-6.6566,-6.6105,-6.5089,-6.4765,-6.4955,-6.4816,-6.4271,-6.3992,-6.4286,-6.4156,-6.3779,-6.2269,-6.1337,-6.0072,-5.8638,-5.7164,-5.6372,-5.6485,-5.6321,-5.6244,-5.667,-5.6295,-5.5676,-5.5125,-5.4904,-5.4097,-5.2896,-5.2813,-5.3028,-5.3281,-5.3747,-5.4754,-5.5079,-5.5186,-5.4774,-5.4465,-5.3884,-5.3343,-5.3033,-5.2647,-5.2453,-5.2376,-5.2337,-5.2414,-5.2879,-5.2608,-5.2182,-5.1757,-5.1641,-5.1331,-5.1061,-5.0666,-5.0417,-5.0378,-5.0308,-5.0199,-5.0269,-5.0276,-5.0104,-5.0138,-5.028,-4.997,-4.9569,-4.9673,-5.017,-4.9833,-4.9062,-4.8012,-4.6916,-4.6221,-4.5673,-4.5594,-4.5436,-4.5295,-4.5479,-4.4893,-4.4008,-4.3739,-4.3278,-4.2777,-4.2317,-4.1923,-4.1812,-4.1879,-4.1364,-4.0822,-4.059,-4.0384,-4.0834,-4.1323,-4.1606,-4.2322,-7.0831,-7.0986,-7.0529,-7.0733,-7.1334,-7.1324,-7.1218,-7.1046,-7.1246,-7.1081,-7.0655,-7.0219,-7.0131,-7.0131,-6.9899,-6.928,-6.8766,-6.7887,-6.7057,-6.6525,-6.6351,-6.6283,-6.6023,-6.6074,-6.5712,-6.4597,-6.4727,-6.5109,-6.5046,-6.4569,-6.3998,-6.3998,-6.3414,-6.3223,-6.2866,-6.1641,-6.008,-5.8369,-5.745,-5.6971,-5.6784,-5.6333,-5.6458,-5.6598,-5.6443,-5.5744,-5.5091,-5.497,-5.4173,-5.3291,-5.2991,-5.313,-5.3494,-5.3993,-5.4738,-5.5203,-5.5565,-5.5741,-5.5432,-5.5045,-5.4774,-5.4349,-5.4078,-5.3343,-5.3691,-5.373,-5.3691,-5.3768,-5.342,-5.3033,-5.2647,-5.2337,-5.1881,-5.1208,-5.0509,-5.0111,-4.975,-4.9673,-4.9602,-4.9576,-4.9711,-4.9986,-5.017,-5.0801,-5.0646,-5.0114,-5.0326,-5.0886,-5.028,-4.9393,-4.8322,-4.7125,-4.6368,-4.5819,-4.5723,-4.5689,-4.5633,-4.5594,-4.5009,-4.4509,-4.4201,-4.3932,-4.3508,-4.3073,-4.2756,-4.2577,-4.2539,-4.1692,-4.0991,-4.1319,-4.1569,-4.1674,-4.1964,-4.2299,-4.3053,-6.9537,-7.0341,-7.0958,-7.1239,-7.1475,-7.1386,-7.1,-7.0553,-7.1135,-7.0514,-6.9536,-6.9698,-7.0412,-7.0479,-6.9473,-6.8816,-6.8689,-6.7887,-6.7019,-6.6766,-6.6958,-6.6739,-6.6237,-6.5757,-6.568,-6.5828,-6.5255,-6.503,-6.516,-6.4787,-6.434,-6.4052,-6.3185,-6.2185,-6.1729,-6.1361,-5.9892,-5.8571,-5.796,-5.7402,-5.6805,-5.6255,-5.6241,-5.629,-5.6194,-5.5819,-5.5074,-5.5003,-5.4433,-5.3402,-5.3246,-5.339,-5.3968,-5.429,-5.4854,-5.5559,-5.5874,-5.6042,-5.6012,-5.547,-5.4542,-5.3923,-5.3768,-5.4116,-5.4581,-5.3962,-5.4,-5.4542,-5.4271,-5.3699,-5.3235,-5.2771,-5.2376,-5.1407,-5.048,-4.9737,-4.9374,-4.9025,-4.8959,-4.8905,-4.9204,-4.9775,-5.0079,-5.0657,-5.063,-5.0104,-5.049,-5.1047,-5.03,-4.9403,-4.8446,-4.7418,-4.6507,-4.5995,-4.5813,-4.5902,-4.6287,-4.6249,-4.5855,-4.524,-4.4701,-4.4393,-4.4239,-4.4003,-4.3674,-4.3451,-4.3165,-4.2662,-4.2374,-4.2647,-4.2794,-4.2785,-4.315,-4.3689,-4.4481,-7.0809,-7.1107,-7.0829,-7.0986,-7.1485,-7.1475,-7.1038,-7.0502,-7.1106,-7.0777,-6.9585,-6.9923,-6.9951,-6.9477,-6.8671,-6.8003,-6.7898,-6.7145,-6.6621,-6.651,-6.6631,-6.6453,-6.5901,-6.5633,-6.5528,-6.5782,-6.523,-6.5377,-6.6069,-6.5269,-6.4592,-6.4033,-6.337,-6.3312,-6.279,-6.1573,-6.03,-5.9209,-5.8389,-5.756,-5.721,-5.6395,-5.6187,-5.6207,-5.6214,-5.5786,-5.5158,-5.5009,-5.4173,-5.3557,-5.3689,-5.4045,-5.4439,-5.4682,-5.5281,-5.5874,-5.5973,-5.6205,-5.6515,-5.6012,-5.5393,-5.5238,-5.5084,-5.5122,-5.5432,-5.5122,-5.5161,-5.5316,-5.5122,-5.4528,-5.353,-5.3189,-5.2746,-5.1547,-5.05,-4.9598,-4.9154,-4.8888,-4.8704,-4.8803,-4.9406,-5.0048,-5.0279,-5.0491,-5.0299,-5.0101,-5.0657,-5.0952,-5.0313,-4.9683,-4.8802,-4.8166,-4.7323,-4.6943,-4.6796,-4.6941,-4.7086,-4.6855,-4.6624,-4.6201,-4.5663,-4.5248,-4.5094,-4.485,-4.4743,-4.4614,-4.4368,-4.3906,-4.3566,-4.3273,-4.342,-4.3728,-4.4253,-4.4827,-4.5454,-7.0824,-7.0546,-7.0119,-7.0615,-7.1465,-7.1016,-7.0645,-7.0446,-7.058,-7.0399,-6.9731,-6.9498,-6.9217,-6.8578,-6.7658,-6.7435,-6.7241,-6.6614,-6.6338,-6.6397,-6.6497,-6.6246,-6.586,-6.5611,-6.5585,-6.5705,-6.5592,-6.5812,-6.6112,-6.5737,-6.4992,-6.4435,-6.4337,-6.4138,-6.2893,-6.227,-6.1042,-5.9771,-5.8804,-5.7559,-5.7247,-5.6607,-5.6269,-5.6269,-5.6269,-5.6057,-5.5623,-5.5455,-5.4989,-5.449,-5.4394,-5.4666,-5.4865,-5.5133,-5.573,-5.5938,-5.6068,-5.633,-5.6618,-5.6756,-5.6244,-5.5857,-5.5818,-5.5887,-5.6012,-5.5973,-5.5741,-5.5473,-5.5512,-5.511,-5.3758,-5.3222,-5.2854,-5.1728,-5.037,-4.9469,-4.9284,-4.9061,-4.8841,-4.8777,-4.9499,-5.0186,-5.0423,-5.062,-5.0756,-5.0433,-5.0287,-5.0681,-5.0724,-5.0078,-4.9473,-4.8883,-4.8377,-4.8179,-4.8057,-4.7855,-4.7663,-4.7548,-4.7394,-4.7317,-4.6894,-4.6432,-4.6287,-4.6411,-4.6266,-4.5975,-4.5723,-4.5508,-4.4561,-4.3497,-4.3975,-4.4638,-4.4608,-4.5093,-4.5648,-6.889,-6.8102,-6.896,-7.022,-7.1366,-6.9833,-6.9616,-7.0003,-6.9406,-6.9019,-6.8837,-6.8178,-6.813,-6.8189,-6.7135,-6.6974,-6.713,-6.6153,-6.5845,-6.6532,-6.6668,-6.6677,-6.6385,-6.6043,-6.58,-6.6363,-6.6014,-6.5582,-6.5772,-6.5778,-6.5153,-6.4598,-6.4548,-6.4099,-6.1928,-6.1724,-6.075,-5.9343,-5.9065,-5.8019,-5.7206,-5.6718,-5.6568,-5.6617,-5.6552,-5.6409,-5.6325,-5.6006,-5.565,-5.5384,-5.5135,-5.5333,-5.5578,-5.5288,-5.561,-5.6024,-5.6032,-5.6109,-5.6157,-5.6828,-5.6734,-5.6145,-5.6037,-5.6037,-5.6029,-5.5952,-5.5846,-5.5605,-5.5302,-5.4788,-5.3851,-5.319,-5.2869,-5.2124,-5.0801,-4.9915,-4.9772,-4.9357,-4.9166,-4.9348,-4.9786,-5.021,-5.0501,-5.0781,-5.1138,-5.0903,-5.0291,-5.0297,-5.0702,-5.0565,-5.0005,-4.974,-4.9341,-4.9113,-4.8922,-4.8519,-4.8279,-4.8202,-4.8163,-4.8125,-4.8009,-4.7625,-4.7625,-4.7855,-4.7557,-4.7027,-4.7142,-4.7249,-4.6039,-4.4955,-4.5107,-4.5479,-4.5353,-4.538,-4.5925,-6.9207,-6.8972,-6.9234,-6.9637,-7.0091,-7.0024,-6.9532,-6.8642,-6.7845,-6.7635,-6.7899,-6.7245,-6.6977,-6.7042,-6.6964,-6.6672,-6.6774,-6.679,-6.6576,-6.6627,-6.6733,-6.6759,-6.6538,-6.6147,-6.6026,-6.6346,-6.6037,-6.5913,-6.6444,-6.6264,-6.5833,-6.5277,-6.4526,-6.3673,-6.3417,-6.3175,-6.2465,-6.0832,-5.9723,-5.8632,-5.81,-5.7541,-5.7229,-5.7243,-5.7079,-5.7053,-5.6975,-5.649,-5.6051,-5.5802,-5.5553,-5.5746,-5.5754,-5.5429,-5.5896,-5.6142,-5.6139,-5.6153,-5.6368,-5.6805,-5.697,-5.6436,-5.6064,-5.6079,-5.6124,-5.6139,-5.5986,-5.5877,-5.5701,-5.528,-5.4727,-5.4472,-5.4103,-5.3221,-5.2107,-5.119,-5.0672,-5.0002,-4.9672,-5.0182,-5.0615,-5.1734,-5.2301,-5.1453,-5.1487,-5.155,-5.1042,-5.0703,-5.0952,-5.0914,-5.0563,-5.0529,-5.0302,-5.0055,-4.9787,-4.9422,-4.9365,-4.9433,-4.9202,-4.8971,-4.8817,-4.8663,-4.8432,-4.8355,-4.824,-4.8077,-4.798,-4.7776,-4.716,-4.6615,-4.6239,-4.6029,-4.5908,-4.5919,-4.6222,-6.8867,-6.8633,-6.8865,-6.8773,-6.858,-6.9231,-6.8682,-6.7509,-6.7081,-6.7229,-6.7264,-6.6802,-6.6624,-6.658,-6.636,-6.6486,-6.6572,-6.6375,-6.6678,-6.668,-6.6813,-6.6824,-6.6592,-6.6328,-6.6437,-6.6562,-6.6406,-6.628,-6.6266,-6.6671,-6.6279,-6.5448,-6.4694,-6.4453,-6.416,-6.3389,-6.2379,-6.091,-5.9849,-5.907,-5.8568,-5.8139,-5.7788,-5.7468,-5.7323,-5.7448,-5.7097,-5.6614,-5.6047,-5.5841,-5.5885,-5.6053,-5.583,-5.5892,-5.6251,-5.6251,-5.6251,-5.6239,-5.6369,-5.6557,-5.6608,-5.6272,-5.616,-5.6336,-5.6582,-5.6789,-5.6536,-5.6417,-5.6441,-5.5549,-5.4853,-5.4786,-5.4557,-5.3669,-5.3235,-5.2286,-5.2122,-5.1459,-5.1296,-5.1713,-5.1837,-5.303,-5.3691,-5.266,-5.1896,-5.1903,-5.182,-5.1457,-5.1095,-5.099,-5.088,-5.0816,-5.0782,-5.0506,-5.0393,-5.0365,-5.0385,-5.0635,-5.0279,-4.974,-4.9817,-4.9663,-4.924,-4.8971,-4.9163,-4.9134,-4.8576,-4.812,-4.7595,-4.6953,-4.6339,-4.6278,-4.6352,-4.6507,-4.6659,-6.7656,-6.7109,-6.7851,-6.773,-6.708,-6.7712,-6.7413,-6.6686,-6.7452,-6.736,-6.6744,-6.6666,-6.6553,-6.6467,-6.5946,-6.6084,-6.6524,-6.6076,-6.6359,-6.6719,-6.6875,-6.6875,-6.6875,-6.6797,-6.6758,-6.6836,-6.6719,-6.6365,-6.5892,-6.6479,-6.6401,-6.5733,-6.5534,-6.4898,-6.3851,-6.2882,-6.1755,-6.0967,-6.0287,-5.9274,-5.8334,-5.8655,-5.8273,-5.7871,-5.7619,-5.7575,-5.722,-5.6622,-5.6427,-5.6324,-5.642,-5.6393,-5.6334,-5.6314,-5.6314,-5.6314,-5.6314,-5.6286,-5.6257,-5.6446,-5.6592,-5.6536,-5.6469,-5.6825,-5.7248,-5.7517,-5.749,-5.7173,-5.6998,-5.534,-5.411,-5.4309,-5.4467,-5.4117,-5.3957,-5.3721,-5.3836,-5.3635,-5.3513,-5.3477,-5.3277,-5.3782,-5.4057,-5.3373,-5.2269,-5.2369,-5.2179,-5.1562,-5.1191,-5.0983,-5.0888,-5.0863,-5.0799,-5.0764,-5.0729,-5.0672,-5.0702,-5.0673,-5.0712,-5.0356,-5.0481,-5.0481,-5.0087,-4.9971,-5.0394,-5.025,-4.9576,-4.881,-4.8037,-4.739,-4.6842,-4.6685,-4.6844,-4.7014,-4.7159,-6.7148,-6.6992,-6.7851,-6.7653,-6.6893,-6.7029,-6.6922,-6.6685,-6.6389,-6.6297,-6.6722,-6.6097,-6.6299,-6.6747,-6.6596,-6.664,-6.668,-6.6678,-6.6679,-6.6836,-6.6914,-6.6914,-6.6914,-6.6914,-6.6914,-6.6914,-6.6836,-6.6758,-6.66,-6.6834,-6.5927,-6.4898,-6.5256,-6.4418,-6.3698,-6.2818,-6.2067,-6.1346,-6.0785,-5.956,-5.8784,-5.9268,-5.8886,-5.8609,-5.8449,-5.8371,-5.8098,-5.7061,-5.6784,-5.6546,-5.6546,-5.6494,-5.645,-5.6446,-5.6446,-5.6446,-5.6446,-5.6437,-5.6427,-5.6422,-5.6636,-5.7178,-5.7334,-5.7381,-5.7825,-5.8237,-5.8499,-5.8246,-5.8062,-5.6899,-5.5976,-5.582,-5.5625,-5.5273,-5.5117,-5.5066,-5.5104,-5.4904,-5.4747,-5.4353,-5.4193,-5.4198,-5.4426,-5.3521,-5.2607,-5.2768,-5.2609,-5.1958,-5.1315,-5.1075,-5.0735,-5.0673,-5.0657,-5.0601,-5.0657,-5.0661,-5.0682,-5.0683,-5.0673,-5.0712,-5.0635,-5.0596,-5.0664,-5.0702,-5.0702,-5.0625,-5.0404,-4.9542,-4.8462,-4.8062,-4.7559,-4.7411,-4.7319,-4.7527,-4.773,-6.6914,-6.6992,-6.7461,-6.7342,-6.6907,-6.6828,-6.682,-6.6687,-6.6217,-6.6348,-6.6749,-6.632,-6.6367,-6.6797,-6.6836,-6.6875,-6.6875,-6.6836,-6.6875,-6.6875,-6.6914,-6.6914,-6.6914,-6.6914,-6.6914,-6.6914,-6.6914,-6.6875,-6.6836,-6.6404,-6.5575,-6.5018,-6.4776,-6.4418,-6.4182,-6.4028,-6.3325,-6.2452,-6.1498,-6.0304,-5.9918,-5.9967,-5.9934,-5.9433,-5.9355,-5.9433,-5.9081,-5.7811,-5.7446,-5.7205,-5.7205,-5.7326,-5.7326,-5.7287,-5.7244,-5.724,-5.7077,-5.6831,-5.6619,-5.6909,-5.7283,-5.7814,-5.8421,-5.8824,-5.8985,-5.9345,-5.9476,-5.9486,-5.941,-5.9101,-5.8437,-5.7773,-5.7187,-5.6601,-5.6484,-5.6367,-5.6128,-5.5892,-5.5498,-5.5027,-5.4853,-5.4814,-5.4363,-5.3485,-5.3139,-5.3615,-5.3576,-5.2918,-5.2005,-5.1223,-5.0704,-5.0325,-5.031,-5.0333,-5.0386,-5.0413,-5.0438,-5.0499,-5.0683,-5.0673,-5.0712,-5.0702,-5.0702,-5.0702,-5.0702,-5.0625,-5.0596,-4.9726,-4.8833,-4.8389,-4.7979,-4.7756,-4.7747,-4.8063,-4.8265,-6.6914,-6.6914,-6.6914,-6.6953,-6.6914,-6.6914,-6.6914,-6.6914,-6.6836,-6.6875,-6.6875,-6.6875,-6.6836,-6.6914,-6.6914,-6.6914,-6.6914,-6.6914,-6.6914,-6.6914,-6.6914,-6.6914,-6.6914,-6.6914,-6.6914,-6.6914,-6.6914,-6.6875,-6.668,-6.6365,-6.6009,-6.5616,-6.55,-6.5262,-6.5141,-6.5144,-6.4441,-6.3269,-6.2672,-6.1881,-6.0742,-6.0744,-6.0981,-5.9733,-5.9773,-6.0046,-5.946,-5.8987,-5.8744,-5.8463,-5.8343,-5.8463,-5.8382,-5.8421,-5.834,-5.8181,-5.7935,-5.7613,-5.7407,-5.7613,-5.7977,-5.8624,-5.9427,-5.9986,-6.0224,-6.0342,-6.0466,-6.0508,-6.039,-5.9883,-5.9219,-5.8555,-5.7969,-5.7578,-5.7344,-5.7461,-5.75,-5.7344,-5.7148,-5.6523,-5.569,-5.5658,-5.5736,-5.4902,-5.3845,-5.446,-5.4188,-5.3522,-5.2685,-5.1593,-5.0886,-5.0254,-5.0072,-5.0012,-4.9674,-4.9776,-5.0052,-5.0224,-5.0576,-5.0673,-5.0673,-5.0712,-5.0702,-5.0702,-5.0702,-5.0702,-5.05,-4.9735,-4.9079,-4.8423,-4.8063,-4.7939,-4.8088,-4.846,-4.8798,-6.6914,-6.6914,-6.6914,-6.6914,-6.6914,-6.6914,-6.6914,-6.6914,-6.6914,-6.6914,-6.6914,-6.6914,-6.6914,-6.6914,-6.6914,-6.6914,-6.6914,-6.6914,-6.6914,-6.6914,-6.6914,-6.6914,-6.6914,-6.6914,-6.6914,-6.6914,-6.6914,-6.6875,-6.6797,-6.6521,-6.6125,-6.5694,-6.5616,-6.5576,-6.5735,-6.5737,-6.5115,-6.3905,-6.3633,-6.2383,-6.0483,-6.084,-6.1157,-6.0417,-6.0378,-6.0417,-5.9945,-5.9466,-5.9187,-5.8905,-5.8946,-5.8946,-5.8827,-5.9029,-5.8987,-5.8827,-5.8785,-5.8543,-5.8424,-5.8543,-5.8946,-5.9507,-6.0224,-6.0738,-6.1131,-6.1289,-6.1367,-6.1328,-6.1094,-6.0508,-5.9961,-5.9336,-5.8789,-5.8476,-5.8242,-5.8555,-5.8828,-5.8789,-5.875,-5.7851,-5.6797,-5.6569,-5.6691,-5.6135,-5.5113,-5.4495,-5.3994,-5.342,-5.2802,-5.193,-5.1274,-5.0625,-4.9989,-4.9731,-4.9401,-4.9484,-4.9961,-5.0331,-5.0678,-5.074,-5.0798,-5.0875,-5.0991,-5.0789,-5.0702,-5.0779,-5.0616,-5.0017,-4.9324,-4.8825,-4.8502,-4.8538,-4.853,-4.883,-4.924,-6.6914,-6.6914,-6.6914,-6.6914,-6.6914,-6.6914,-6.6914,-6.6914,-6.6914,-6.6914,-6.6914,-6.6914,-6.6875,-6.6875,-6.6913,-6.6874,-6.6875,-6.6914,-6.6914,-6.6914,-6.6914,-6.6914,-6.6914,-6.6914,-6.6914,-6.6914,-6.6914,-6.6875,-6.6836,-6.6405,-6.5933,-6.6012,-6.5891,-6.5773,-6.6055,-6.6094,-6.5508,-6.4336,-6.4375,-6.2969,-6.0742,-6.1328,-6.1601,-6.1052,-6.0976,-6.0976,-6.0856,-6.0421,-6.0104,-5.9826,-5.9708,-6.0065,-6.0184,-6.0382,-6.0104,-5.9826,-5.9628,-5.9507,-5.9425,-5.9585,-5.9945,-6.0342,-6.0895,-6.1366,-6.1445,-6.1562,-6.1562,-6.1562,-6.1562,-6.1055,-6.0781,-6.0234,-5.9844,-5.9492,-5.9414,-5.957,-5.9687,-5.9687,-5.9375,-5.8711,-5.7809,-5.7208,-5.7163,-5.6617,-5.5755,-5.5553,-5.4896,-5.4358,-5.3597,-5.2663,-5.1921,-5.1269,-5.0763,-5.0054,-4.9637,-4.9795,-5.017,-5.0511,-5.0919,-5.1497,-5.1866,-5.153,-5.128,-5.126,-5.1164,-5.0971,-5.0731,-5.0576,-5.0319,-4.9985,-4.9586,-4.9219,-4.926,-4.939,-4.9962,-6.6914,-6.6914,-6.6914,-6.6914,-6.6914,-6.6914,-6.6914,-6.6914,-6.6875,-6.6797,-6.664,-6.6639,-6.6757,-6.6874,-6.6754,-6.6834,-6.6874,-6.6873,-6.6913,-6.6913,-6.6914,-6.6914,-6.6914,-6.6914,-6.6914,-6.6914,-6.6914,-6.6914,-6.6875,-6.6445,-6.6366,-6.664,-6.6445,-6.6133,-6.668,-6.6719,-6.6094,-6.5039,-6.4531,-6.4062,-6.3086,-6.2305,-6.2031,-6.1914,-6.1836,-6.1836,-6.1914,-6.164,-6.1289,-6.1013,-6.0736,-6.1051,-6.1445,-6.164,-6.1599,-6.1324,-6.1322,-6.081,-6.0298,-6.0614,-6.0696,-6.0855,-6.1445,-6.1719,-6.1758,-6.1758,-6.1758,-6.1719,-6.1719,-6.1601,-6.1328,-6.0976,-6.0586,-6.0508,-6.0508,-6.0469,-6.0508,-6.0547,-6.0078,-5.9531,-5.8945,-5.8281,-5.7627,-5.7052,-5.6638,-5.6488,-5.6094,-5.5681,-5.506,-5.4036,-5.3107,-5.2522,-5.2001,-5.1222,-5.033,-5.0529,-5.1009,-5.1147,-5.1654,-5.2459,-5.2886,-5.2444,-5.2098,-5.202,-5.1856,-5.1741,-5.1818,-5.1876,-5.1556,-5.0943,-5.078,-5.0422,-5.0256,-5.0452,-5.0993,-6.6914,-6.6914,-6.6914,-6.6875,-6.6875,-6.6875,-6.6914,-6.6875,-6.6836,-6.6523,-6.5976,-6.5897,-6.6171,-6.6836,-6.6094,-6.6172,-6.6873,-6.6911,-6.6908,-6.6907,-6.6909,-6.6908,-6.6909,-6.6912,-6.6913,-6.6914,-6.6914,-6.6914,-6.6914,-6.6719,-6.668,-6.6836,-6.6836,-6.668,-6.6758,-6.6719,-6.6367,-6.543,-6.5039,-6.4687,-6.3789,-6.3125,-6.2851,-6.2656,-6.2461,-6.289,-6.3047,-6.2344,-6.2265,-6.2148,-6.1914,-6.207,-6.2422,-6.2773,-6.2812,-6.293,-6.293,-6.2617,-6.2226,-6.2148,-6.2148,-6.168,-6.2109,-6.2031,-6.2031,-6.1914,-6.1914,-6.1836,-6.1797,-6.1719,-6.1445,-6.0937,-6.0586,-6.1094,-6.1289,-6.1289,-6.1289,-6.1289,-6.1094,-6.0703,-6.0312,-5.9531,-5.8728,-5.8046,-5.7253,-5.6923,-5.6254,-5.5876,-5.5728,-5.4994,-5.4453,-5.4062,-5.3594,-5.2342,-5.1474,-5.1824,-5.2181,-5.2222,-5.2382,-5.3166,-5.349,-5.3234,-5.2993,-5.2887,-5.2818,-5.2779,-5.2895,-5.2866,-5.2203,-5.1678,-5.1857,-5.1742,-5.1468,-5.1554,-5.2133]},{"header":{"parameterUnit":"m.s-1","parameterCategory":1,"la1":31.0,"la2":29.5877,"lo1":-88.7671,"lo2":-86.6584,"dy":0.0162,"dx":0.0185,"nx":115,"ny":88,"refTime":"2024-05-08T06:00:00:Z","depth":0,"parameterNumber":3,"parameterNumberName":"V-component_of_WINDS"},"data":[0.0,0.0,0.0,0.0,0.0,0.0,0.0,0.0,0.0,0.0,0.0,0.0,0.0,0.0,0.0,0.0,0.0,0.0,0.0,0.0,0.0,0.0,0.0,0.0,0.0,0.0,0.0,0.0,0.0,0.0,0.0,0.0,0.0,0.0,0.0,0.0,0.0,0.0,0.0,0.0,0.0,0.0,0.0,0.0,0.0,0.0,0.0,0.0,0.0,0.0,0.0,0.0,0.0,0.0,0.0,0.0,0.0,0.0,0.0,0.0,0.0,0.0,0.0,0.0,0.0,0.0,0.0,0.0,0.0,0.0,0.0,0.0,0.0,0.0,0.0,0.0,0.0,0.0,0.0,0.0,0.0,0.0,0.0,0.0,0.0,0.0,0.0,0.0,0.0,0.0,0.0,0.0,0.0,0.0,0.0,0.0,0.0,0.0,0.0,0.0,0.0,0.0,0.0,0.0,0.0,0.0,0.0,0.0,0.0,0.0,0.0,0.0,0.0,0.0,0.0,0.0,0.0,0.0,0.0,0.0,0.0,0.0,0.0,0.0,0.0,0.0,0.0,0.0,0.0,0.0,0.0,0.0,0.0,0.0,0.0,0.0,0.0,0.0,0.0,0.0,0.0,0.0,0.0,0.0,0.0,0.0,0.0,0.0,0.0,0.0,0.0,0.0,0.0,0.0,0.0,0.0,0.0,0.0,0.0,0.0,0.0,0.0,0.0,0.0,0.0,0.0,0.0,0.0,0.0,0.0,0.0,0.0,0.0,0.0,0.0,0.0,0.0,0.0,0.0,0.0,0.0,0.0,0.0,0.0,0.0,0.0,0.0,0.0,0.0,0.0,0.0,0.0,0.0,0.0,0.0,0.0,0.0,0.0,0.0,0.0,0.0,0.0,0.0,0.0,0.0,0.0,0.0,0.0,0.0,0.0,0.0,0.0,0.0,0.0,0.0,0.0,0.0,0.0,0.0,0.0,0.0,0.0,0.0,0.0,0.0,0.0,0.0,0.0,0.0,0.0,0.0,0.0,0.0,0.0,0.0,0.0,0.0,0.0,0.0,0.0,0.0,0.0,0.0,0.0,0.0,0.0,0.0,0.0,0.0,0.0,0.0,0.0,0.0,0.0,0.0,0.0,0.0,0.0,0.0,0.0,0.0,0.0,0.0,0.0,0.0,0.0,0.0,0.0,0.0,0.0,0.0,0.0,0.0,0.0,0.0,0.0,0.0,0.0,0.0,0.0,0.0,0.0,0.0,0.0,0.0,0.0,0.0,0.0,0.0,0.0,0.0,0.0,0.0,0.0,0.0,0.0,0.0,0.0,0.0,0.0,0.0,0.0,0.0,0.0,0.0,0.0,0.0,0.0,0.0,0.0,0.0,0.0,0.0,0.0,0.0,0.0,0.0,0.0,0.0,0.0,0.0,0.0,0.0,0.0,0.0,0.0,0.0,0.0,0.0,0.0,0.0,0.0,0.0,0.0,0.0,0.0,0.0,0.0,0.0,0.0,0.0,0.0,0.0,0.0,0.0,0.0,0.0,0.0,0.0,0.0,0.0,0.0,0.0,0.0,0.0,0.0,0.0,0.0,0.0,0.0,0.0,0.0,0.0,0.0,0.0,0.0,0.0,0.0,0.0,0.0,0.0,0.0,0.0,0.0,0.0,0.0,0.0,0.0,0.0,0.0,0.0,0.0,0.0,0.0,0.0,0.0,0.0,0.0,0.0,0.0,0.0,0.0,0.0,0.0,0.0,0.0,0.0,0.0,0.0,0.0,0.0,0.0,0.0,0.0,0.0,0.0,0.0,0.0,0.0,0.0,0.0,0.0,0.0,0.0,0.0,0.0,0.0,0.0,0.0,0.0,0.0,0.0,0.0,0.0,0.0,0.0,0.0,0.0,0.0,0.0,0.0,0.0,0.0,0.0,0.0,0.0,0.0,0.0,0.0,0.0,0.0,0.0,0.0,0.0,0.0,0.0,0.0,0.0,0.0,0.0,0.0,0.0,0.0,0.0,0.0,0.0,0.0,0.0,0.0,0.0,0.0,0.0,0.0,0.0,0.0,0.0,0.0,0.0,0.0,0.0,0.0,0.0,0.0,0.0,0.0,0.0,0.0,0.0,0.0,0.0,0.0,0.0,0.0,0.0,0.0,0.0,0.0,0.0,0.0,0.0,0.0,0.0,0.0,0.0,0.0,0.0,0.0,0.0,0.0,0.0,0.0,0.0,0.0,0.0,0.0,0.0,0.0,0.0,0.0,0.0,0.0,0.0,0.0,0.0,0.0,0.0,0.0,0.0,0.0,0.0,0.0,0.0,0.0,0.0,0.0,0.0,0.0,0.0,0.0,0.0,0.0,0.0,0.0,0.0,0.0,0.0,0.0,0.0,0.0,0.0,0.0,0.0,0.0,0.0,0.0,0.0,0.0,0.0,0.0,0.0,0.0,0.0,0.0,0.0,0.0,0.0,0.0,0.0,0.0,0.0,0.0,0.0,0.0,0.0,0.0,0.0,0.0,0.0,0.0,0.0,0.0,0.0,0.0,0.0,0.0,0.0,0.0,0.0,0.0,0.0,0.0,0.0,0.0,0.0,0.0,0.0,0.0,0.0,0.0,0.0,0.0,0.0,0.0,0.0,0.0,0.0,0.0,0.0,0.0,0.0,0.0,0.0,0.0,0.0,0.0,0.0,0.0,0.0,0.0,0.0,0.0,0.0,0.0,0.0,0.0,0.0,0.0,0.0,0.0,0.0,0.0,0.0,0.0,0.0,0.0,0.0,0.0,0.0,0.0,0.0,0.0,0.0,0.0,0.0,0.0,0.0,0.0,0.0,0.0,0.0,0.0,0.0,0.0,0.0,0.0,0.0,0.0,0.0,0.0,0.0,0.0,0.0,0.0,0.0,0.0,0.0,0.0,0.0,0.0,0.0,0.0,0.0,0.0,0.0,0.0,0.0,0.0,0.0,0.0,0.0,0.0,0.0,0.0,0.0,0.0,0.0,0.0,0.0,0.0,0.0,0.0,0.0,0.0,0.0,0.0,0.0,0.0,0.0,0.0,0.0,0.0,0.0,0.0,0.0,0.0,0.0,0.0,0.0,0.0,0.0,0.0,0.0,0.0,0.0,0.0,0.0,0.0,0.0,0.0,0.0,0.0,0.0,0.0,0.0,0.0,0.0,0.0,0.0,0.0,0.0,0.0,0.0,0.0,0.0,0.0,0.0,0.0,0.0,0.0,0.0,0.0,0.0,0.0,0.0,0.0,0.0,0.0,0.0,0.0,0.0,0.0,0.0,0.0,0.0,0.0,0.0,0.0,0.0,0.0,0.0,0.0,0.0,0.0,0.0,0.0,0.0,0.0,0.0,0.0,0.0,0.0,0.0,0.0,0.0,0.0,0.0,0.0,0.0,0.0,0.0,0.0,0.0,0.0,0.0,0.0,0.0,0.0,0.0,0.0,0.0,0.0,0.0,0.0,0.0,0.0,0.0,0.0,0.0,0.0,0.0,0.0,0.0,0.0,0.0,0.0,0.0,0.0,0.0,0.0,0.0,0.0,0.0,0.0,0.0,0.0,0.0,0.0,0.0,0.0,0.0,0.0,0.0,0.0,0.0,0.0,0.0,0.0,0.0,0.0,0.0,0.0,0.0,0.0,0.0,0.0,0.0,0.0,0.0,0.0,0.0,0.0,0.0,0.0,0.0,0.0,0.0,0.0,0.0,0.0,0.0,0.0,0.0,0.0,0.0,0.0,0.0,0.0,0.0,0.0,0.0,0.0,0.0,0.0,0.0,0.0,0.0,0.0,0.0,0.0,0.0,0.0,0.0,0.0,0.0,0.0,0.0,0.0,0.0,0.0,0.0,0.0,0.0,0.0,0.0,0.0,0.0,0.0,0.0,0.0,0.0,0.0,0.0,0.0,0.0,0.0,0.0,0.0,0.0,0.0,0.0,0.0,0.0,0.0,0.0,0.0,0.0,0.0,0.0,0.0,0.0,0.0,0.0,0.0,0.0,0.0,0.0,0.0,0.0,0.0,0.0,0.0,0.0,0.0,0.0,0.0,0.0,0.0,0.0,0.0,0.0,0.0,0.0,0.0,0.0,0.0,0.0,0.0,0.0,0.0,0.0,0.0,0.0,0.0,0.0,0.0,0.0,0.0,0.0,0.0,0.0,0.0,0.0,0.0,0.0,0.0,0.0,0.0,0.0,0.0,0.0,0.0,0.0,0.0,0.0,0.0,0.0,0.0,0.0,0.0,0.0,0.0,0.0,0.0,0.0,0.0,0.0,-0.4659,0.0,0.0,0.0,0.0,0.0,0.0,0.0,0.0,0.0,0.0,0.0,0.0,0.0,0.0,0.0,0.0,0.0,0.0,0.0,0.0,0.0,0.0,0.0,0.0,0.0,0.0,0.0,0.0,0.0,0.0,0.0,0.0,0.0,0.0,0.0,0.0,0.0,0.0,0.0,0.0,0.0,0.0,0.0,0.0,0.0,0.0,0.0,0.0,0.0,0.0,0.0,0.0,0.0,0.0,0.0,0.0,0.0,0.0,0.0,0.0,0.0,0.0,0.0,0.0,0.0,0.0,0.0,0.0,0.0,0.0,0.0,0.0,0.0,0.0,0.0,0.0,0.0,0.0,0.0,0.0,0.0,0.0,0.0,0.0,0.0,0.0,0.0,0.0,0.0,0.0,0.0,0.0,0.0,0.0,0.0,0.0,0.0,0.0,0.0,0.0,0.0,0.0,0.0,0.0,0.0,0.0,0.0,0.0,0.0,0.0,-0.5291,-0.5392,-0.5324,-0.5192,-0.5062,0.0,0.0,0.0,0.0,0.0,0.0,0.0,0.0,0.0,0.0,0.0,0.0,0.0,0.0,0.0,0.0,0.0,0.0,0.0,0.0,0.0,0.0,0.0,0.0,0.0,0.0,0.0,0.0,0.0,0.0,0.0,0.0,0.0,0.0,0.0,0.0,0.0,0.0,0.0,0.0,0.0,0.0,0.0,0.0,0.0,0.0,0.0,0.0,0.0,0.0,0.0,0.0,0.0,0.0,0.0,0.0,0.0,0.0,0.0,0.0,0.0,0.0,0.0,0.0,0.0,0.0,0.0,0.0,0.0,0.0,0.0,0.0,0.0,0.0,0.0,0.0,0.0,0.0,0.0,0.0,0.0,0.0,0.0,0.0,0.0,0.0,0.0,0.0,0.0,0.0,0.0,0.0,0.0,0.0,0.0,0.0,0.0,0.0,0.0,0.0,0.0,0.0,0.0,0.0,0.0,0.0,0.0,0.0,0.0,0.0,0.0,0.0,-0.548,-0.5446,-0.5413,0.0,0.0,0.0,0.0,0.0,0.0,0.0,0.0,0.0,0.0,0.0,0.0,0.0,0.0,0.0,0.0,0.0,0.0,0.0,0.0,0.0,0.0,0.0,0.0,0.0,0.0,0.0,0.0,0.0,0.0,0.0,0.0,0.0,0.0,0.0,0.0,0.0,0.0,0.0,0.0,0.0,0.0,0.0,0.0,0.0,0.0,0.0,0.0,0.0,0.0,0.0,0.0,0.0,0.0,0.0,0.0,0.0,0.0,0.0,0.0,0.0,0.0,0.0,0.0,0.0,0.0,0.0,0.0,0.0,0.0,0.0,0.0,0.0,0.0,0.0,0.0,0.0,0.0,0.0,0.0,0.0,0.0,0.0,0.0,0.0,0.0,0.0,0.0,0.0,0.0,0.0,0.0,0.0,0.0,0.0,0.0,0.0,0.0,0.0,0.0,0.0,0.0,0.0,0.0,0.0,0.0,0.0,0.0,0.0,0.0,-0.5628,-0.6009,-0.5741,0.0,-0.5528,0.0,0.0,0.0,0.0,0.0,0.0,0.0,0.0,0.0,0.0,0.0,0.0,0.0,0.0,0.0,0.0,0.0,0.0,0.0,0.0,0.0,0.0,0.0,0.0,0.0,0.0,0.0,0.0,0.0,0.0,0.0,0.0,0.0,0.0,0.0,0.0,0.0,0.0,0.0,0.0,0.0,0.0,0.0,0.0,0.0,0.0,0.0,0.0,0.0,0.0,0.0,0.0,0.0,0.0,0.0,0.0,0.0,0.0,0.0,0.0,0.0,0.0,0.0,0.0,0.0,0.0,0.0,0.0,0.0,0.0,0.0,0.0,0.0,0.0,0.0,0.0,0.0,0.0,0.0,0.0,0.0,0.0,0.0,0.0,0.0,0.0,0.0,0.0,0.0,0.0,0.0,0.0,0.0,0.0,0.0,0.0,0.0,0.0,0.0,0.0,0.0,0.0,0.0,0.0,0.0,0.0,0.0,0.0,0.0,0.0,-0.5628,-0.6127,-0.6031,-0.5816,0.0,0.0,0.0,0.0,0.0,0.0,0.0,0.0,0.0,0.0,0.0,0.0,0.0,0.0,0.0,0.0,0.0,0.0,0.0,0.0,0.0,0.0,0.0,0.0,0.0,0.0,0.0,0.0,0.0,0.0,0.0,0.0,0.0,0.0,0.0,0.0,0.0,0.0,0.0,0.0,0.0,0.0,0.0,0.0,0.0,0.0,0.0,0.0,0.0,0.0,0.0,0.0,0.0,0.0,0.0,0.0,0.0,0.0,0.0,0.0,0.0,0.0,0.0,0.0,0.0,0.0,0.0,0.0,0.0,0.0,0.0,0.0,0.0,0.0,0.0,0.0,0.0,0.0,0.0,0.0,0.0,0.0,0.0,0.0,0.0,0.0,0.0,0.0,0.0,0.0,0.0,0.0,0.0,0.0,0.0,0.0,0.0,0.0,0.0,0.0,0.0,0.0,0.0,0.0,0.0,0.0,0.0,0.0,0.0,0.0,-0.544,-0.5827,-0.6248,-0.6276,-0.5996,-0.5494,0.0,0.0,0.0,0.0,0.0,0.0,0.0,0.0,0.0,0.0,0.0,0.0,0.0,0.0,0.0,0.0,0.0,0.0,0.0,0.0,0.0,0.0,0.0,0.0,0.0,0.0,0.0,0.0,0.0,0.0,0.0,0.0,0.0,0.0,0.0,0.0,0.0,0.0,0.0,0.0,0.0,0.0,0.0,0.0,0.0,0.0,0.0,0.0,0.0,0.0,0.0,0.0,0.0,0.0,0.0,0.0,0.0,0.0,0.0,0.0,0.0,0.0,0.0,0.0,0.0,0.0,0.0,0.0,0.0,0.0,0.0,0.0,0.0,0.0,0.0,0.0,0.0,0.0,0.0,0.0,0.0,0.0,0.0,0.0,0.0,0.0,0.0,0.0,0.0,0.0,0.0,0.0,0.0,0.0,0.0,0.0,0.0,0.0,0.0,0.0,0.0,0.0,0.0,0.0,0.0,0.0,0.0,0.0,-0.5723,-0.602,-0.6229,-0.6378,-0.6365,-0.6145,0.0,0.0,0.0,0.0,0.0,0.0,0.0,0.0,0.0,0.0,0.0,0.0,0.0,0.0,0.0,0.0,0.0,0.0,0.0,0.0,0.0,0.0,0.0,0.0,0.0,0.0,0.0,0.0,0.0,0.0,0.0,0.0,0.0,0.0,0.0,0.0,0.0,0.0,0.0,0.0,0.0,0.0,0.0,0.0,0.0,0.0,0.0,0.0,0.0,0.0,0.0,0.0,0.0,0.0,0.0,0.0,0.0,0.0,0.0,0.0,0.0,0.0,0.0,0.0,0.0,0.0,0.0,0.0,0.0,0.0,0.0,0.0,0.0,0.0,0.0,0.0,0.0,0.0,0.0,0.0,0.0,0.0,0.0,0.0,0.0,0.0,0.0,0.0,0.0,0.0,0.0,0.0,0.0,0.0,0.0,0.0,0.0,0.0,0.0,0.0,0.0,0.0,0.0,0.0,0.0,0.0,0.0,0.0,0.0,-0.5549,-0.6173,-0.6295,-0.5937,-0.6344,-0.6279,0.0,0.0,0.0,0.0,0.0,0.0,0.0,0.0,0.0,0.0,0.0,0.0,0.0,0.0,0.0,0.0,0.0,0.0,0.0,0.0,0.0,0.0,0.0,0.0,0.0,0.0,0.0,0.0,0.0,0.0,0.0,0.0,0.0,0.0,0.0,0.0,0.0,0.0,0.0,0.0,0.0,0.0,0.0,0.0,0.0,0.0,0.0,0.0,0.0,0.0,0.0,0.0,0.0,0.0,0.0,0.0,0.0,0.0,0.0,0.0,0.0,0.0,0.0,0.0,0.0,0.0,0.0,0.0,0.0,0.0,0.0,0.0,0.0,0.0,0.0,0.0,0.0,0.0,0.0,0.0,0.0,0.0,0.0,0.0,0.0,0.0,0.0,0.0,0.0,0.0,0.0,0.0,0.0,0.0,0.0,0.0,0.0,0.0,0.0,0.0,0.0,0.0,0.0,0.0,0.0,0.0,0.0,0.0,0.0,-0.5746,0.0,-0.6585,-0.6077,-0.6467,-0.6378,0.0,0.0,0.0,0.0,0.0,0.0,0.0,0.0,0.0,0.0,0.0,0.0,0.0,0.0,0.0,0.0,0.0,0.0,0.0,0.0,0.0,0.0,0.0,0.0,0.0,0.0,0.0,0.0,0.0,0.0,0.0,0.0,0.0,0.0,0.0,0.0,0.0,0.0,0.0,0.0,0.0,0.0,0.0,0.0,0.0,0.0,0.0,0.0,0.0,0.0,0.0,0.0,0.0,0.0,0.0,0.0,0.0,0.0,0.0,0.0,0.0,0.0,0.0,0.0,0.0,0.0,0.0,0.0,0.0,0.0,0.0,0.0,0.0,0.0,0.0,0.0,0.0,0.0,0.0,0.0,0.0,0.0,0.0,0.0,0.0,0.0,0.0,0.0,0.0,0.0,0.0,0.0,0.0,0.0,0.0,0.0,0.0,0.0,0.0,0.0,0.0,0.0,0.0,0.0,0.0,0.0,0.0,0.0,-0.5712,-0.6393,-0.6932,-0.7078,-0.6924,-0.6773,-0.6467,0.0,0.0,0.0,0.0,0.0,0.0,0.0,0.0,0.0,0.0,0.0,0.0,0.0,0.0,0.0,0.0,0.0,0.0,0.0,0.0,0.0,0.0,0.0,0.0,0.0,0.0,0.0,0.0,0.0,0.0,0.0,0.0,0.0,0.0,0.0,0.0,0.0,0.0,0.0,0.0,0.0,0.0,0.0,0.0,0.0,0.0,0.0,0.0,0.0,0.0,0.0,0.0,0.0,0.0,0.0,0.0,0.0,0.0,0.0,0.0,0.0,0.0,0.0,0.0,0.0,0.0,0.0,0.0,0.0,0.0,0.0,0.0,0.0,0.0,0.0,0.0,0.0,0.0,0.0,0.0,0.0,0.0,0.0,0.0,0.0,0.0,0.0,0.0,0.0,0.0,0.0,0.0,0.0,0.0,0.0,0.0,0.0,0.0,0.0,0.0,0.0,0.0,0.0,0.0,0.0,0.0,0.0,0.0,0.0,-0.6278,-0.7078,-0.7451,-0.7376,-0.7213,-0.693,0.0,0.0,0.0,0.0,0.0,0.0,0.0,0.0,0.0,0.0,0.0,0.0,0.0,0.0,0.0,0.0,0.0,0.0,0.0,0.0,0.0,0.0,0.0,0.0,0.0,0.0,0.0,0.0,0.0,0.0,0.0,0.0,0.0,0.0,0.0,0.0,0.0,0.0,0.0,0.0,0.0,0.0,0.0,0.0,0.0,0.0,0.0,0.0,0.0,0.0,0.0,0.0,0.0,0.0,0.0,0.0,0.0,0.0,0.0,0.0,0.0,0.0,0.0,0.0,0.0,0.0,0.0,0.0,0.0,0.0,0.0,0.0,0.0,0.0,0.0,0.0,0.0,0.0,0.0,0.0,0.0,0.0,0.0,0.0,0.0,0.0,0.0,0.0,0.0,0.0,0.0,0.0,0.0,0.0,0.0,0.0,0.0,0.0,0.0,0.0,0.0,0.0,0.0,0.0,0.0,0.0,0.0,0.0,0.0,-0.6536,-0.7114,-0.7468,-0.7557,-0.7191,-0.6947,-0.6705,0.0,0.0,0.0,0.0,0.0,0.0,0.0,0.0,0.0,0.0,0.0,0.0,0.0,0.0,0.0,0.0,0.0,0.0,0.0,0.0,0.0,0.0,0.0,0.0,0.0,0.0,0.0,0.0,0.0,0.0,0.0,0.0,0.0,0.0,0.0,0.0,0.0,0.0,0.0,0.0,0.0,0.0,0.0,0.0,0.0,0.0,0.0,0.0,0.0,0.0,0.0,0.0,0.0,0.0,0.0,0.0,0.0,0.0,0.0,0.0,0.0,0.0,0.0,0.0,0.0,0.0,0.0,0.0,0.0,0.0,0.0,0.0,0.0,0.0,0.0,0.0,0.0,0.0,0.0,0.0,0.0,0.0,0.0,0.0,0.0,0.0,0.0,0.0,0.0,0.0,0.0,0.0,0.0,0.0,0.0,0.0,0.0,0.0,0.0,0.0,0.0,0.0,0.0,0.0,0.0,0.0,0.0,0.0,-0.7038,-0.7108,-0.72,-0.7475,-0.698,-0.6682,0.0,0.0,0.0,0.0,0.0,0.0,0.0,0.0,0.0,0.0,0.0,0.0,0.0,0.0,0.0,0.0,0.0,0.0,0.0,0.0,0.0,0.0,0.0,0.0,0.0,0.0,0.0,0.0,0.0,0.0,0.0,0.0,0.0,0.0,0.0,0.0,0.0,0.0,0.0,0.0,0.0,0.0,0.0,0.0,0.0,0.0,0.0,0.0,0.0,0.0,0.0,0.0,0.0,0.0,0.0,0.0,0.0,0.0,0.0,0.0,0.0,0.0,0.0,0.0,0.0,0.0,0.0,0.0,0.0,0.0,0.0,0.0,0.0,0.0,0.0,0.0,0.0,0.0,0.0,0.0,0.0,0.0,0.0,0.0,0.0,0.0,0.0,0.0,0.0,0.0,0.0,0.0,0.0,0.0,0.0,0.0,0.0,0.0,0.0,0.0,0.0,0.0,0.0,0.0,0.0,0.0,0.0,0.0,0.0,-0.6791,-0.6978,-0.7461,-0.8183,-0.7676,-0.7265,0.0,0.0,0.0,0.0,0.0,0.0,0.0,0.0,0.0,0.0,0.0,0.0,0.0,0.0,0.0,0.0,0.0,0.0,0.0,0.0,0.0,0.0,0.0,0.0,0.0,0.0,0.0,0.0,0.0,0.0,0.0,0.0,0.0,0.0,0.0,0.0,0.0,0.0,0.0,0.0,0.0,0.0,0.0,0.0,0.0,0.0,0.0,0.0,0.0,0.0,0.0,0.0,0.0,0.0,0.0,0.0,0.0,0.0,0.0,0.0,0.0,0.0,0.0,0.0,0.0,0.0,0.0,0.0,0.0,0.0,0.0,0.0,0.0,0.0,0.0,0.0,0.0,0.0,0.0,0.0,0.0,0.0,0.0,0.0,0.0,0.0,0.0,0.0,0.0,0.0,0.0,0.0,0.0,0.0,0.0,0.0,0.0,0.0,0.0,0.0,0.0,0.0,0.0,0.0,0.0,0.0,0.0,0.0,-0.6369,-0.6878,-0.7183,-0.7559,-0.811,-0.7623,-0.721,0.0,0.0,0.0,0.0,0.0,0.0,0.0,0.0,0.0,0.0,0.0,0.0,0.0,0.0,0.0,0.0,0.0,0.0,0.0,0.0,0.0,0.0,0.0,0.0,0.0,0.0,0.0,0.0,0.0,0.0,0.0,0.0,0.0,0.0,0.0,0.0,0.0,0.0,0.0,0.0,0.0,0.0,0.0,0.0,0.0,0.0,0.0,0.0,0.0,0.0,0.0,0.0,0.0,0.0,0.0,0.0,0.0,0.0,0.0,0.0,0.0,0.0,0.0,0.0,0.0,0.0,0.0,0.0,0.0,0.0,0.0,0.0,0.0,0.0,0.0,0.0,0.0,0.0,0.0,0.0,0.0,0.0,0.0,0.0,0.0,0.0,0.0,0.0,0.0,0.0,0.0,0.0,0.0,0.0,0.0,0.0,0.0,0.0,0.0,0.0,0.0,0.0,0.0,0.0,0.0,0.0,0.0,0.0,-0.6546,-0.7078,-0.7441,-0.7597,-0.7584,-0.7177,-0.6902,0.0,0.0,0.0,0.0,0.0,0.0,0.0,0.0,0.0,0.0,0.0,0.0,0.0,0.0,0.0,0.0,0.0,0.0,0.0,0.0,0.0,0.0,0.0,0.0,0.0,0.0,0.0,0.0,0.0,0.0,0.0,0.0,0.0,0.0,0.0,0.0,0.0,0.0,0.0,0.0,0.0,0.0,0.0,0.0,0.0,0.0,0.0,0.0,0.0,0.0,0.0,0.0,0.0,0.0,0.0,0.0,0.0,0.0,0.0,0.0,0.0,0.0,0.0,0.0,0.0,0.0,0.0,0.0,0.0,0.0,0.0,0.0,0.0,0.0,0.0,0.0,0.0,0.0,0.0,0.0,0.0,0.0,0.0,0.0,0.0,0.0,0.0,0.0,0.0,0.0,0.0,0.0,0.0,0.0,0.0,0.0,0.0,0.0,0.0,0.0,0.0,0.0,0.0,0.0,0.0,0.0,0.0,0.0,-0.6546,-0.7085,-0.7441,-0.7597,-0.7597,-0.7272,-0.6927,0.0,0.0,0.0,0.0,0.0,0.0,0.0,0.0,0.0,0.0,0.0,0.0,0.0,0.0,0.0,0.0,0.0,0.0,0.0,0.0,0.0,0.0,0.0,0.0,0.0,0.0,0.0,0.0,0.0,0.0,0.0,0.0,0.0,0.0,0.0,0.0,0.0,0.0,0.0,0.0,0.0,0.0,0.0,0.0,0.0,0.0,0.0,0.0,-0.2841,0.0,0.0,0.0,0.0,0.0,0.0,0.0,0.0,0.0,0.0,0.0,0.0,0.0,0.0,0.0,0.0,0.0,0.0,0.0,0.0,0.0,0.0,0.0,0.0,0.0,0.0,0.0,0.0,0.0,0.0,0.0,0.0,0.0,0.0,0.0,0.0,0.0,0.0,0.0,0.0,0.0,0.0,0.0,0.0,0.0,0.0,0.0,0.0,0.0,0.0,0.0,0.0,0.0,0.0,0.0,0.0,0.0,0.0,0.0,-0.6654,-0.7085,-0.7441,-0.7563,-0.7489,-0.7265,-0.6923,0.0,0.0,0.0,0.0,0.0,0.0,0.0,0.0,0.0,0.0,0.0,0.0,0.0,0.0,0.0,0.0,0.0,0.0,0.0,0.0,0.0,0.0,0.0,0.0,0.0,0.0,0.0,0.0,0.0,0.0,0.0,0.0,0.0,0.0,0.0,0.0,0.0,0.0,0.0,0.0,0.0,0.0,0.0,0.0,0.0,0.0,0.0,0.0,0.0,0.0,0.0,0.0,0.0,0.0,0.0,0.0,0.0,0.0,0.0,0.0,0.0,0.0,0.0,0.0,0.0,0.0,0.0,0.0,0.0,0.0,0.0,0.0,0.0,0.0,0.0,0.0,0.0,0.0,0.0,0.0,0.0,0.0,0.0,0.0,0.0,0.0,0.0,0.0,0.0,0.0,0.0,0.0,0.0,0.0,0.0,0.0,0.0,0.0,0.0,0.0,0.0,0.0,0.0,0.0,0.0,0.0,0.0,-0.6342,-0.6709,-0.7152,-0.7468,-0.7536,-0.7407,-0.7186,-0.7,-0.6709,0.0,0.0,0.0,0.0,0.0,0.0,0.0,0.0,0.0,0.0,0.0,0.0,0.0,0.0,0.0,0.0,0.0,0.0,0.0,0.0,0.0,0.0,0.0,0.0,0.0,0.0,0.0,0.0,0.0,0.0,0.0,0.0,0.0,0.0,0.0,0.0,0.0,0.0,-0.035,-0.1449,0.0,0.0,0.0,0.0,0.0,0.0,0.0,0.0,-0.4246,0.0,0.0,0.0,0.0,0.0,0.0,0.0,0.0,0.0,0.0,0.0,0.0,0.0,0.0,0.0,0.0,0.0,0.0,0.0,0.0,0.0,0.0,0.0,0.0,0.0,0.0,0.0,0.0,0.0,0.0,0.0,0.0,0.0,0.0,0.0,0.0,0.0,0.0,0.0,0.0,0.0,0.0,0.0,0.0,0.0,0.0,0.0,0.0,0.0,0.0,0.0,0.0,0.0,0.0,0.0,0.0,-0.639,-0.6491,-0.6852,-0.7502,-0.757,-0.759,-0.7556,-0.7247,-0.6957,-0.6695,0.0,0.0,0.0,0.0,0.0,0.0,0.0,0.0,0.0,0.0,0.0,0.0,0.0,0.0,0.0,0.0,0.0,0.0,0.0,0.0,0.0,0.0,0.0,0.0,0.0,0.0,0.0,0.0,0.0,0.0,0.0,0.0,0.0,0.0,0.0,0.0,0.0,0.0,0.0,-0.262,-0.3491,0.0,0.0,0.0,0.0,0.0,0.0,0.0,0.0,-0.5192,0.0,0.0,0.0,0.0,0.0,0.0,0.0,0.0,0.0,0.0,0.0,0.0,0.0,0.0,0.0,0.0,0.0,0.0,0.0,0.0,0.0,0.0,0.0,0.0,0.0,0.0,0.0,0.0,0.0,0.0,0.0,0.0,0.0,0.0,0.0,0.0,0.0,0.0,0.0,0.0,0.0,0.0,0.0,0.0,0.0,0.0,0.0,0.0,0.0,0.0,0.0,0.0,0.0,0.0,0.0,-0.6395,-0.6593,-0.6959,-0.7461,-0.7556,-0.7563,-0.7482,-0.7213,-0.7,0.0,0.0,0.0,0.0,0.0,0.0,0.0,0.0,0.0,0.0,0.0,0.0,0.0,0.0,0.0,0.0,0.0,0.0,0.0,0.0,0.0,0.0,0.0,0.0,0.0,0.0,0.0,0.0,0.0,0.0,0.0,0.0,0.0,0.0,0.0,0.0,0.0,0.0,0.0,0.0,-0.3434,-0.3949,-0.4767,0.0,0.0,0.0,0.0,0.0,0.0,-0.5487,-0.5419,0.0,0.0,0.0,0.0,0.0,0.0,0.0,0.0,0.0,0.0,0.0,0.0,0.0,0.0,0.0,0.0,0.0,0.0,0.0,0.0,0.0,0.0,0.0,0.0,0.0,0.0,0.0,0.0,0.0,0.0,0.0,0.0,0.0,0.0,0.0,0.0,0.0,0.0,0.0,0.0,0.0,0.0,0.0,0.0,0.0,0.0,0.0,0.0,0.0,0.0,0.0,0.0,0.0,0.0,0.0,-0.6347,-0.6742,-0.7129,-0.7448,-0.7584,-0.757,-0.7467,-0.7193,-0.6957,0.0,0.0,0.0,0.0,0.0,0.0,0.0,0.0,0.0,0.0,0.0,0.0,0.0,0.0,0.0,0.0,0.0,0.0,0.0,0.0,0.0,0.0,0.0,0.0,0.0,0.0,0.0,0.0,0.0,0.0,0.0,0.0,0.0,0.0,0.0,0.0,0.0,0.0,0.0,0.0,0.0,-0.4389,-0.5158,-0.528,0.0,0.0,0.0,0.0,-0.5494,-0.5583,0.0,0.0,0.0,0.0,0.0,0.0,0.0,0.0,0.0,0.0,0.0,0.0,0.0,0.0,0.0,0.0,0.0,0.0,0.0,0.0,0.0,0.0,0.0,0.0,0.0,0.0,0.0,0.0,0.0,0.0,0.0,0.0,0.0,0.0,0.0,0.0,0.0,0.0,0.0,0.0,0.0,0.0,0.0,0.0,0.0,0.0,0.0,0.0,0.0,0.0,0.0,0.0,0.0,0.0,0.0,0.0,-0.6491,-0.6892,-0.728,-0.7733,-0.7773,-0.7719,-0.7577,-0.7247,-0.6957,0.0,0.0,0.0,0.0,0.0,0.0,0.0,0.0,0.0,0.0,0.0,0.0,0.0,0.0,0.0,0.0,0.0,0.0,0.0,0.0,0.0,0.0,0.0,0.0,0.0,0.0,0.0,0.0,0.0,0.0,0.0,0.0,0.0,0.0,0.0,0.0,0.0,0.0,0.0,0.0,0.0,-0.5086,-0.4885,-0.544,-0.5845,0.0,0.0,-0.6102,-0.5793,-0.6193,0.0,0.0,0.0,0.0,0.0,0.0,0.0,0.0,0.0,0.0,0.0,0.0,0.0,0.0,0.0,0.0,0.0,0.0,0.0,0.0,0.0,0.0,0.0,0.0,0.0,0.0,0.0,0.0,0.0,0.0,0.0,0.0,0.0,0.0,0.0,0.0,0.0,0.0,0.0,0.0,0.0,0.0,0.0,0.0,0.0,0.0,0.0,0.0,0.0,0.0,0.0,0.0,0.0,0.0,0.0,-0.6308,-0.6607,-0.7041,-0.7448,-0.7794,-0.7733,-0.7665,-0.7604,-0.7224,-0.6876,0.0,0.0,0.0,0.0,0.0,0.0,0.0,0.0,0.0,0.0,0.0,0.0,0.0,0.0,0.0,0.0,0.0,0.0,0.0,0.0,0.0,0.0,0.0,0.0,0.0,0.0,0.0,0.0,0.0,0.0,0.0,0.0,0.0,0.0,0.0,0.0,0.0,0.0,0.0,0.0,0.0,0.0,-0.5425,-0.5888,0.0,0.0,0.0,-0.6186,-0.5962,0.0,0.0,0.0,0.0,0.0,0.0,0.0,0.0,0.0,0.0,0.0,0.0,0.0,0.0,0.0,0.0,0.0,0.0,0.0,0.0,0.0,0.0,0.0,0.0,0.0,0.0,0.0,0.0,0.0,0.0,0.0,0.0,0.0,0.0,0.0,0.0,0.0,0.0,0.0,0.0,0.0,0.0,0.0,0.0,0.0,0.0,0.0,0.0,0.0,0.0,0.0,0.0,0.0,0.0,0.0,0.0,0.0,-0.681,-0.7251,-0.7624,-0.7909,-0.778,-0.7672,-0.7597,-0.7152,0.0,0.0,0.0,0.0,0.0,0.0,0.0,0.0,0.0,0.0,0.0,0.0,0.0,0.0,0.0,0.0,0.0,0.0,0.0,0.0,0.0,0.0,0.0,0.0,0.0,0.0,0.0,-0.5318,0.0,0.0,0.0,0.0,0.0,0.0,0.0,0.0,0.0,0.0,0.0,0.0,0.0,0.0,-0.6259,-0.5956,-0.6268,-0.6396,0.0,0.0,-0.6335,-0.6033,-0.6182,-0.6188,0.0,0.0,0.0,0.0,0.0,0.0,0.0,0.0,0.0,0.0,0.0,0.0,0.0,0.0,0.0,0.0,0.0,0.0,0.0,0.0,0.0,0.0,0.0,0.0,0.0,0.0,0.0,0.0,0.0,0.0,0.0,0.0,0.0,0.0,0.0,0.0,0.0,0.0,0.0,0.0,0.0,0.0,0.0,0.0,0.0,0.0,0.0,0.0,0.0,0.0,0.0,0.0,0.0,0.0,0.0,-0.7065,-0.755,-0.7929,-0.8272,-0.8092,-0.7826,-0.7604,-0.7292,-0.6943,0.0,0.0,0.0,0.0,0.0,0.0,0.0,0.0,0.0,0.0,0.0,0.0,0.0,0.0,0.0,0.0,0.0,0.0,0.0,0.0,0.0,0.0,0.0,0.0,0.0,0.0,0.0,0.0,0.0,0.0,0.0,0.0,0.0,0.0,0.0,0.0,0.0,0.0,0.0,0.0,0.0,-0.6443,-0.6286,-0.6491,-0.662,0.0,0.0,-0.6647,-0.6081,-0.6729,-0.6941,-0.5786,0.0,0.0,0.0,0.0,0.0,0.0,0.0,0.0,0.0,0.0,0.0,0.0,0.0,0.0,0.0,0.0,0.0,0.0,0.0,0.0,0.0,0.0,0.0,0.0,0.0,0.0,0.0,0.0,0.0,0.0,0.0,0.0,0.0,0.0,0.0,0.0,0.0,0.0,0.0,0.0,0.0,0.0,0.0,0.0,0.0,0.0,0.0,0.0,0.0,0.0,0.0,0.0,0.0,-0.7061,-0.7421,-0.795,-0.833,-0.852,-0.8164,-0.7934,-0.7875,-0.7355,-0.7004,0.0,0.0,0.0,0.0,0.0,0.0,0.0,0.0,0.0,0.0,0.0,0.0,0.0,0.0,0.0,0.0,0.0,0.0,0.0,0.0,0.0,0.0,0.0,0.0,0.0,0.0,0.0,0.0,-0.525,-0.533,-0.5392,0.0,0.0,0.0,0.0,0.0,0.0,0.0,0.0,0.0,0.0,-0.6395,-0.6429,-0.6647,0.0,0.0,-0.6803,-0.6842,-0.6383,-0.6593,-0.66,-0.5962,-0.5854,0.0,0.0,0.0,0.0,0.0,0.0,0.0,0.0,0.0,0.0,0.0,0.0,0.0,0.0,0.0,0.0,0.0,0.0,0.0,0.0,0.0,0.0,0.0,0.0,0.0,0.0,0.0,0.0,0.0,0.0,0.0,0.0,0.0,0.0,0.0,0.0,0.0,0.0,0.0,0.0,0.0,0.0,0.0,0.0,0.0,0.0,0.0,0.0,0.0,0.0,0.0,0.0,-0.7339,-0.7597,-0.8228,-0.8601,-0.8703,-0.8316,-0.8085,-0.7975,-0.7456,-0.7098,0.0,0.0,0.0,0.0,0.0,0.0,0.0,0.0,0.0,0.0,0.0,0.0,0.0,0.0,0.0,0.0,0.0,0.0,0.0,0.0,0.0,0.0,0.0,0.0,0.0,0.0,0.0,0.0,-0.533,-0.5378,-0.533,0.0,0.0,0.0,0.0,0.0,0.0,0.0,0.0,0.0,0.0,-0.6504,-0.6511,-0.6695,-0.6783,-0.6613,-0.6763,-0.6831,-0.6519,-0.6511,-0.6395,-0.5979,0.0,0.0,0.0,0.0,0.0,0.0,0.0,0.0,0.0,0.0,0.0,0.0,0.0,0.0,0.0,0.0,0.0,0.0,0.0,0.0,0.0,0.0,0.0,0.0,0.0,0.0,0.0,-0.6306,0.0,0.0,-0.6279,0.0,0.0,0.0,0.0,0.0,0.0,0.0,0.0,0.0,0.0,0.0,0.0,0.0,0.0,0.0,0.0,0.0,0.0,0.0,0.0,0.0,0.0,-0.7448,-0.7604,-0.8336,-0.8716,-0.871,-0.8418,-0.8194,-0.7995,-0.7604,-0.7292,-0.7092,0.0,0.0,0.0,0.0,0.0,0.0,0.0,0.0,0.0,0.0,0.0,0.0,0.0,0.0,0.0,0.0,0.0,0.0,0.0,0.0,0.0,0.0,0.0,0.0,0.0,0.0,-0.5399,-0.5399,-0.5344,0.0,0.0,0.0,0.0,0.0,0.0,0.0,0.0,0.0,0.0,-0.6498,-0.6803,-0.6552,-0.6607,-0.6702,-0.6681,-0.658,-0.6491,-0.6504,-0.6511,-0.6322,0.0,0.0,0.0,0.0,0.0,0.0,0.0,0.0,0.0,0.0,0.0,0.0,0.0,0.0,0.0,0.0,0.0,0.0,0.0,0.0,0.0,0.0,0.0,0.0,0.0,0.0,0.0,-0.7043,-0.7043,0.0,0.0,0.0,0.0,0.0,0.0,0.0,0.0,0.0,0.0,0.0,-0.7692,-0.7889,0.0,0.0,0.0,0.0,0.0,0.0,0.0,0.0,0.0,0.0,0.0,0.0,-0.7787,-0.7787,-0.8676,-0.9103,-0.9057,-0.8668,-0.8384,-0.833,-0.7896,-0.7495,-0.7105,0.0,0.0,0.0,0.0,0.0,0.0,0.0,0.0,0.0,0.0,0.0,0.0,0.0,0.0,0.0,0.0,0.0,0.0,0.0,0.0,0.0,0.0,0.0,0.0,0.0,-0.565,0.0,0.0,0.0,0.0,0.0,0.0,0.0,0.0,0.0,0.0,0.0,-0.6159,-0.6302,-0.6417,-0.6518,-0.6511,-0.66,-0.6634,0.0,0.0,0.0,0.0,0.0,0.0,0.0,0.0,0.0,0.0,0.0,0.0,0.0,0.0,-0.6078,-0.5569,-0.5474,-0.546,-0.5405,0.0,0.0,0.0,0.0,0.0,0.0,0.0,0.0,0.0,0.0,0.0,0.0,0.0,0.0,-0.7597,0.0,-0.7665,0.0,0.0,0.0,0.0,0.0,0.0,0.0,0.0,-0.8052,-0.8459,-0.8534,-0.873,-0.8825,0.0,-0.8465,-0.7821,0.0,0.0,0.0,0.0,0.0,0.0,0.0,0.0,-0.7887,-0.7794,-0.8825,-0.9279,-0.9069,-0.8689,-0.8531,-0.8472,-0.8045,-0.7672,-0.7334,-0.7183,-0.6973,0.0,0.0,0.0,0.0,0.0,0.0,0.0,0.0,0.0,0.0,0.0,0.0,0.0,0.0,0.0,0.0,0.0,0.0,0.0,0.0,0.0,0.0,0.0,-0.58,0.0,0.0,0.0,0.0,0.0,0.0,0.0,0.0,0.0,-0.657,-0.6373,-0.6335,-0.6525,-0.6424,-0.6388,-0.6436,0.0,0.0,0.0,0.0,0.0,0.0,0.0,-0.6281,-0.6132,-0.6152,-0.62,-0.6293,-0.6497,-0.6546,-0.634,0.0,0.0,-0.5691,-0.5583,-0.5535,-0.5487,-0.5515,-0.5562,-0.5583,-0.5583,-0.5549,0.0,0.0,0.0,0.0,0.0,0.0,0.0,0.0,-0.8388,-0.8099,0.0,-0.8133,0.0,0.0,0.0,0.0,-0.6991,-0.7848,0.0,0.0,-0.9544,-1.0032,-0.9625,-0.9496,-0.9503,-0.9605,-0.9042,-0.8615,-0.8303,-0.7774,0.0,0.0,0.0,0.0,0.0,0.0,-0.7853,-0.7678,-0.8791,-0.9239,-0.8892,-0.8642,-0.8531,-0.8452,-0.8052,-0.7828,-0.7807,-0.755,-0.7508,-0.7577,-0.7041,0.0,0.0,0.0,0.0,0.0,0.0,0.0,0.0,0.0,0.0,0.0,0.0,0.0,0.0,0.0,0.0,0.0,0.0,0.0,0.0,-0.582,0.0,0.0,0.0,0.0,0.0,0.0,0.0,0.0,0.0,0.0,-0.7108,-0.6845,-0.6695,-0.6688,0.0,0.0,0.0,0.0,-0.6306,-0.63,-0.6313,-0.632,-0.6306,-0.6429,-0.647,-0.634,0.0,0.0,-0.634,-0.6443,-0.6504,-0.6347,-0.634,-0.6227,-0.6078,-0.5908,-0.5759,-0.5637,-0.5705,-0.584,-0.5976,-0.5861,-0.5766,-0.86,0.0,0.0,0.0,0.0,-0.8601,-0.896,-0.9381,-0.9496,-0.9347,-0.9035,-0.9055,0.0,0.0,0.0,0.0,0.0,0.0,-0.8472,-0.8866,-0.9612,-0.9998,-1.01,-1.0371,-1.0466,-1.0385,-0.9903,-0.9566,-0.9451,-0.8933,-0.8092,-0.6977,0.0,0.0,0.0,0.0,-0.8002,-0.8126,-0.894,-0.9239,-0.8892,-0.8642,-0.8384,-0.8123,-0.8153,-0.8085,-0.7977,-0.7997,-0.7882,-0.7611,-0.7434,0.0,0.0,0.0,0.0,0.0,0.0,0.0,0.0,0.0,0.0,0.0,0.0,0.0,0.0,0.0,0.0,0.0,0.0,0.0,-0.6306,-0.6186,-0.617,0.0,0.0,0.0,0.0,0.0,0.0,0.0,0.0,0.0,-0.7517,-0.6999,-0.6539,0.0,0.0,-0.6347,-0.6306,-0.6388,-0.6416,-0.6313,-0.6477,0.0,-0.647,-0.6539,-0.662,-0.658,-0.6702,-0.6749,-0.66,-0.6741,-0.6905,-0.6763,-0.6647,-0.6559,-0.6505,-0.6207,-0.5932,-0.5872,-0.5854,-0.5854,-0.5939,-0.5833,-0.5684,-0.9753,-0.906,-0.8887,-0.8936,-0.9202,-0.9433,-0.9908,-1.0446,-1.0473,-1.029,-0.9964,-0.9992,-0.9408,-0.8332,-0.8174,0.0,0.0,0.0,-0.9117,-0.976,-1.0148,-1.048,-1.0731,-1.0995,-1.1043,-1.088,-1.05,-1.0193,-1.0127,-0.9469,-0.8716,-0.7813,0.0,0.0,-0.721,-0.7887,-0.8296,-0.8354,-0.9064,-0.9211,-0.8797,-0.8554,-0.8282,-0.8002,-0.8133,-0.8187,-0.8214,-0.8187,-0.8113,-0.795,-0.7726,-0.7434,0.0,0.0,0.0,0.0,0.0,0.0,0.0,0.0,0.0,0.0,0.0,-0.5989,-0.5901,0.0,0.0,0.0,-0.6288,-0.6395,-0.6422,-0.6354,0.0,0.0,0.0,0.0,0.0,0.0,0.0,-0.6967,-0.7055,-0.7239,-0.7467,-0.7076,-0.6756,-0.6866,-0.66,-0.647,-0.6477,0.0,-0.6504,-0.6437,-0.6586,-0.6668,-0.662,-0.6695,-0.681,-0.6865,-0.6903,-0.6937,-0.6862,-0.6984,-0.7065,-0.697,-0.6844,-0.6722,-0.6776,-0.6343,-0.6013,-0.6105,-0.5996,-0.5912,-0.6091,-0.5928,-0.5779,-1.0684,-1.0139,-0.9191,-0.9258,-1.0018,-1.0171,-1.0652,-1.1409,-1.1287,-1.105,-1.0588,-1.0846,-1.0193,-0.8979,-0.8777,0.0,-0.933,-0.9578,-1.0012,-1.0561,-1.105,-1.124,-1.1355,-1.1362,-1.1287,-1.1118,-1.0826,-1.0555,-1.027,-0.9637,-0.913,-0.8892,-0.8547,-0.8119,-0.7746,-0.8357,-0.8574,-0.8408,-0.9071,-0.9144,-0.8682,-0.8397,-0.8174,-0.7955,-0.7968,-0.8147,-0.8404,-0.818,-0.816,-0.8391,-0.7923,-0.7617,-0.757,0.0,0.0,0.0,0.0,0.0,0.0,0.0,0.0,0.0,0.0,0.0,0.0,0.0,0.0,0.0,-0.6525,0.0,-0.6368,-0.6354,0.0,0.0,0.0,-0.6634,-0.6876,-0.7246,-0.739,-0.7129,0.0,0.0,-0.7221,-0.7132,-0.7231,-0.7419,-0.7,-0.6722,-0.6722,-0.66,-0.6559,-0.6695,-0.6729,-0.6729,-0.6702,-0.6797,-0.6876,-0.6984,-0.7078,-0.7085,-0.7071,-0.7045,-0.7058,-0.7058,-0.6871,-0.6722,-0.6892,-0.6397,-0.6054,-0.6288,-0.6159,-0.6071,-0.6179,-0.6105,-0.5925,-1.0589,-1.0219,-1.0403,-1.0687,-1.0895,-1.1218,-1.1477,-1.1735,-1.1809,-1.1599,-1.1179,-1.1131,-1.0683,-0.9971,-1.012,-1.0181,-1.0188,-1.0493,-1.0765,-1.1077,-1.1233,-1.124,-1.1063,-1.1165,-1.1077,-1.0819,-1.0527,-1.0405,-1.0419,-1.0032,-0.9585,-0.9173,-0.905,-0.8832,-0.8465,-0.8506,-0.8676,-0.8995,-0.9173,-0.8995,-0.8449,-0.8194,-0.7921,-0.7712,-0.7807,-0.7896,-0.797,-0.7968,-0.7968,-0.7977,-0.795,-0.778,-0.7441,-0.7177,0.0,0.0,0.0,0.0,0.0,0.0,0.0,0.0,0.0,-0.6361,-0.6213,0.0,-0.6477,0.0,-0.658,-0.6681,-0.6763,-0.677,0.0,0.0,-0.6919,-0.6964,-0.7038,-0.7279,-0.7365,-0.7149,-0.7334,-0.7496,-0.7475,-0.7489,-0.7502,-0.7529,-0.7156,-0.6878,-0.6829,-0.6844,-0.6831,-0.6829,-0.6916,-0.691,-0.6749,-0.6729,-0.677,-0.6797,-0.695,-0.7092,-0.7098,-0.691,-0.6844,-0.6926,-0.6641,-0.6539,-0.6858,-0.6404,-0.6222,-0.6614,-0.6337,-0.6,-0.6078,-0.6057,-0.5952,-1.0481,-1.0204,-1.0538,-1.0759,-1.1036,-1.1714,-1.2062,-1.2223,-1.2115,-1.1918,-1.1674,-1.1389,-1.1084,-1.0785,-1.0873,-1.0873,-1.0812,-1.1036,-1.1185,-1.1343,-1.1423,-1.1369,-1.1151,-1.1226,-1.1111,-1.0745,-1.0521,-1.0385,-1.0378,-1.0093,-0.9774,-0.9456,-0.9388,-0.9306,-0.9184,-0.8594,-0.8377,-0.8554,-0.8492,-0.8449,-0.832,-0.7991,-0.7733,-0.7509,-0.7577,-0.7617,-0.7617,-0.7584,-0.7584,-0.7617,-0.7584,-0.7529,-0.7278,-0.7018,-0.6871,0.0,0.0,0.0,0.0,0.0,0.0,0.0,0.0,0.0,0.0,0.0,-0.6702,-0.6763,-0.6912,-0.7007,-0.6977,-0.6977,-0.7004,-0.7115,-0.7197,-0.7247,-0.7421,-0.7516,-0.7556,-0.7496,-0.757,-0.7699,-0.778,-0.7801,-0.7767,-0.7699,-0.7382,-0.7132,-0.7004,-0.6977,-0.6984,-0.6984,-0.7045,-0.6997,-0.6749,-0.6702,-0.6702,-0.6715,-0.6892,-0.7004,-0.6997,-0.6858,-0.6729,-0.6783,-0.6464,-0.6302,-0.6702,-0.6403,-0.6161,-0.6525,-0.6464,-0.6254,-0.6227,-0.6227,-0.6173,-1.0416,-1.0199,-1.0201,-1.0448,-1.0922,-1.1838,-1.2357,-1.2566,-1.2237,-1.2054,-1.2006,-1.1599,-1.1409,-1.1382,-1.1274,-1.1282,-1.1206,-1.1348,-1.1423,-1.143,-1.1538,-1.1511,-1.1362,-1.1341,-1.1192,-1.0847,-1.0629,-1.0419,-1.027,-1.0005,-0.9829,-0.9734,-0.9632,-0.9605,-0.9605,-0.8594,-0.8052,-0.8011,-0.7814,-0.7896,-0.8255,-0.7794,-0.7468,-0.7326,-0.7344,-0.733,-0.7323,-0.7156,-0.7143,-0.7272,-0.7177,-0.7085,-0.7119,-0.6883,-0.6803,0.0,-0.6607,0.0,0.0,0.0,0.0,0.0,0.0,0.0,0.0,-0.691,-0.7014,-0.7112,-0.7292,-0.7326,-0.7166,-0.7166,-0.7278,-0.7407,-0.7487,-0.7556,-0.7801,-0.7841,-0.7889,-0.7975,-0.7988,-0.7988,-0.7975,-0.7988,-0.7928,-0.7794,-0.7651,-0.7448,-0.7159,-0.7085,-0.7085,-0.7092,-0.7024,-0.6871,-0.6695,-0.6607,-0.6566,-0.6627,-0.6756,-0.6829,-0.6898,-0.6749,-0.6647,-0.6654,-0.6369,-0.624,-0.6647,-0.6403,-0.624,-0.6552,-0.6573,-0.6545,-0.647,-0.645,-0.6349,-1.0416,-1.0221,-1.0786,-1.0999,-1.0917,-1.1811,-1.2076,-1.19,-1.2073,-1.1993,-1.1864,-1.166,-1.1504,-1.1402,-1.1491,-1.147,-1.1362,-1.1504,-1.1572,-1.1572,-1.1477,-1.1355,-1.1206,-1.1084,-1.0867,-1.0758,-1.0582,-1.0419,-1.0276,-1.0222,-0.9883,-0.935,-0.9374,-0.9198,-0.8743,0.0,0.0,0.0,-0.8581,-0.8354,-0.8248,-0.7584,-0.7112,-0.7014,-0.6892,0.0,-0.6824,-0.6797,-0.6797,-0.6831,-0.6919,0.0,0.0,0.0,0.0,0.0,0.0,0.0,0.0,0.0,0.0,0.0,-0.7061,-0.7041,-0.7051,-0.7058,-0.7163,-0.7312,-0.7398,-0.7407,-0.7502,-0.7617,-0.7692,-0.7726,-0.7834,-0.7887,-0.7941,-0.7997,-0.7961,-0.7982,-0.7988,-0.7988,-0.7988,-0.7988,-0.7887,-0.7692,-0.7617,-0.7475,-0.7139,-0.7098,-0.7098,-0.7071,-0.6783,-0.6485,-0.6545,-0.6227,-0.6125,-0.6281,-0.6504,-0.6607,-0.6709,-0.6566,-0.6491,-0.6627,-0.6477,-0.6356,-0.679,-0.6709,-0.6641,-0.691,-0.6869,-0.6736,-0.6422,-0.6347,-0.6286,-1.0416,-1.0215,-1.057,-1.0679,0.0,-1.0993,-1.1097,-1.1044,-1.1795,-1.1905,-1.153,-1.1391,-1.1286,-1.1226,-1.1514,-1.1579,-1.1511,-1.1586,-1.1579,-1.1504,-1.1423,-1.1274,-1.1056,-1.0982,-1.0799,-1.0717,-1.0643,-1.0527,-1.0385,-1.0317,-1.0046,-0.9598,-0.9598,-0.9442,-0.915,-0.9069,-0.9042,-0.9049,-0.8533,-0.8336,-0.8459,-0.7896,-0.7469,-0.7321,-0.7224,0.0,0.0,0.0,0.0,0.0,0.0,0.0,0.0,-0.7556,0.0,-0.7685,-0.757,-0.7516,-0.7577,-0.7516,-0.7456,-0.753,-0.7537,-0.7476,-0.738,-0.7456,-0.757,-0.7692,-0.7699,-0.7733,-0.7807,-0.7833,-0.7923,-0.7929,-0.7941,-0.7988,-0.7988,-0.7988,-0.7988,-0.7988,-0.7988,-0.7988,-0.7988,-0.7988,-0.7916,-0.7651,-0.7597,-0.7489,-0.7166,-0.7098,-0.7098,-0.7078,-0.6709,-0.6436,-0.6463,-0.6173,-0.6017,-0.6295,-0.6424,-0.6573,-0.6675,-0.6497,-0.6354,-0.6484,-0.6395,-0.6429,-0.6722,-0.681,-0.6878,-0.7018,-0.6984,-0.6878,-0.6634,-0.6647,-0.6627,-1.0416,-1.021,-1.0226,-1.0139,-0.997,-1.016,-1.03,-1.0445,0.0,0.0,0.0,-1.1017,-1.0972,-1.1044,-1.1404,-1.1619,-1.1619,-1.1619,-1.1552,-1.143,-1.1402,-1.126,-1.0961,-1.1002,-1.0921,-1.0806,-1.0799,-1.069,-1.0493,-1.0371,-1.0209,-0.995,-0.9883,-0.9822,-0.9822,-0.9822,-0.9517,-0.892,-0.8438,-0.8312,-0.8689,-0.819,-0.7936,-0.7814,-0.7672,-0.7543,-0.746,-0.724,-0.7179,-0.7217,-0.7403,-0.7538,-0.7521,-0.7741,-0.7846,-0.7828,-0.7794,-0.7834,-0.7923,-0.7909,-0.7936,-0.7982,-0.7988,-0.7887,-0.7692,-0.7853,-0.7988,-0.7988,-0.7988,-0.7988,-0.7988,-0.7988,-0.7988,-0.7988,-0.7988,-0.7988,-0.7988,-0.7988,-0.7988,-0.7988,-0.7988,-0.7988,-0.7988,-0.7988,-0.7929,-0.7672,-0.7597,-0.7475,-0.7146,-0.7078,-0.7098,-0.7065,-0.6776,-0.6566,-0.6505,-0.624,-0.6179,-0.6451,-0.6484,-0.6458,-0.6566,-0.6477,-0.6334,-0.6368,-0.6334,-0.6457,-0.6641,-0.679,-0.6926,-0.7041,-0.693,-0.6842,-0.6856,-0.693,-0.6889,-1.0422,-1.0215,-1.0318,-1.0166,-0.9862,-1.0216,-1.0586,-1.0872,-1.0866,-1.076,-1.063,-1.0906,-1.0972,-1.1044,-1.1404,-1.1619,-1.1619,-1.1619,-1.1606,-1.1579,-1.145,-1.1369,-1.1321,-1.1192,-1.1124,-1.1173,-1.1104,-1.0887,-1.0527,-1.0473,-1.0256,-0.9903,-0.9829,-0.9822,-0.9822,-0.9822,-0.9768,-0.9652,-0.9047,-0.8723,-0.8703,-0.814,-0.7834,-0.7807,-0.7685,-0.759,-0.757,-0.755,-0.7536,-0.7536,-0.7583,-0.7658,-0.7929,-0.8115,-0.832,-0.8526,-0.8554,-0.8506,-0.8391,-0.8275,-0.816,-0.8002,-0.7988,-0.7968,-0.7934,-0.7968,-0.7988,-0.7988,-0.7995,-0.7988,-0.7988,-0.7988,-0.7988,-0.7988,-0.7988,-0.7988,-0.7988,-0.7988,-0.7988,-0.7988,-0.7988,-0.7982,-0.7975,-0.7975,-0.786,-0.7672,-0.7584,-0.7441,-0.7115,-0.7018,-0.7085,-0.7065,-0.6878,-0.6749,-0.6749,-0.6343,-0.6268,-0.66,-0.6349,-0.6227,-0.6485,-0.6409,-0.6334,-0.645,-0.645,-0.6491,-0.6661,-0.6715,-0.6749,-0.679,-0.6763,-0.6736,-0.6729,-0.6756,-0.6709,-1.0514,-1.0318,-1.0362,-1.0215,-0.9932,-1.002,-1.0188,-1.0271,-1.0156,-1.0224,-1.0381,-1.0675,-1.0746,-1.075,-1.1109,-1.126,-1.126,-1.126,-1.1214,-1.1206,-1.1352,-1.1341,-1.1267,-1.0991,-1.0889,-1.0889,-1.0975,-1.0714,-1.032,-1.0484,-1.0385,-0.9964,-0.9863,-0.9822,-0.9822,-0.9822,-0.9781,-0.97,-0.9361,-0.9144,-0.9069,-0.8648,-0.8373,-0.8366,-0.8282,-0.8201,-0.8201,-0.8119,-0.8079,-0.8079,-0.8235,-0.8332,-0.8391,-0.857,-0.8767,-0.8818,-0.8832,-0.8764,-0.8615,-0.8397,-0.8201,-0.8008,-0.7988,-0.8072,-0.816,-0.8167,-0.8133,-0.8002,-0.8113,-0.8076,-0.8002,-0.7988,-0.7988,-0.7988,-0.7988,-0.7988,-0.7988,-0.7988,-0.7988,-0.7982,-0.7914,-0.7916,-0.7916,-0.7848,-0.7767,-0.7611,-0.7536,-0.736,-0.7038,-0.7051,-0.7065,-0.7021,-0.6776,-0.6709,-0.6815,-0.6566,-0.643,-0.6661,-0.6396,-0.6274,-0.645,-0.6302,-0.622,-0.6361,-0.6402,-0.6457,-0.6593,-0.658,-0.6607,-0.6681,-0.662,-0.6586,-0.6573,-0.6566,-0.6504,-1.0563,-1.0307,-1.0367,-1.0242,-1.0019,-0.9921,-0.9829,-0.9748,-0.972,-0.9919,-1.0174,-1.0393,-1.0408,-1.0389,-1.075,-1.09,-1.09,-1.0972,-1.098,-1.0883,-1.1231,-1.1375,-1.1134,-1.0848,-1.0633,-1.0575,-1.0677,-1.0518,-1.0143,-1.0405,-1.0344,-0.9908,-0.9815,-0.9761,-0.97,-0.9761,-0.9768,-0.9652,-0.9476,-0.9425,-0.932,-0.9069,-0.8933,-0.8933,-0.8818,-0.871,-0.8757,-0.8648,-0.8587,-0.8587,-0.8807,-0.8862,-0.875,-0.8919,-0.9029,-0.8927,-0.894,-0.8872,-0.871,-0.8465,-0.8248,-0.8106,-0.8069,-0.818,-0.8306,-0.8388,-0.8289,-0.814,-0.816,-0.816,-0.8015,-0.7988,-0.7988,-0.7988,-0.7988,-0.7988,-0.7988,-0.7988,-0.7988,-0.7975,-0.7902,-0.7814,-0.7787,-0.7685,-0.759,-0.7536,-0.7414,-0.7265,-0.7085,-0.7051,-0.6997,-0.6926,-0.6722,-0.6688,-0.6829,-0.6661,-0.6566,-0.6709,-0.6437,-0.6322,-0.6356,-0.6227,-0.6091,-0.6186,-0.6245,-0.6306,-0.6422,-0.6422,-0.643,-0.6525,-0.6532,-0.6417,-0.6402,-0.6334,-0.6259,-1.0471,-1.0117,-1.0302,-1.0248,-1.0025,-1.0003,-0.9992,-0.9965,-0.9873,-0.9764,-0.9799,-0.9933,-0.9969,-1.0023,-1.0383,-1.0527,-1.0527,-1.0828,-1.0966,-1.1018,-1.1384,-1.1377,-1.1058,-1.0999,-1.0784,-1.0556,-1.0497,-1.0287,-0.9844,-1.0031,-0.9903,-0.9474,-0.9646,-0.964,-0.9396,-0.964,-0.9815,-0.9795,-0.9523,-0.9313,-0.9228,-0.9022,-0.894,-0.894,-0.8871,-0.8858,-0.8851,-0.8906,-0.8838,-0.8838,-0.8886,-0.8899,-0.8858,-0.8913,-0.892,-0.894,-0.894,-0.8817,-0.8716,-0.8554,-0.8397,-0.8282,-0.8357,-0.8384,-0.8361,-0.8513,-0.8547,-0.8316,-0.8147,-0.8035,-0.7995,-0.7995,-0.7995,-0.8008,-0.7995,-0.7988,-0.7988,-0.7988,-0.7988,-0.7988,-0.7902,-0.7814,-0.7787,-0.7672,-0.7536,-0.7407,-0.7299,-0.7163,-0.6984,-0.695,-0.695,-0.6903,-0.6842,-0.6842,-0.6905,-0.6675,-0.662,-0.679,-0.6384,-0.6254,-0.6315,-0.622,-0.6051,-0.6118,-0.6037,-0.6091,-0.6245,-0.6186,-0.6139,-0.6354,-0.6361,-0.6293,-0.6118,-0.6054,-0.6064,-1.0476,-1.0248,-1.0346,-1.0248,-1.0036,-1.0019,-1.0019,-1.0008,-0.9889,-0.9775,-0.9655,-0.9707,-0.9736,-0.9879,-1.0095,-1.0167,-1.0167,-1.0527,-1.0678,-1.075,-1.1332,-1.1404,-1.1044,-1.075,-1.0527,-1.0167,-1.0167,-0.9936,-0.9617,-0.9534,-0.9412,-0.9136,-0.922,-0.9275,-0.9275,-0.9457,-0.9579,-0.9815,-0.9625,-0.9442,-0.9279,-0.9055,-0.894,-0.894,-0.894,-0.894,-0.894,-0.894,-0.894,-0.894,-0.894,-0.894,-0.894,-0.894,-0.894,-0.894,-0.894,-0.8817,-0.8723,-0.8648,-0.8554,-0.8456,-0.8445,-0.8492,-0.8526,-0.856,-0.8554,-0.8526,-0.8391,-0.8303,-0.8282,-0.8096,-0.8022,-0.814,-0.8049,-0.7988,-0.7988,-0.7988,-0.7988,-0.7982,-0.7853,-0.7773,-0.7685,-0.7556,-0.7407,-0.7285,-0.7238,-0.7204,-0.7038,-0.7011,-0.7011,-0.6997,-0.6943,-0.693,-0.695,-0.6803,-0.6709,-0.6688,-0.6451,-0.6254,-0.6268,-0.6098,-0.5942,-0.6125,-0.5956,-0.5956,-0.6259,-0.6064,-0.5956,-0.6184,-0.63,-0.6272,-0.6173,-0.6166,-0.6071,-1.0422,-1.0291,-1.0253,-1.0155,-1.0025,-1.0019,-1.0019,-1.0003,-0.9889,-0.9775,-0.9661,-0.9541,-0.9562,-0.9746,-0.9735,-0.9735,-0.9807,-1.0167,-1.0383,-1.0383,-1.1038,-1.1109,-1.0678,-1.0455,-1.0095,-0.9807,-0.9735,-0.957,-0.932,-0.9157,-0.8992,-0.8769,-0.8854,-0.8976,-0.9098,-0.9214,-0.9396,-0.9626,-0.962,-0.9557,-0.9422,-0.915,-0.8981,-0.8885,-0.894,-0.894,-0.894,-0.894,-0.894,-0.894,-0.894,-0.894,-0.894,-0.894,-0.894,-0.894,-0.894,-0.8838,-0.8777,-0.8771,-0.871,-0.8567,-0.8581,-0.8635,-0.8682,-0.8648,-0.8655,-0.8737,-0.8635,-0.8526,-0.8459,-0.8255,-0.8167,-0.8248,-0.8133,-0.7988,-0.7988,-0.7988,-0.7988,-0.7975,-0.7853,-0.774,-0.757,-0.7441,-0.7326,-0.7152,-0.7231,-0.7278,-0.717,-0.7092,-0.7092,-0.7092,-0.6977,-0.6937,-0.6997,-0.6865,-0.6729,-0.6681,-0.6498,-0.6306,-0.632,-0.6057,-0.5928,-0.6132,-0.584,-0.5833,-0.6231,-0.6105,-0.5908,-0.6177,-0.6272,-0.62,-0.6159,-0.6224,-0.6057,-1.0253,-1.0041,-0.9911,-0.9938,-1.0019,-1.0019,-1.0019,-1.0014,-0.9894,-0.9775,-0.9661,-0.9546,-0.9421,-0.9379,-0.9374,-0.9374,-0.9374,-0.9807,-0.9951,-1.0023,-1.0383,-1.0383,-0.9951,-0.9951,-0.9735,-0.9374,-0.9374,-0.929,-0.9113,-0.8832,-0.8614,-0.8451,-0.8683,-0.8738,-0.861,-0.8976,-0.9275,-0.9383,-0.9513,-0.9605,-0.9564,-0.93,-0.9076,-0.8967,-0.894,-0.894,-0.894,-0.894,-0.894,-0.894,-0.894,-0.894,-0.894,-0.894,-0.894,-0.894,-0.894,-0.8933,-0.8871,-0.8913,-0.8797,-0.8743,-0.8811,-0.8797,-0.875,-0.8818,-0.8879,-0.892,-0.8784,-0.8648,-0.8506,-0.8343,-0.8248,-0.8255,-0.8133,-0.8002,-0.7988,-0.7988,-0.7988,-0.7968,-0.7909,-0.7726,-0.7448,-0.7426,-0.7305,-0.7152,-0.7112,-0.7112,-0.7105,-0.7098,-0.7098,-0.7071,-0.6991,-0.6896,-0.6889,-0.6817,-0.6783,-0.6776,-0.66,-0.6361,-0.6302,-0.6268,-0.6227,-0.6125,-0.5895,-0.5908,-0.6252,-0.6293,-0.6108,-0.6136,-0.6112,-0.6091,-0.6152,-0.6078,-0.5939,-1.0291,-1.0123,-0.9921,-0.9911,-1.0014,-1.0019,-1.0019,-1.0014,-0.9976,-0.9845,-0.9682,-0.9622,-0.9492,-0.9302,-0.9302,-0.9302,-0.9302,-0.9735,-0.9879,-0.9951,-1.0311,-1.0311,-0.9951,-0.9879,-0.9663,-0.9374,-0.9302,-0.9171,-0.8945,-0.8817,-0.8573,-0.8296,-0.8302,-0.8385,-0.8445,-0.861,-0.8915,-0.9268,-0.9344,-0.9466,-0.9545,-0.9408,-0.9282,-0.9083,-0.8988,-0.894,-0.894,-0.894,-0.894,-0.894,-0.894,-0.894,-0.894,-0.894,-0.894,-0.894,-0.894,-0.894,-0.894,-0.894,-0.8865,-0.8817,-0.8851,-0.8865,-0.8824,-0.8851,-0.894,-0.8871,-0.8838,-0.8791,-0.8621,-0.8418,-0.832,-0.8255,-0.8133,-0.7988,-0.7988,-0.7988,-0.7988,-0.7968,-0.7909,-0.776,-0.7645,-0.7535,-0.7353,-0.7292,-0.7204,-0.7105,-0.7098,-0.7098,-0.7098,-0.7092,-0.7058,-0.7024,-0.7024,-0.6851,-0.6736,-0.6797,-0.6715,-0.6579,-0.6458,-0.6289,-0.6222,-0.62,-0.5976,-0.5824,-0.6105,-0.6146,-0.6023,-0.6156,-0.6118,-0.6084,-0.6159,-0.6139,-0.6057,-1.0291,-1.0128,-0.9965,-0.9943,-1.0014,-1.0019,-1.0019,-1.0019,-1.0019,-0.9905,-0.9748,-0.972,-0.9606,-0.9443,-0.9421,-0.9394,-0.9362,-0.9613,-0.9735,-0.9735,-1.0023,-0.9951,-0.9735,-0.9735,-0.9518,-0.9296,-0.9264,-0.9095,-0.8856,-0.8791,-0.8623,-0.8193,-0.8138,-0.8182,-0.8324,-0.8395,-0.8671,-0.9098,-0.9281,-0.9405,-0.9606,-0.9483,-0.9391,-0.9275,-0.9042,-0.894,-0.894,-0.894,-0.894,-0.894,-0.894,-0.894,-0.894,-0.894,-0.894,-0.894,-0.894,-0.894,-0.894,-0.894,-0.894,-0.894,-0.894,-0.894,-0.894,-0.894,-0.894,-0.894,-0.8878,-0.8817,-0.871,-0.8486,-0.8374,-0.8269,-0.8133,-0.7988,-0.7988,-0.7988,-0.7988,-0.7982,-0.7914,-0.7875,-0.7801,-0.7631,-0.7489,-0.7439,-0.7272,-0.7166,-0.7112,-0.7054,-0.7054,-0.7048,-0.7003,-0.6997,-0.7034,-0.698,-0.6892,-0.6939,-0.6842,-0.6722,-0.6532,-0.6391,-0.623,-0.6195,-0.6067,-0.5868,-0.5858,-0.5962,-0.6057,-0.6204,-0.6132,-0.6078,-0.6159,-0.6286,-0.6139,-1.0242,-1.0041,-1.0019,-1.0008,-1.0019,-1.0019,-1.0019,-1.0019,-1.0019,-0.9943,-0.9824,-0.9829,-0.9748,-0.9666,-0.9622,-0.959,-0.9465,-0.944,-0.9385,-0.9379,-0.9374,-0.9374,-0.9374,-0.9374,-0.9374,-0.9296,-0.9198,-0.9084,-0.8954,-0.8851,-0.8671,-0.8437,-0.8291,-0.8166,-0.8114,-0.8307,-0.8549,-0.8854,-0.9159,-0.939,-0.9721,-0.9544,-0.9388,-0.934,-0.9103,-0.8954,-0.8885,-0.894,-0.894,-0.894,-0.894,-0.894,-0.8878,-0.8878,-0.8878,-0.883,-0.8885,-0.8885,-0.8878,-0.8878,-0.8878,-0.894,-0.894,-0.894,-0.894,-0.894,-0.894,-0.894,-0.8933,-0.8824,-0.8723,-0.8574,-0.8425,-0.8282,-0.8133,-0.7995,-0.7988,-0.7988,-0.7988,-0.7988,-0.7968,-0.7921,-0.7813,-0.7684,-0.757,-0.7415,-0.7321,-0.7202,-0.7037,-0.6877,-0.6877,-0.701,-0.6922,-0.6833,-0.6966,-0.7092,-0.7085,-0.7065,-0.6964,-0.6836,-0.6604,-0.6417,-0.6192,-0.6094,-0.5783,-0.5592,-0.5845,-0.5949,-0.6057,-0.6139,-0.6084,-0.6125,-0.6227,-0.634,-0.6207,-1.0166,-1.0025,-1.0019,-1.0019,-1.0019,-1.0019,-1.0019,-1.0019,-1.0019,-0.9949,-0.9851,-0.9764,-0.9775,-0.9688,-0.9666,-0.9606,-0.9487,-0.9443,-0.9383,-0.9313,-0.9302,-0.9302,-0.9302,-0.9302,-0.9302,-0.9296,-0.9269,-0.9188,-0.909,-0.9035,-0.8861,-0.8573,-0.8421,-0.8253,-0.813,-0.806,-0.8244,-0.8549,-0.8854,-0.9153,-0.9444,-0.952,-0.949,-0.9374,-0.9184,-0.9042,-0.8892,-0.894,-0.894,-0.894,-0.894,-0.8823,-0.8657,-0.8595,-0.8546,-0.8325,-0.8269,-0.838,-0.8602,-0.8595,-0.8712,-0.8823,-0.8885,-0.894,-0.894,-0.8885,-0.8885,-0.8885,-0.8878,-0.8817,-0.8737,-0.8669,-0.8533,-0.8347,-0.8133,-0.7995,-0.7988,-0.7988,-0.7988,-0.7988,-0.7839,-0.772,-0.7618,-0.7511,-0.7321,-0.7235,-0.7079,-0.6878,-0.684,-0.6681,-0.6612,-0.6833,-0.67,-0.6662,-0.6877,-0.6966,-0.701,-0.7054,-0.6987,-0.6937,-0.6717,-0.6322,-0.6106,-0.5883,-0.5575,-0.5612,-0.5825,-0.5996,-0.6132,-0.6207,-0.624,-0.634,-0.6409,-0.6368,-0.6265,-1.0134,-1.0025,-1.0019,-0.9992,-0.996,-0.9998,-1.0019,-1.0019,-1.0019,-0.9976,-0.9916,-0.9905,-0.9867,-0.9807,-0.9802,-0.9704,-0.9568,-0.9552,-0.9465,-0.9323,-0.9302,-0.9302,-0.9302,-0.9302,-0.9302,-0.9302,-0.9302,-0.9269,-0.9204,-0.9188,-0.9057,-0.8807,-0.8628,-0.8432,-0.8193,-0.8086,-0.8111,-0.8439,-0.8732,-0.8976,-0.9188,-0.9447,-0.9478,-0.9272,-0.9232,-0.9083,-0.8954,-0.894,-0.894,-0.8878,-0.8823,-0.8657,-0.8484,-0.8374,-0.8208,-0.8048,-0.7992,-0.8097,-0.8263,-0.8318,-0.838,-0.8546,-0.8546,-0.8657,-0.8712,-0.8768,-0.8768,-0.8878,-0.8878,-0.8844,-0.8757,-0.8737,-0.8601,-0.8429,-0.8221,-0.8106,-0.8008,-0.7889,-0.7839,-0.7789,-0.7646,-0.749,-0.7366,-0.7279,-0.7064,-0.7079,-0.6938,-0.6703,-0.673,-0.6563,-0.6577,-0.6598,-0.6502,-0.6573,-0.6751,-0.6833,-0.6884,-0.6966,-0.6997,-0.6947,-0.6833,-0.6176,-0.5753,-0.5711,-0.546,-0.5866,-0.6098,-0.622,-0.6375,-0.6416,-0.6409,-0.6409,-0.6416,-0.6354,-0.6279,-1.0128,-1.0025,-1.0019,-0.9954,-0.9867,-0.997,-1.0019,-1.0019,-1.0019,-1.0014,-1.0008,-1.0003,-1.0003,-1.0008,-0.9981,-0.9867,-0.9704,-0.9628,-0.9525,-0.9362,-0.9302,-0.9285,-0.9302,-0.9302,-0.9302,-0.9302,-0.9302,-0.9302,-0.9285,-0.9285,-0.9247,-0.9079,-0.8845,-0.8649,-0.8399,-0.8245,-0.8183,-0.8351,-0.8683,-0.8854,-0.8909,-0.9286,-0.9387,-0.8949,-0.9107,-0.908,-0.8994,-0.8892,-0.8878,-0.8823,-0.865,-0.8484,-0.8374,-0.8152,-0.7986,-0.7881,-0.7937,-0.7931,-0.7992,-0.7992,-0.8048,-0.8103,-0.8103,-0.8097,-0.8429,-0.854,-0.865,-0.8823,-0.8878,-0.8878,-0.8899,-0.8763,-0.8615,-0.846,-0.8213,-0.8116,-0.7965,-0.7739,-0.759,-0.7547,-0.7341,-0.7185,-0.7185,-0.7129,-0.7063,-0.6967,-0.6912,-0.6738,-0.6647,-0.6449,-0.6391,-0.6368,-0.6327,-0.6415,-0.6604,-0.6656,-0.6707,-0.6884,-0.6966,-0.6994,-0.6844,-0.6184,-0.5729,-0.5651,-0.5632,-0.6048,-0.6329,-0.6477,-0.6504,-0.6484,-0.6463,-0.6429,-0.6356,-0.6315,-0.6151,-1.0128,-1.0025,-1.0019,-0.9949,-0.9862,-0.997,-1.0019,-1.0019,-1.0019,-1.0019,-1.0019,-1.0019,-1.0019,-1.0019,-1.0019,-0.9932,-0.978,-0.9612,-0.9519,-0.9421,-0.9247,-0.9237,-0.9291,-0.9302,-0.9302,-0.9302,-0.9302,-0.9302,-0.9302,-0.9302,-0.9247,-0.9128,-0.891,-0.8709,-0.8519,-0.8295,-0.8114,-0.8183,-0.8407,-0.8549,-0.861,-0.8885,-0.9099,-0.9078,-0.9078,-0.9109,-0.906,-0.8765,-0.8595,-0.8595,-0.854,-0.8263,-0.7937,-0.7771,-0.7604,-0.7487,-0.7432,-0.7549,-0.766,-0.7715,-0.7771,-0.7992,-0.7937,-0.8042,-0.8097,-0.8374,-0.854,-0.865,-0.8768,-0.8878,-0.8871,-0.8666,-0.841,-0.804,-0.7885,-0.7774,-0.7679,-0.749,-0.7285,-0.7285,-0.7048,-0.6948,-0.6892,-0.6781,-0.6691,-0.6698,-0.6603,-0.652,-0.6478,-0.6349,-0.6261,-0.6287,-0.6288,-0.6322,-0.6439,-0.6483,-0.6574,-0.6795,-0.6922,-0.7041,-0.679,-0.6312,-0.6038,-0.5864,-0.586,-0.6151,-0.6424,-0.6641,-0.6593,-0.6552,-0.6491,-0.645,-0.6278,-0.6166,-0.5911,-1.0134,-1.0014,-0.9965,-0.9905,-0.9851,-0.9916,-0.997,-1.0014,-1.0019,-1.0019,-1.0019,-1.0019,-1.0019,-1.0019,-1.0019,-0.9954,-0.9818,-0.9595,-0.9492,-0.9454,-0.9296,-0.9253,-0.9296,-0.9302,-0.9302,-0.9302,-0.9302,-0.9302,-0.9302,-0.9302,-0.9264,-0.9193,-0.9019,-0.8861,-0.8731,-0.8394,-0.8176,-0.8174,-0.8285,-0.8366,-0.8244,-0.8671,-0.8835,-0.891,-0.8991,-0.9104,-0.9128,-0.8788,-0.8549,-0.8504,-0.8263,-0.7992,-0.766,-0.7493,-0.7326,-0.721,-0.721,-0.7265,-0.7382,-0.7438,-0.7493,-0.7598,-0.7654,-0.7709,-0.7881,-0.8103,-0.8263,-0.8318,-0.8546,-0.8657,-0.8533,-0.8329,-0.8089,-0.7869,-0.7577,-0.7469,-0.7565,-0.7373,-0.7229,-0.7092,-0.6867,-0.6693,-0.6653,-0.6492,-0.6454,-0.6459,-0.6448,-0.6425,-0.6336,-0.6251,-0.6187,-0.6211,-0.6233,-0.6264,-0.635,-0.643,-0.658,-0.6802,-0.6966,-0.7092,-0.683,-0.6447,-0.6348,-0.6182,-0.6168,-0.6239,-0.6567,-0.6817,-0.6783,-0.6709,-0.6552,-0.6424,-0.6298,-0.5888,-0.5629,-1.0134,-0.9992,-0.9823,-0.9764,-0.9824,-0.9769,-0.9932,-1.0008,-1.0019,-1.0019,-1.0019,-1.0019,-1.0019,-1.0019,-1.0019,-0.996,-0.9845,-0.9606,-0.9476,-0.941,-0.9329,-0.9296,-0.9302,-0.9302,-0.9302,-0.9302,-0.9302,-0.9302,-0.9302,-0.9302,-0.9302,-0.9258,-0.9171,-0.8992,-0.8793,-0.8573,-0.8302,-0.8198,-0.824,-0.8189,-0.8055,-0.8421,-0.8618,-0.8654,-0.8951,-0.9059,-0.8972,-0.8754,-0.852,-0.838,-0.7881,-0.766,-0.7549,-0.7326,-0.721,-0.721,-0.721,-0.721,-0.721,-0.7265,-0.721,-0.7265,-0.7265,-0.7265,-0.7549,-0.7826,-0.7992,-0.7992,-0.8269,-0.8263,-0.8036,-0.7828,-0.7792,-0.7648,-0.7375,-0.7322,-0.7417,-0.7346,-0.7124,-0.697,-0.6735,-0.6562,-0.6446,-0.6392,-0.6431,-0.6454,-0.6393,-0.6405,-0.6361,-0.6323,-0.6274,-0.6198,-0.6227,-0.6203,-0.6276,-0.6376,-0.663,-0.6802,-0.6972,-0.7041,-0.6849,-0.6641,-0.6621,-0.654,-0.6508,-0.6625,-0.6884,-0.697,-0.6847,-0.6551,-0.6239,-0.6288,-0.6282,-0.5617,-0.5229,-1.0161,-0.9807,-0.9954,-0.9873,-0.9753,-0.99,-0.9992,-1.0019,-1.0019,-1.0019,-1.0019,-1.0019,-1.0019,-1.0019,-1.0014,-1.0003,-0.9916,-0.9639,-0.94,-0.9226,-0.9291,-0.9302,-0.9307,-0.9313,-0.9307,-0.9302,-0.9302,-0.9302,-0.9302,-0.9302,-0.9302,-0.9285,-0.9204,-0.9008,-0.8857,-0.8622,-0.8361,-0.8214,-0.8121,-0.8,-0.7933,-0.8055,-0.8288,-0.849,-0.8888,-0.8868,-0.8594,-0.8419,-0.8188,-0.7862,-0.7665,-0.751,-0.7326,-0.7265,-0.721,-0.721,-0.721,-0.721,-0.721,-0.721,-0.721,-0.721,-0.721,-0.721,-0.7265,-0.7549,-0.766,-0.7715,-0.7937,-0.7992,-0.7709,-0.7636,-0.7552,-0.7364,-0.7292,-0.7221,-0.721,-0.7076,-0.6923,-0.6862,-0.6733,-0.6611,-0.6573,-0.6425,-0.6403,-0.6392,-0.6381,-0.6371,-0.6371,-0.6371,-0.6366,-0.6285,-0.6262,-0.6281,-0.6427,-0.6578,-0.6809,-0.6936,-0.705,-0.7132,-0.6939,-0.6799,-0.6786,-0.6806,-0.6832,-0.6959,-0.6959,-0.6653,-0.6403,-0.6176,-0.5936,-0.5859,-0.5647,-0.5168,-0.4991,-1.0172,-0.9774,-0.9905,-0.9862,-0.978,-0.9883,-0.9965,-1.0014,-1.0019,-1.0019,-1.0019,-1.0019,-1.0019,-1.0014,-0.9965,-0.9932,-0.9867,-0.9633,-0.9394,-0.928,-0.9334,-0.9389,-0.9389,-0.9383,-0.9367,-0.9318,-0.9302,-0.9302,-0.9302,-0.9302,-0.9302,-0.9302,-0.9242,-0.916,-0.9003,-0.8677,-0.8454,-0.8285,-0.8024,-0.7933,-0.7933,-0.7933,-0.8055,-0.8427,-0.8775,-0.8797,-0.8543,-0.8365,-0.8105,-0.7748,-0.7522,-0.7382,-0.7221,-0.721,-0.721,-0.721,-0.721,-0.721,-0.721,-0.721,-0.721,-0.721,-0.721,-0.721,-0.7265,-0.7438,-0.7493,-0.7493,-0.7604,-0.7715,-0.7438,-0.7382,-0.7326,-0.7265,-0.721,-0.721,-0.7188,-0.7095,-0.6937,-0.6883,-0.6785,-0.6692,-0.6611,-0.6524,-0.6408,-0.6392,-0.6392,-0.6387,-0.6381,-0.6381,-0.6381,-0.6372,-0.6301,-0.6401,-0.6591,-0.679,-0.7002,-0.7137,-0.7161,-0.7258,-0.72,-0.705,-0.6953,-0.6959,-0.6959,-0.6782,-0.6713,-0.6362,-0.608,-0.5855,-0.5639,-0.5388,-0.5162,-0.494,-0.489,-1.0172,-0.9764,-0.978,-0.9845,-0.9818,-0.9856,-0.9932,-1.0014,-1.0019,-1.0019,-1.0019,-1.0019,-1.0019,-0.9998,-0.9927,-0.9785,-0.9764,-0.9639,-0.9459,-0.9367,-0.9421,-0.9459,-0.947,-0.9459,-0.9248,-0.9147,-0.9048,-0.9053,-0.9219,-0.9219,-0.9131,-0.9224,-0.9302,-0.9182,-0.9019,-0.8769,-0.8481,-0.8285,-0.8019,-0.7933,-0.7933,-0.7933,-0.8055,-0.8299,-0.8599,-0.8642,-0.842,-0.8248,-0.8043,-0.7755,-0.7448,-0.7279,-0.7214,-0.7215,-0.721,-0.721,-0.721,-0.721,-0.721,-0.721,-0.721,-0.721,-0.721,-0.721,-0.7265,-0.7382,-0.7382,-0.7382,-0.7382,-0.7438,-0.721,-0.721,-0.721,-0.721,-0.721,-0.721,-0.721,-0.721,-0.7144,-0.7018,-0.6904,-0.6801,-0.6681,-0.6573,-0.6452,-0.6398,-0.6403,-0.6414,-0.6414,-0.6414,-0.643,-0.6408,-0.6393,-0.654,-0.6739,-0.7029,-0.7283,-0.7295,-0.7353,-0.7319,-0.7326,-0.7179,-0.7061,-0.7054,-0.7003,-0.6827,-0.6543,-0.6194,-0.5898,-0.5659,-0.5275,-0.4931,-0.4808,-0.4751,-0.4755,-1.0172,-0.9769,-0.9949,-0.9878,-0.9748,-0.9905,-0.9998,-1.0014,-1.0019,-1.0019,-1.0019,-1.0019,-1.0008,-1.0003,-1.0003,-0.9883,-0.9709,-0.9612,-0.9552,-0.9459,-0.9481,-0.9487,-0.9487,-0.9334,-0.9009,-0.8494,-0.8235,-0.8484,-0.8806,-0.8714,-0.8647,-0.9136,-0.9219,-0.9089,-0.8899,-0.8655,-0.8437,-0.8209,-0.7992,-0.7955,-0.7933,-0.7933,-0.7944,-0.8066,-0.8378,-0.8248,-0.8036,-0.811,-0.7937,-0.7481,-0.7339,-0.7266,-0.7161,-0.7147,-0.7176,-0.7243,-0.7248,-0.7259,-0.7254,-0.7226,-0.7215,-0.721,-0.721,-0.721,-0.721,-0.7265,-0.7265,-0.7265,-0.721,-0.7265,-0.721,-0.721,-0.721,-0.721,-0.721,-0.721,-0.721,-0.721,-0.7204,-0.7155,-0.7002,-0.691,-0.6785,-0.6671,-0.6594,-0.6511,-0.6516,-0.6578,-0.6589,-0.6578,-0.6522,-0.6489,-0.6435,-0.6674,-0.6888,-0.7238,-0.7496,-0.7489,-0.7489,-0.7373,-0.7333,-0.7224,-0.7119,-0.7105,-0.7003,-0.6827,-0.648,-0.6031,-0.5665,-0.5311,-0.4899,-0.4489,-0.461,-0.4683,-0.4337,-1.0172,-0.9856,-0.997,-0.9916,-0.9807,-0.9943,-1.0019,-1.0019,-1.0019,-1.0019,-0.9998,-0.996,-0.9965,-0.997,-0.9878,-0.9737,-0.9622,-0.9574,-0.9541,-0.9492,-0.9487,-0.9487,-0.9413,-0.9118,-0.8609,-0.796,-0.738,-0.7301,-0.7912,-0.7642,-0.7941,-0.8479,-0.8642,-0.8666,-0.8803,-0.8682,-0.8437,-0.8176,-0.8024,-0.7988,-0.7877,-0.7933,-0.7894,-0.806,-0.8089,-0.8027,-0.7928,-0.7911,-0.7671,-0.7137,-0.697,-0.6732,-0.6549,-0.6699,-0.6992,-0.7271,-0.7334,-0.7334,-0.7323,-0.7296,-0.7252,-0.7241,-0.7248,-0.7215,-0.721,-0.721,-0.721,-0.7215,-0.721,-0.721,-0.721,-0.721,-0.721,-0.721,-0.721,-0.721,-0.721,-0.721,-0.721,-0.7199,-0.71,-0.6959,-0.6915,-0.6806,-0.6709,-0.6676,-0.6681,-0.6698,-0.6709,-0.6671,-0.6643,-0.6653,-0.6642,-0.6863,-0.7101,-0.7388,-0.7706,-0.7699,-0.7604,-0.7489,-0.7387,-0.7285,-0.7152,-0.7098,-0.6959,-0.6782,-0.6274,-0.5735,-0.5344,-0.5039,-0.4865,-0.4679,-0.4664,-0.4577,-0.43,-1.0166,-0.9883,-0.9976,-0.9949,-0.9867,-0.997,-1.0019,-1.0019,-1.0019,-1.0019,-1.0003,-0.9932,-0.9938,-0.9949,-0.9818,-0.9644,-0.953,-0.9536,-0.9525,-0.9497,-0.9525,-0.9525,-0.9266,-0.872,-0.812,-0.7576,-0.6485,-0.6027,-0.684,-0.677,-0.7089,-0.7629,-0.7771,-0.8028,-0.8354,-0.8293,-0.8236,-0.8263,-0.8084,-0.7964,-0.7955,-0.7877,-0.7971,-0.8065,-0.7982,-0.7856,-0.763,-0.7564,-0.7145,-0.6647,-0.6348,-0.6191,-0.5864,-0.618,-0.6802,-0.7375,-0.7487,-0.7513,-0.7453,-0.7388,-0.7244,-0.7258,-0.7259,-0.7221,-0.721,-0.7215,-0.7221,-0.7237,-0.7215,-0.721,-0.721,-0.721,-0.721,-0.721,-0.721,-0.721,-0.721,-0.721,-0.721,-0.7177,-0.7056,-0.7008,-0.6905,-0.6921,-0.6817,-0.6774,-0.6779,-0.6823,-0.6823,-0.6725,-0.6717,-0.6754,-0.6821,-0.7068,-0.7291,-0.7527,-0.7758,-0.7902,-0.7746,-0.7584,-0.7475,-0.7373,-0.7292,-0.7173,-0.6871,-0.6593,-0.6031,-0.561,-0.5375,-0.518,-0.4961,-0.4884,-0.4858,-0.471,-0.4484,-1.0134,-1.0003,-1.0008,-0.9949,-0.9867,-0.997,-1.0019,-1.0019,-1.0019,-1.0019,-1.0019,-0.9998,-0.9987,-0.997,-0.9878,-0.9748,-0.9666,-0.9606,-0.9552,-0.9487,-0.9546,-0.953,-0.9334,-0.8671,-0.7724,-0.6998,-0.5986,-0.6137,-0.636,-0.6005,-0.6225,-0.6873,-0.7047,-0.7217,-0.7708,-0.7574,-0.7717,-0.8028,-0.7951,-0.7894,-0.7944,-0.7939,-0.7949,-0.796,-0.7816,-0.7585,-0.7095,-0.695,-0.6551,-0.5854,-0.5762,-0.5961,-0.6353,-0.6492,-0.703,-0.7513,-0.7649,-0.7417,-0.7369,-0.7336,-0.7345,-0.729,-0.7259,-0.7221,-0.7248,-0.7259,-0.723,-0.7307,-0.7236,-0.7237,-0.7237,-0.7221,-0.7215,-0.7149,-0.7138,-0.7083,-0.7083,-0.694,-0.6945,-0.7006,-0.6892,-0.6871,-0.679,-0.6861,-0.6931,-0.6899,-0.6883,-0.6878,-0.6867,-0.6711,-0.6796,-0.6828,-0.6983,-0.7173,-0.7446,-0.7684,-0.7845,-0.7982,-0.7868,-0.7678,-0.759,-0.7495,-0.7407,-0.728,-0.6879,-0.6573,-0.6165,-0.5836,-0.5492,-0.5347,-0.5285,-0.5146,-0.4994,-0.4881,-0.4762,-1.0068,-1.0014,-0.9943,-0.985,-0.9949,-1.0003,-1.0019,-1.0019,-1.0019,-1.0019,-1.0003,-0.9943,-0.9916,-0.9911,-0.9851,-0.9775,-0.9677,-0.9601,-0.9497,-0.941,-0.9364,-0.9191,-0.8594,-0.7879,-0.7094,-0.6267,-0.5524,-0.5112,-0.5386,-0.534,-0.5388,-0.6049,-0.6178,-0.6422,-0.6957,-0.6853,-0.6911,-0.707,-0.7209,-0.7547,-0.7876,-0.7915,-0.7905,-0.7964,-0.7536,-0.7145,-0.683,-0.6377,-0.5865,-0.5326,-0.5376,-0.5573,-0.5776,-0.6183,-0.6966,-0.719,-0.7572,-0.7698,-0.7655,-0.7573,-0.7497,-0.7453,-0.7399,-0.7372,-0.7361,-0.7355,-0.7366,-0.7432,-0.7394,-0.7334,-0.7274,-0.7258,-0.7214,-0.7176,-0.6895,-0.6693,-0.6688,-0.6623,-0.6553,-0.6618,-0.6563,-0.6374,-0.6101,-0.5895,-0.5859,-0.5922,-0.6044,-0.616,-0.634,-0.6514,-0.6694,-0.6907,-0.7063,-0.7285,-0.7528,-0.7756,-0.7885,-0.7968,-0.7916,-0.776,-0.7712,-0.7631,-0.7543,-0.7224,-0.6734,-0.6436,-0.6259,-0.5998,-0.5646,-0.5614,-0.5676,-0.5557,-0.544,-0.5385,-0.5009,-0.964,-0.9661,-0.9834,-0.9784,-0.9708,-0.9786,-0.9692,-0.9511,-0.9775,-0.9832,-0.9773,-0.9791,-0.9856,-0.9856,-0.9824,-0.9737,-0.9741,-0.9541,-0.9275,-0.9128,-0.8956,-0.8579,-0.7814,-0.7017,-0.6327,-0.5651,-0.5023,-0.4624,-0.4406,-0.4515,-0.4826,-0.5318,-0.5269,-0.567,-0.6123,-0.6207,-0.6116,-0.6328,-0.68,-0.7184,-0.7413,-0.7541,-0.7495,-0.7326,-0.6993,-0.6598,-0.646,-0.6142,-0.5515,-0.5307,-0.5161,-0.535,-0.5622,-0.6092,-0.6782,-0.7145,-0.7686,-0.7834,-0.779,-0.7736,-0.7698,-0.7638,-0.76,-0.7497,-0.7546,-0.7551,-0.7546,-0.7557,-0.7508,-0.7453,-0.7399,-0.7355,-0.7234,-0.6969,-0.6594,-0.6319,-0.6053,-0.6044,-0.598,-0.5868,-0.5719,-0.5364,-0.5107,-0.4668,-0.4654,-0.4881,-0.5123,-0.5404,-0.5895,-0.6393,-0.6737,-0.7095,-0.7137,-0.7359,-0.7703,-0.7902,-0.7995,-0.7988,-0.7936,-0.7848,-0.7794,-0.7746,-0.7672,-0.7208,-0.6724,-0.6601,-0.6595,-0.6184,-0.5852,-0.6037,-0.6213,-0.6042,-0.5944,-0.5804,-0.5143,-0.8692,-0.8871,-0.9578,-0.9537,-0.8934,-0.9319,-0.8954,-0.8429,-0.9128,-0.9362,-0.9309,-0.9563,-0.9818,-0.9905,-0.9764,-0.9671,-0.973,-0.9541,-0.8972,-0.8494,-0.8221,-0.7751,-0.6962,-0.6259,-0.5818,-0.547,-0.4778,-0.4049,-0.3843,-0.4175,-0.4429,-0.4619,-0.4695,-0.4962,-0.5265,-0.5436,-0.5635,-0.5898,-0.6476,-0.654,-0.6598,-0.6596,-0.6719,-0.6289,-0.6092,-0.5928,-0.591,-0.5842,-0.5661,-0.5377,-0.5362,-0.5494,-0.597,-0.6246,-0.6796,-0.7438,-0.7728,-0.7939,-0.7872,-0.7796,-0.7665,-0.7578,-0.7557,-0.7606,-0.7671,-0.7584,-0.7589,-0.7665,-0.7627,-0.7487,-0.7422,-0.7358,-0.707,-0.6654,-0.6198,-0.5832,-0.5571,-0.5531,-0.5416,-0.5194,-0.4955,-0.4738,-0.3941,-0.3542,-0.3374,-0.3613,-0.4639,-0.4972,-0.6065,-0.6614,-0.697,-0.7245,-0.7262,-0.7491,-0.7872,-0.8042,-0.811,-0.8103,-0.8085,-0.7977,-0.7882,-0.7828,-0.7801,-0.7561,-0.7162,-0.7076,-0.6885,-0.6566,-0.638,-0.6659,-0.673,-0.6537,-0.592,-0.5413,-0.4675,-0.6351,-0.6534,-0.7366,-0.8088,-0.8856,-0.8934,-0.8644,-0.8189,-0.8731,-0.9161,-0.9238,-0.9361,-0.9442,-0.9455,-0.9575,-0.9557,-0.9467,-0.8914,-0.8401,-0.8019,-0.7665,-0.6765,-0.5983,-0.5454,-0.5301,-0.4528,-0.399,-0.4142,-0.433,-0.3992,-0.4163,-0.4337,-0.4292,-0.4566,-0.4735,-0.4778,-0.5011,-0.5375,-0.5751,-0.5796,-0.6139,-0.6052,-0.6154,-0.597,-0.5908,-0.5863,-0.5858,-0.5782,-0.5515,-0.5393,-0.5643,-0.5979,-0.6323,-0.6593,-0.7155,-0.7728,-0.7867,-0.7899,-0.7943,-0.7872,-0.7785,-0.7763,-0.7741,-0.7747,-0.779,-0.7747,-0.7752,-0.7774,-0.7747,-0.7482,-0.6988,-0.6884,-0.6652,-0.6158,-0.5698,-0.5322,-0.5058,-0.4977,-0.4851,-0.4645,-0.4485,-0.4324,-0.3351,-0.237,-0.2306,-0.2352,-0.3542,-0.4738,-0.5955,-0.6872,-0.7239,-0.7521,-0.7601,-0.775,-0.8146,-0.8224,-0.8303,-0.8262,-0.8221,-0.8147,-0.8052,-0.7928,-0.7901,-0.7707,-0.7638,-0.7466,-0.7276,-0.6954,-0.6851,-0.6951,-0.7023,-0.7073,-0.6219,-0.5107,-0.4377,-0.4642,-0.4701,-0.5211,-0.6333,-0.7669,-0.817,-0.7971,-0.7637,-0.8198,-0.8722,-0.9025,-0.8995,-0.9036,-0.9105,-0.8907,-0.8803,-0.848,-0.7811,-0.7119,-0.654,-0.5891,-0.5141,-0.4533,-0.4157,-0.394,-0.3156,-0.3079,-0.3377,-0.3609,-0.3301,-0.3335,-0.3518,-0.3865,-0.3923,-0.4398,-0.4354,-0.4536,-0.477,-0.508,-0.4972,-0.5386,-0.5513,-0.5356,-0.5356,-0.5356,-0.5521,-0.554,-0.5645,-0.5598,-0.5487,-0.5657,-0.6047,-0.6372,-0.6769,-0.7337,-0.7551,-0.7755,-0.7854,-0.7768,-0.7913,-0.7905,-0.785,-0.7845,-0.7917,-0.7872,-0.7867,-0.7834,-0.7488,-0.7493,-0.7255,-0.6422,-0.6299,-0.608,-0.5608,-0.5072,-0.4654,-0.4529,-0.44,-0.4219,-0.4053,-0.3841,-0.3564,-0.2918,-0.2099,-0.2549,-0.2753,-0.3792,-0.5103,-0.6453,-0.7149,-0.7504,-0.7742,-0.7933,-0.8171,-0.842,-0.8438,-0.8404,-0.8384,-0.8357,-0.8343,-0.8269,-0.8187,-0.811,-0.8079,-0.8002,-0.7848,-0.7703,-0.7564,-0.7307,-0.7035,-0.7014,-0.6821,-0.5922,-0.4839,-0.4395,-0.361,-0.3718,-0.3765,-0.4295,-0.5303,-0.6724,-0.6933,-0.6586,-0.7448,-0.8093,-0.83,-0.822,-0.829,-0.8448,-0.7723,-0.7409,-0.7056,-0.6224,-0.5254,-0.4434,-0.4151,-0.3276,-0.2826,-0.2595,-0.2801,-0.239,-0.2305,-0.2362,-0.2512,-0.2369,-0.2346,-0.2538,-0.2818,-0.3219,-0.4195,-0.4316,-0.4248,-0.4215,-0.4778,-0.463,-0.4502,-0.4713,-0.4638,-0.4518,-0.4823,-0.5121,-0.5176,-0.5639,-0.5665,-0.5577,-0.5309,-0.5694,-0.6332,-0.6116,-0.6397,-0.6879,-0.7439,-0.7449,-0.7082,-0.7671,-0.7784,-0.7766,-0.7689,-0.7689,-0.775,-0.7739,-0.7352,-0.6766,-0.6668,-0.6363,-0.5957,-0.5532,-0.5207,-0.479,-0.4221,-0.4038,-0.3863,-0.4155,-0.4085,-0.3775,-0.31,-0.2522,-0.215,-0.1995,-0.2736,-0.3392,-0.4234,-0.5397,-0.6619,-0.7332,-0.7641,-0.7822,-0.8091,-0.8274,-0.8461,-0.8501,-0.8513,-0.8499,-0.8492,-0.8486,-0.8465,-0.8397,-0.8397,-0.8438,-0.8332,-0.8186,-0.8206,-0.8278,-0.7704,-0.707,-0.659,-0.6189,-0.5318,-0.472,-0.4372,-0.1284,-0.1279,-0.1813,-0.266,-0.3827,-0.5434,-0.616,-0.6458,-0.6981,-0.7109,-0.6837,-0.6697,-0.6228,-0.5939,-0.5932,-0.5686,-0.5402,-0.467,-0.3708,-0.3492,-0.2914,-0.2258,-0.1815,-0.1804,-0.1945,-0.1665,-0.1513,-0.1798,-0.232,-0.1808,-0.1868,-0.2137,-0.2394,-0.3128,-0.3532,-0.3656,-0.3752,-0.4187,-0.4373,-0.4293,-0.4063,-0.4213,-0.419,-0.4003,-0.4618,-0.4929,-0.4922,-0.5502,-0.5582,-0.5312,-0.5043,-0.549,-0.5798,-0.552,-0.5937,-0.6211,-0.6582,-0.646,-0.6298,-0.6598,-0.6869,-0.7054,-0.7194,-0.7072,-0.6705,-0.6582,-0.6193,-0.575,-0.5547,-0.5019,-0.4127,-0.3869,-0.3546,-0.3255,-0.2902,-0.3187,-0.3321,-0.3935,-0.4127,-0.3619,-0.2985,-0.2542,-0.2112,-0.2697,-0.3431,-0.417,-0.5027,-0.5273,-0.62,-0.7099,-0.7613,-0.7834,-0.8023,-0.832,-0.8499,-0.8548,-0.8649,-0.8716,-0.8676,-0.8635,-0.8608,-0.8581,-0.854,-0.8526,-0.8506,-0.8531,-0.8406,-0.8209,-0.7628,-0.7071,-0.6396,-0.5907,-0.5281,-0.4826,-0.4552,0.0,0.0,-0.0526,-0.1501,-0.2695,-0.4462,-0.5556,-0.598,-0.5943,-0.5586,-0.5146,-0.5038,-0.4805,-0.4291,-0.4059,-0.3921,-0.378,-0.3043,-0.2328,-0.2256,-0.175,-0.1239,-0.109,0.0,-0.1015,0.0,0.0,-0.1085,-0.1735,-0.1091,-0.1157,-0.1642,-0.2047,-0.2251,-0.2731,-0.3322,-0.3884,-0.4193,-0.4251,-0.4195,-0.4095,-0.4065,-0.4041,-0.4145,-0.4511,-0.49,-0.487,-0.5015,-0.5212,-0.4885,-0.4828,-0.5151,-0.5007,-0.5197,-0.554,-0.554,-0.554,-0.5663,-0.5925,-0.6007,-0.6262,-0.6101,-0.6399,-0.6232,-0.576,-0.5656,-0.5008,-0.4564,-0.4256,-0.358,-0.2755,-0.2512,-0.2382,-0.2109,-0.2208,-0.2454,-0.2618,-0.326,-0.3362,-0.2937,-0.283,-0.2431,-0.252,-0.3452,-0.4255,-0.5055,-0.5847,-0.592,-0.5991,-0.6826,-0.7604,-0.7765,-0.7986,-0.8225,-0.8433,-0.8598,-0.8714,-0.8871,-0.8866,-0.8771,-0.8784,-0.8757,-0.8682,-0.8635,-0.8669,-0.8608,-0.8401,-0.8052,-0.7379,-0.6651,-0.5946,-0.5477,-0.5179,-0.4837,-0.4493,0.0,0.0,0.0,-0.0739,-0.1976,-0.3697,-0.4714,-0.5029,-0.4126,-0.3678,-0.3498,-0.3494,-0.3415,-0.3556,-0.3023,-0.2524,-0.225,-0.1514,-0.1013,0.0,0.0,0.0,0.0,0.0,0.0,0.0,0.0,-0.0507,-0.0934,-0.0798,-0.0797,-0.1076,-0.1287,-0.177,-0.2648,-0.3296,-0.3845,-0.3929,-0.415,-0.408,-0.4079,-0.3973,-0.3819,-0.3983,-0.4219,-0.4279,-0.4315,-0.4456,-0.4441,-0.4247,-0.4007,-0.4376,-0.4619,-0.4865,-0.4865,-0.4865,-0.4865,-0.5172,-0.5479,-0.5559,-0.5262,-0.5008,-0.5313,-0.5284,-0.4946,-0.4527,-0.3831,-0.3247,-0.2862,-0.2356,-0.183,-0.1719,-0.1664,-0.1594,-0.1707,-0.1759,-0.1821,-0.199,-0.2103,-0.2043,-0.2151,-0.2231,-0.301,-0.3908,-0.4918,-0.5851,-0.6465,-0.6674,-0.6796,-0.6882,-0.7549,-0.7715,-0.7875,-0.8097,-0.8318,-0.8423,-0.8712,-0.8878,-0.8885,-0.8879,-0.8844,-0.8844,-0.8832,-0.8811,-0.8886,-0.8804,-0.8574,-0.7949,-0.7072,-0.6344,-0.57,-0.501,-0.4614,-0.4475,-0.4178,0.0,0.0,0.0,-0.0664,-0.1679,-0.2341,-0.3068,-0.386,-0.3552,-0.304,-0.2184,-0.2164,-0.1953,-0.1165,-0.0872,0.0,0.0,-0.0436,-0.0291,0.0,0.0,0.0,0.0,0.0,0.0,0.0,0.0,0.0,-0.0436,-0.0437,-0.1151,-0.177,-0.1495,-0.2109,-0.2572,-0.3017,-0.3185,-0.3483,-0.3718,-0.3904,-0.3789,-0.356,-0.3408,-0.3456,-0.3511,-0.3506,-0.349,-0.3802,-0.3846,-0.3892,-0.3892,-0.4074,-0.4133,-0.4195,-0.4195,-0.4195,-0.4195,-0.4318,-0.4441,-0.4502,-0.4271,-0.381,-0.3821,-0.3698,-0.3473,-0.3116,-0.2554,-0.2034,-0.1647,-0.1304,0.0,0.0,0.0,0.0,0.0,-0.1141,-0.1202,-0.1378,-0.1434,-0.1542,-0.1656,-0.2544,-0.3388,-0.4506,-0.5471,-0.6479,-0.7101,-0.7244,-0.7326,-0.7349,-0.7243,-0.7404,-0.7514,-0.7619,-0.8023,-0.8251,-0.8595,-0.8823,-0.8878,-0.8885,-0.8871,-0.8865,-0.8933,-0.894,-0.894,-0.8927,-0.8831,-0.8069,-0.7135,-0.6327,-0.5629,-0.4826,-0.414,-0.4001,-0.3914,0.0,0.0,0.0,-0.0441,-0.0949,-0.1021,-0.1458,-0.2037,-0.2095,-0.1593,-0.1092,-0.1013,0.0,0.0,0.0,0.0,0.0,0.0,0.0,0.0,0.0,0.0,0.0,0.0,0.0,0.0,0.0,0.0,0.0,-0.0579,-0.1216,-0.1632,-0.1908,-0.2109,-0.2171,-0.2096,-0.2073,-0.2454,-0.2819,-0.3226,-0.314,-0.2946,-0.2813,-0.266,-0.2656,-0.266,-0.2644,-0.303,-0.3262,-0.3374,-0.3374,-0.3318,-0.3318,-0.3316,-0.3376,-0.3438,-0.3553,-0.3725,-0.3959,-0.373,-0.3378,-0.2967,-0.2551,-0.2247,-0.2124,-0.1878,-0.1363,-0.0844,-0.0713,0.0,0.0,0.0,0.0,0.0,0.0,0.0,-0.0735,-0.0854,-0.1029,-0.1141,-0.1796,-0.2753,-0.3742,-0.4915,-0.5996,-0.694,-0.7232,-0.7143,-0.7193,-0.7142,-0.6901,-0.6793,-0.6903,-0.7018,-0.7474,-0.7816,-0.8158,-0.8507,-0.8823,-0.8878,-0.8885,-0.894,-0.894,-0.894,-0.894,-0.8927,-0.8865,-0.8154,-0.7298,-0.6532,-0.5732,-0.4914,-0.4177,-0.3677,-0.3587,0.0,0.0,0.0,0.0,0.0,0.0,0.0,0.0,0.0,0.0,0.0,0.0,0.0,0.0,0.0,0.0,0.0,0.0,0.0,0.0,0.0,0.0,0.0,0.0,0.0,0.0,0.0,0.0,0.0,-0.0507,-0.0936,-0.1074,-0.1,-0.121,-0.1421,-0.1279,-0.1265,-0.1242,-0.171,-0.2026,-0.2187,-0.2121,-0.2063,-0.1955,-0.1957,-0.1966,-0.1947,-0.206,-0.2308,-0.2489,-0.2547,-0.2489,-0.2549,-0.2551,-0.2611,-0.2667,-0.291,-0.3082,-0.326,-0.3082,-0.2848,-0.2367,-0.1751,-0.1309,-0.1117,-0.1053,-0.0594,0.0,0.0,0.0,0.0,0.0,0.0,0.0,0.0,0.0,0.0,0.0,0.0,0.0,-0.1215,-0.2248,-0.3714,-0.4864,-0.6016,-0.7109,-0.7375,-0.7046,-0.6819,-0.6735,-0.6417,-0.6115,-0.6314,-0.6473,-0.665,-0.7051,-0.7592,-0.8011,-0.852,-0.8878,-0.8878,-0.8885,-0.894,-0.894,-0.894,-0.894,-0.8734,-0.81,-0.7499,-0.6859,-0.6008,-0.5039,-0.4313,-0.3601,-0.3252,0.0,0.0,0.0,0.0,0.0,0.0,0.0,0.0,0.0,0.0,0.0,0.0,0.0,0.0,0.0,0.0,0.0,0.0,0.0,0.0,0.0,0.0,0.0,0.0,0.0,0.0,0.0,0.0,0.0,-0.0581,-0.101,-0.1075,-0.1074,-0.1145,-0.0932,-0.0789,-0.0568,-0.0418,0.0,0.0,-0.1716,-0.1527,-0.1334,-0.1252,-0.1252,-0.1252,-0.1373,-0.1752,-0.1938,-0.2186,-0.2123,-0.2123,-0.2183,-0.1997,-0.206,-0.2183,-0.2245,-0.2428,-0.2487,-0.2428,-0.2123,-0.1688,-0.1117,-0.0729,-0.0467,0.0,0.0,0.0,0.0,0.0,0.0,0.0,0.0,0.0,0.0,0.0,0.0,0.0,0.0,0.0,0.0,-0.1914,-0.3467,-0.4664,-0.5914,-0.651,-0.6749,-0.6618,-0.6191,-0.5917,-0.5446,-0.5265,-0.5696,-0.5886,-0.6011,-0.6295,-0.6855,-0.7578,-0.814,-0.8491,-0.8843,-0.8856,-0.8876,-0.8898,-0.894,-0.8954,-0.8754,-0.8314,-0.7702,-0.7079,-0.6278,-0.5316,-0.4192,-0.3361,-0.3066,0.0,0.0,0.0,0.0,0.0,0.0,0.0,0.0,0.0,0.0,0.0,0.0146,0.0146,0.0146,0.0365,0.0219,0.0146,0.0,0.0,0.0,0.0,0.0,0.0,0.0,0.0,0.0,0.0,0.0,0.0,-0.0435,-0.0791,-0.072,-0.1006,-0.1005,0.0,0.0,0.0,0.0,0.0,0.0,0.0,0.0,0.0,-0.0533,0.0,0.0,-0.0664,-0.0989,-0.1246,-0.1436,-0.1498,-0.1245,-0.1182,-0.0988,-0.1246,-0.1436,-0.1561,-0.1688,-0.1816,-0.169,-0.1373,-0.1053,-0.0664,-0.0268,0.0,0.0,0.0,0.0,0.0,0.0,0.0,0.0,0.0,0.0,0.0,0.0,0.0,0.0,0.0,0.0,-0.0631,-0.1436,-0.2683,-0.3401,-0.451,-0.5043,-0.5346,-0.5234,-0.4984,-0.4897,-0.4428,-0.426,-0.4664,-0.5095,-0.5327,-0.5673,-0.616,-0.6874,-0.761,-0.8214,-0.8621,-0.8739,-0.8811,-0.8923,-0.9022,-0.8988,-0.8774,-0.852,-0.7913,-0.7247,-0.6418,-0.5553,-0.4364,-0.3183,-0.2782,0.0,0.0,0.0,0.0,0.0,0.0,0.0,0.0,0.0,0.0,0.0,0.0436,0.0291,0.0365,0.0655,0.0437,0.0365,0.0438,0.0292,0.0292,0.0,0.0,0.0,0.0,0.0,0.0,0.0,0.0,0.0,-0.029,-0.0362,-0.0145,0.0,0.0,0.0,0.0,0.0,0.0,0.0,0.0,0.0,0.0,0.0,0.0,0.0,0.0,0.0,0.0,0.0,-0.0599,-0.0861,-0.0666,0.0,0.0,-0.0538,-0.0736,-0.087,-0.1128,-0.1316,-0.1124,-0.0927,-0.073,0.0,0.0,0.0,0.0,0.0,0.0,0.0,0.0,0.0,0.0,0.0,0.0,0.0,0.0,0.0,0.0,0.0,0.0,0.0,0.0,-0.1824,-0.2553,-0.303,-0.3579,-0.3615,-0.3345,-0.3247,-0.3364,-0.319,-0.3155,-0.3351,-0.3863,-0.4237,-0.4643,-0.4968,-0.5884,-0.6571,-0.7606,-0.8435,-0.8717,-0.8894,-0.9114,-0.9144,-0.9123,-0.9137,-0.903,-0.8339,-0.7443,-0.6629,-0.5689,-0.4176,-0.3086,-0.2505,0.0,0.0,0.0,0.0,0.0,0.0,0.0,0.0,0.0,0.0,0.0,0.0359,0.0361,0.0,0.0072,0.0144,0.0511,0.0657,0.0876,0.0949,0.0803,0.0876,0.0803,0.0438,0.0292,0.0,0.0,0.0,0.0,0.0,0.0,0.0,0.0,0.0,0.0,0.0,0.0,0.0,0.0,0.0,0.0,0.0,0.0,0.0,0.0,0.0,0.0,0.0,0.0,-0.0136,0.0,0.0,0.0,0.0,0.0,0.0,0.0,0.0,0.0,0.0,0.0,0.0,0.0,0.0,0.0,0.0,0.0,0.0,0.0,0.0,0.0,0.0,0.0,0.0,0.0,0.0,0.0,0.0,0.0,0.0,0.0,0.0,-0.1602,-0.2154,-0.2437,-0.2796,-0.2887,-0.2623,-0.2433,-0.2221,0.0,0.0,0.0,-0.2057,-0.2247,-0.3056,-0.3592,-0.4569,-0.5737,-0.7058,-0.8113,-0.8729,-0.8987,-0.9147,-0.9313,-0.9306,-0.9327,-0.9262,-0.8502,-0.755,-0.6827,-0.5838,-0.422,-0.2984,-0.239]}]]